Wetterdaten: Mittwoch, 16.03.2016
Datum Zeit Temp. A. Feuchte A. Luftdruck Regen Wind Richtung Richtung Sonnenschein ET UV Solar Taupunkt Windchill Windben Empfang
16.03.2016 00:00 0,1 C 97 % 1022,8 hPa 0,0 l/m 5,0 km/h (1 Bft) O-NO 66 0 min 0,000 mm 0,0 UV-I 0 W/m -0,3 C 0,1 C 6,4 km/h (2 Bft) 100,00 %
16.03.2016 00:02 0,1 C 97 % 1022,8 hPa 0,0 l/m 4,8 km/h (1 Bft) O-NO 66 0 min 0,000 mm 0,0 UV-I 0 W/m -0,3 C 0,1 C 4,8 km/h (1 Bft) 94,59 %
16.03.2016 00:03 0,1 C 97 % 1022,8 hPa 0,0 l/m 4,5 km/h (1 Bft) O-NO 63 0 min 0,000 mm 0,0 UV-I 0 W/m -0,3 C 0,1 C 6,4 km/h (2 Bft) 100,00 %
16.03.2016 00:04 0,0 C 97 % 1022,8 hPa 0,0 l/m 3,6 km/h (1 Bft) O-NO 77 0 min 0,000 mm 0,0 UV-I 0 W/m -0,4 C 0,0 C 4,8 km/h (1 Bft) 100,00 %
16.03.2016 00:05 0,0 C 97 % 1022,8 hPa 0,0 l/m 4,1 km/h (1 Bft) O-NO 61 0 min 0,000 mm 0,0 UV-I 0 W/m -0,4 C 0,0 C 4,8 km/h (1 Bft) 100,00 %
16.03.2016 00:06 -0,1 C 97 % 1022,9 hPa 0,0 l/m 3,0 km/h (1 Bft) O-NO 62 0 min 0,000 mm 0,0 UV-I 0 W/m -0,5 C -0,1 C 4,8 km/h (1 Bft) 96,15 %
16.03.2016 00:07 -0,1 C 97 % 1022,8 hPa 0,0 l/m 3,6 km/h (1 Bft) O-NO 66 0 min 0,000 mm 0,0 UV-I 0 W/m -0,5 C -0,1 C 4,8 km/h (1 Bft) 100,00 %
16.03.2016 00:08 -0,1 C 97 % 1022,8 hPa 0,0 l/m 3,1 km/h (1 Bft) O-NO 67 0 min 0,000 mm 0,0 UV-I 0 W/m -0,5 C -0,1 C 4,8 km/h (1 Bft) 96,15 %
16.03.2016 00:09 -0,1 C 97 % 1022,8 hPa 0,0 l/m 3,0 km/h (1 Bft) O-NO 67 0 min 0,000 mm 0,0 UV-I 0 W/m -0,5 C -0,1 C 4,8 km/h (1 Bft) 100,00 %
16.03.2016 00:10 -0,1 C 97 % 1022,8 hPa 0,0 l/m 3,2 km/h (1 Bft) NO 48 0 min 0,000 mm 0,0 UV-I 0 W/m -0,5 C -0,1 C 4,8 km/h (1 Bft) 95,65 %
16.03.2016 00:11 -0,1 C 97 % 1022,8 hPa 0,0 l/m 3,7 km/h (1 Bft) NO 53 0 min 0,000 mm 0,0 UV-I 0 W/m -0,5 C -0,1 C 4,8 km/h (1 Bft) 100,00 %
16.03.2016 00:12 -0,1 C 97 % 1022,9 hPa 0,0 l/m 3,3 km/h (1 Bft) NO 53 0 min 0,000 mm 0,0 UV-I 0 W/m -0,5 C -0,1 C 4,8 km/h (1 Bft) 100,00 %
16.03.2016 00:13 -0,1 C 97 % 1022,8 hPa 0,0 l/m 1,6 km/h (1 Bft) NO 53 0 min 0,000 mm 0,0 UV-I 0 W/m -0,5 C -0,1 C 3,2 km/h (1 Bft) 96,67 %
16.03.2016 00:14 -0,1 C 97 % 1022,8 hPa 0,0 l/m 2,2 km/h (1 Bft) NO 53 0 min 0,000 mm 0,0 UV-I 0 W/m -0,5 C -0,1 C 3,2 km/h (1 Bft) 100,00 %
16.03.2016 00:15 -0,2 C 97 % 1022,8 hPa 0,0 l/m 2,6 km/h (1 Bft) O-NO 66 0 min 0,000 mm 0,0 UV-I 0 W/m -0,6 C -0,2 C 4,8 km/h (1 Bft) 95,83 %
16.03.2016 00:16 -0,2 C 97 % 1022,8 hPa 0,0 l/m 4,2 km/h (1 Bft) O-NO 57 0 min 0,000 mm 0,0 UV-I 0 W/m -0,6 C -0,2 C 6,4 km/h (2 Bft) 100,00 %
16.03.2016 00:17 -0,2 C 97 % 1022,8 hPa 0,0 l/m 5,1 km/h (1 Bft) NO 53 0 min 0,000 mm 0,0 UV-I 0 W/m -0,6 C -0,2 C 6,4 km/h (2 Bft) 96,67 %
16.03.2016 00:18 -0,2 C 97 % 1022,8 hPa 0,0 l/m 4,0 km/h (1 Bft) O-NO 58 0 min 0,000 mm 0,0 UV-I 0 W/m -0,6 C -0,2 C 4,8 km/h (1 Bft) 96,15 %
16.03.2016 00:19 -0,2 C 97 % 1022,8 hPa 0,0 l/m 3,8 km/h (1 Bft) O-NO 57 0 min 0,000 mm 0,0 UV-I 0 W/m -0,6 C -0,2 C 6,4 km/h (2 Bft) 100,00 %
16.03.2016 00:20 -0,2 C 97 % 1022,9 hPa 0,0 l/m 4,0 km/h (1 Bft) O-NO 58 0 min 0,000 mm 0,0 UV-I 0 W/m -0,6 C -0,2 C 6,4 km/h (2 Bft) 95,65 %
16.03.2016 00:21 -0,2 C 97 % 1022,9 hPa 0,0 l/m 4,1 km/h (1 Bft) O-NO 59 0 min 0,000 mm 0,0 UV-I 0 W/m -0,6 C -0,2 C 4,8 km/h (1 Bft) 100,00 %
16.03.2016 00:22 -0,2 C 97 % 1022,9 hPa 0,0 l/m 4,2 km/h (1 Bft) NO 53 0 min 0,000 mm 0,0 UV-I 0 W/m -0,6 C -0,2 C 6,4 km/h (2 Bft) 96,55 %
16.03.2016 00:23 -0,2 C 97 % 1022,9 hPa 0,0 l/m 4,3 km/h (1 Bft) O-NO 57 0 min 0,000 mm 0,0 UV-I 0 W/m -0,6 C -0,2 C 6,4 km/h (2 Bft) 95,83 %
16.03.2016 00:24 -0,2 C 97 % 1022,9 hPa 0,0 l/m 4,8 km/h (1 Bft) NO 44 0 min 0,000 mm 0,0 UV-I 0 W/m -0,6 C -0,2 C 6,4 km/h (2 Bft) 95,65 %
16.03.2016 00:25 -0,2 C 97 % 1022,9 hPa 0,0 l/m 5,0 km/h (1 Bft) NO 39 0 min 0,000 mm 0,0 UV-I 0 W/m -0,6 C -0,2 C 8,0 km/h (2 Bft) 100,00 %
16.03.2016 00:26 -0,2 C 97 % 1022,8 hPa 0,0 l/m 4,4 km/h (1 Bft) NO 48 0 min 0,000 mm 0,0 UV-I 0 W/m -0,6 C -0,2 C 6,4 km/h (2 Bft) 95,83 %
16.03.2016 00:27 -0,2 C 97 % 1022,9 hPa 0,0 l/m 2,8 km/h (1 Bft) NO 48 0 min 0,000 mm 0,0 UV-I 0 W/m -0,6 C -0,2 C 4,8 km/h (1 Bft) 100,00 %
16.03.2016 00:28 -0,2 C 97 % 1022,8 hPa 0,0 l/m 3,7 km/h (1 Bft) NO 46 0 min 0,000 mm 0,0 UV-I 0 W/m -0,6 C -0,2 C 6,4 km/h (2 Bft) 92,59 %
16.03.2016 00:29 -0,2 C 97 % 1022,9 hPa 0,0 l/m 3,4 km/h (1 Bft) NO 43 0 min 0,000 mm 0,0 UV-I 0 W/m -0,6 C -0,2 C 4,8 km/h (1 Bft) 95,65 %
16.03.2016 00:30 -0,2 C 97 % 1022,9 hPa 0,0 l/m 4,2 km/h (1 Bft) NO 36 0 min 0,000 mm 0,0 UV-I 0 W/m -0,6 C -0,2 C 4,8 km/h (1 Bft) 100,00 %
16.03.2016 00:31 -0,2 C 97 % 1022,9 hPa 0,0 l/m 2,7 km/h (1 Bft) NO 36 0 min 0,000 mm 0,0 UV-I 0 W/m -0,6 C -0,2 C 4,8 km/h (1 Bft) 92,31 %
16.03.2016 00:32 -0,3 C 97 % 1022,9 hPa 0,0 l/m 4,2 km/h (1 Bft) NO 46 0 min 0,000 mm 0,0 UV-I 0 W/m -0,7 C -0,3 C 6,4 km/h (2 Bft) 100,00 %
16.03.2016 00:33 -0,3 C 97 % 1022,9 hPa 0,0 l/m 4,5 km/h (1 Bft) N-NO 26 0 min 0,000 mm 0,0 UV-I 0 W/m -0,7 C -0,3 C 6,4 km/h (2 Bft) 90,91 %
16.03.2016 00:34 -0,3 C 97 % 1022,9 hPa 0,0 l/m 4,1 km/h (1 Bft) N-NO 24 0 min 0,000 mm 0,0 UV-I 0 W/m -0,7 C -0,3 C 6,4 km/h (2 Bft) 100,00 %
16.03.2016 00:35 -0,3 C 97 % 1022,9 hPa 0,0 l/m 3,9 km/h (1 Bft) NO 42 0 min 0,000 mm 0,0 UV-I 0 W/m -0,7 C -0,3 C 4,8 km/h (1 Bft) 96,15 %
16.03.2016 00:36 -0,3 C 97 % 1022,9 hPa 0,0 l/m 4,0 km/h (1 Bft) N-NO 29 0 min 0,000 mm 0,0 UV-I 0 W/m -0,7 C -0,3 C 4,8 km/h (1 Bft) 100,00 %
16.03.2016 00:37 -0,3 C 96 % 1022,9 hPa 0,0 l/m 3,9 km/h (1 Bft) NO 44 0 min 0,000 mm 0,0 UV-I 0 W/m -0,9 C -0,3 C 4,8 km/h (1 Bft) 95,65 %
16.03.2016 00:38 -0,3 C 97 % 1022,9 hPa 0,0 l/m 4,0 km/h (1 Bft) N-NO 26 0 min 0,000 mm 0,0 UV-I 0 W/m -0,7 C -0,3 C 4,8 km/h (1 Bft) 96,67 %
16.03.2016 00:39 -0,3 C 97 % 1023,0 hPa 0,0 l/m 3,5 km/h (1 Bft) NO 34 0 min 0,000 mm 0,0 UV-I 0 W/m -0,7 C -0,3 C 6,4 km/h (2 Bft) 100,00 %
16.03.2016 00:40 -0,3 C 97 % 1023,0 hPa 0,0 l/m 3,8 km/h (1 Bft) NO 42 0 min 0,000 mm 0,0 UV-I 0 W/m -0,7 C -0,3 C 4,8 km/h (1 Bft) 95,83 %
16.03.2016 00:41 -0,3 C 97 % 1023,0 hPa 0,0 l/m 4,5 km/h (1 Bft) NO 40 0 min 0,000 mm 0,0 UV-I 0 W/m -0,7 C -0,3 C 6,4 km/h (2 Bft) 100,00 %
16.03.2016 00:42 -0,2 C 97 % 1023,0 hPa 0,0 l/m 4,5 km/h (1 Bft) O-NO 60 0 min 0,000 mm 0,0 UV-I 0 W/m -0,6 C -0,2 C 6,4 km/h (2 Bft) 93,33 %
16.03.2016 00:43 -0,2 C 97 % 1023,0 hPa 0,0 l/m 4,8 km/h (1 Bft) NO 44 0 min 0,000 mm 0,0 UV-I 0 W/m -0,6 C -0,2 C 6,4 km/h (2 Bft) 100,00 %
16.03.2016 00:44 -0,2 C 97 % 1023,0 hPa 0,0 l/m 4,7 km/h (1 Bft) N 9 0 min 0,000 mm 0,0 UV-I 0 W/m -0,6 C -0,2 C 6,4 km/h (2 Bft) 95,83 %
16.03.2016 00:45 -0,2 C 97 % 1023,0 hPa 0,0 l/m 4,4 km/h (1 Bft) NO 44 0 min 0,000 mm 0,0 UV-I 0 W/m -0,6 C -0,2 C 4,8 km/h (1 Bft) 96,15 %
16.03.2016 00:46 -0,2 C 97 % 1023,0 hPa 0,0 l/m 5,1 km/h (1 Bft) NO 40 0 min 0,000 mm 0,0 UV-I 0 W/m -0,6 C -0,2 C 6,4 km/h (2 Bft) 100,00 %
16.03.2016 00:47 -0,2 C 97 % 1023,0 hPa 0,0 l/m 5,1 km/h (1 Bft) NO 36 0 min 0,000 mm 0,0 UV-I 0 W/m -0,6 C -0,2 C 8,0 km/h (2 Bft) 100,00 %
16.03.2016 00:48 -0,2 C 97 % 1023,0 hPa 0,0 l/m 4,4 km/h (1 Bft) NO 36 0 min 0,000 mm 0,0 UV-I 0 W/m -0,6 C -0,2 C 6,4 km/h (2 Bft) 92,86 %
16.03.2016 00:49 -0,2 C 97 % 1023,0 hPa 0,0 l/m 3,7 km/h (1 Bft) NO 38 0 min 0,000 mm 0,0 UV-I 0 W/m -0,6 C -0,2 C 6,4 km/h (2 Bft) 95,24 %
16.03.2016 00:50 -0,2 C 97 % 1023,0 hPa 0,0 l/m 3,9 km/h (1 Bft) N-NO 24 0 min 0,000 mm 0,0 UV-I 0 W/m -0,6 C -0,2 C 4,8 km/h (1 Bft) 100,00 %
16.03.2016 00:51 -0,2 C 97 % 1023,0 hPa 0,0 l/m 3,5 km/h (1 Bft) NO 36 0 min 0,000 mm 0,0 UV-I 0 W/m -0,6 C -0,2 C 4,8 km/h (1 Bft) 100,00 %
16.03.2016 00:52 -0,1 C 97 % 1023,0 hPa 0,0 l/m 4,1 km/h (1 Bft) NO 36 0 min 0,000 mm 0,0 UV-I 0 W/m -0,5 C -0,1 C 4,8 km/h (1 Bft) 100,00 %
16.03.2016 00:53 -0,1 C 97 % 1023,1 hPa 0,0 l/m 6,2 km/h (2 Bft) NO 36 0 min 0,000 mm 0,0 UV-I 0 W/m -0,5 C -0,1 C 8,0 km/h (2 Bft) 100,00 %
16.03.2016 00:54 -0,1 C 97 % 1023,0 hPa 0,0 l/m 5,0 km/h (1 Bft) N-NO 28 0 min 0,000 mm 0,0 UV-I 0 W/m -0,5 C -0,1 C 6,4 km/h (2 Bft) 100,00 %
16.03.2016 00:55 -0,1 C 97 % 1023,0 hPa 0,0 l/m 4,6 km/h (1 Bft) NO 34 0 min 0,000 mm 0,0 UV-I 0 W/m -0,5 C -0,1 C 8,0 km/h (2 Bft) 100,00 %
16.03.2016 00:56 -0,1 C 97 % 1023,0 hPa 0,0 l/m 4,9 km/h (1 Bft) N 11 0 min 0,000 mm 0,0 UV-I 0 W/m -0,5 C -0,1 C 6,4 km/h (2 Bft) 100,00 %
16.03.2016 00:57 -0,1 C 97 % 1023,0 hPa 0,0 l/m 3,5 km/h (1 Bft) N-NO 19 0 min 0,000 mm 0,0 UV-I 0 W/m -0,5 C -0,1 C 4,8 km/h (1 Bft) 100,00 %
16.03.2016 00:58 -0,1 C 97 % 1023,0 hPa 0,0 l/m 4,7 km/h (1 Bft) NO 36 0 min 0,000 mm 0,0 UV-I 0 W/m -0,5 C -0,1 C 8,0 km/h (2 Bft) 96,15 %
16.03.2016 00:59 -0,1 C 97 % 1023,0 hPa 0,0 l/m 5,4 km/h (1 Bft) NO 44 0 min 0,000 mm 0,0 UV-I 0 W/m -0,5 C -0,1 C 6,4 km/h (2 Bft) 100,00 %
16.03.2016 01:00 -0,1 C 97 % 1023,0 hPa 0,0 l/m 3,6 km/h (1 Bft) N-NO 18 0 min 0,000 mm 0,0 UV-I 0 W/m -0,5 C -0,1 C 4,8 km/h (1 Bft) 100,00 %
16.03.2016 01:01 -0,1 C 97 % 1023,0 hPa 0,0 l/m 4,0 km/h (1 Bft) NO 36 0 min 0,000 mm 0,0 UV-I 0 W/m -0,5 C -0,1 C 4,8 km/h (1 Bft) 100,00 %
16.03.2016 01:02 -0,1 C 97 % 1023,1 hPa 0,0 l/m 5,3 km/h (1 Bft) N-NO 28 0 min 0,000 mm 0,0 UV-I 0 W/m -0,5 C -0,1 C 8,0 km/h (2 Bft) 95,65 %
16.03.2016 01:03 -0,1 C 97 % 1023,1 hPa 0,0 l/m 4,7 km/h (1 Bft) NO 36 0 min 0,000 mm 0,0 UV-I 0 W/m -0,5 C -0,1 C 6,4 km/h (2 Bft) 100,00 %
16.03.2016 01:04 0,0 C 97 % 1023,0 hPa 0,0 l/m 3,4 km/h (1 Bft) NO 45 0 min 0,000 mm 0,0 UV-I 0 W/m -0,4 C 0,0 C 4,8 km/h (1 Bft) 100,00 %
16.03.2016 01:05 0,0 C 97 % 1023,0 hPa 0,0 l/m 3,3 km/h (1 Bft) NO 49 0 min 0,000 mm 0,0 UV-I 0 W/m -0,4 C 0,0 C 4,8 km/h (1 Bft) 100,00 %
16.03.2016 01:06 0,0 C 97 % 1023,0 hPa 0,0 l/m 4,3 km/h (1 Bft) NO 50 0 min 0,000 mm 0,0 UV-I 0 W/m -0,4 C 0,0 C 6,4 km/h (2 Bft) 100,00 %
16.03.2016 01:07 0,0 C 97 % 1023,0 hPa 0,0 l/m 4,5 km/h (1 Bft) NO 41 0 min 0,000 mm 0,0 UV-I 0 W/m -0,4 C 0,0 C 6,4 km/h (2 Bft) 100,00 %
16.03.2016 01:08 0,0 C 97 % 1023,1 hPa 0,0 l/m 4,8 km/h (1 Bft) N-NO 32 0 min 0,000 mm 0,0 UV-I 0 W/m -0,4 C 0,0 C 6,4 km/h (2 Bft) 96,30 %
16.03.2016 01:09 0,0 C 97 % 1023,1 hPa 0,0 l/m 5,3 km/h (1 Bft) NO 37 0 min 0,000 mm 0,0 UV-I 0 W/m -0,4 C 0,0 C 6,4 km/h (2 Bft) 100,00 %
16.03.2016 01:10 0,0 C 97 % 1023,0 hPa 0,0 l/m 5,1 km/h (1 Bft) NO 43 0 min 0,000 mm 0,0 UV-I 0 W/m -0,4 C 0,0 C 8,0 km/h (2 Bft) 100,00 %
16.03.2016 01:11 0,0 C 97 % 1023,1 hPa 0,0 l/m 6,0 km/h (2 Bft) O-NO 61 0 min 0,000 mm 0,0 UV-I 0 W/m -0,4 C 0,0 C 8,0 km/h (2 Bft) 100,00 %
16.03.2016 01:12 0,0 C 97 % 1023,1 hPa 0,0 l/m 5,8 km/h (2 Bft) NO 40 0 min 0,000 mm 0,0 UV-I 0 W/m -0,4 C 0,0 C 8,0 km/h (2 Bft) 100,00 %
16.03.2016 01:13 0,0 C 97 % 1023,1 hPa 0,0 l/m 4,7 km/h (1 Bft) NO 55 0 min 0,000 mm 0,0 UV-I 0 W/m -0,4 C 0,0 C 8,0 km/h (2 Bft) 100,00 %
16.03.2016 01:14 0,0 C 97 % 1023,1 hPa 0,0 l/m 3,1 km/h (1 Bft) O-NO 63 0 min 0,000 mm 0,0 UV-I 0 W/m -0,4 C 0,0 C 4,8 km/h (1 Bft) 100,00 %
16.03.2016 01:15 0,0 C 97 % 1023,1 hPa 0,0 l/m 6,1 km/h (2 Bft) O-NO 67 0 min 0,000 mm 0,0 UV-I 0 W/m -0,4 C 0,0 C 8,0 km/h (2 Bft) 96,55 %
16.03.2016 01:16 0,1 C 97 % 1023,1 hPa 0,0 l/m 6,0 km/h (2 Bft) NO 45 0 min 0,000 mm 0,0 UV-I 0 W/m -0,3 C 0,1 C 9,7 km/h (2 Bft) 100,00 %
16.03.2016 01:17 0,0 C 97 % 1023,1 hPa 0,0 l/m 5,3 km/h (1 Bft) O-NO 67 0 min 0,000 mm 0,0 UV-I 0 W/m -0,4 C 0,0 C 8,0 km/h (2 Bft) 100,00 %
16.03.2016 01:18 0,1 C 97 % 1023,1 hPa 0,0 l/m 5,1 km/h (1 Bft) NO 46 0 min 0,000 mm 0,0 UV-I 0 W/m -0,3 C 0,1 C 6,4 km/h (2 Bft) 100,00 %
16.03.2016 01:19 0,1 C 97 % 1023,1 hPa 0,0 l/m 6,9 km/h (2 Bft) NO 56 0 min 0,000 mm 0,0 UV-I 0 W/m -0,3 C -0,4 C 11,3 km/h (2 Bft) 100,00 %
16.03.2016 01:20 0,1 C 97 % 1023,1 hPa 0,0 l/m 7,8 km/h (2 Bft) O-NO 65 0 min 0,000 mm 0,0 UV-I 0 W/m -0,3 C -1,3 C 9,7 km/h (2 Bft) 100,00 %
16.03.2016 01:21 0,0 C 97 % 1023,1 hPa 0,0 l/m 7,1 km/h (2 Bft) NO 55 0 min 0,000 mm 0,0 UV-I 0 W/m -0,4 C -0,7 C 9,7 km/h (2 Bft) 100,00 %
16.03.2016 01:22 0,0 C 97 % 1023,1 hPa 0,0 l/m 8,1 km/h (2 Bft) NO 52 0 min 0,000 mm 0,0 UV-I 0 W/m -0,4 C -1,7 C 9,7 km/h (2 Bft) 96,30 %
16.03.2016 01:23 0,0 C 97 % 1023,1 hPa 0,0 l/m 7,8 km/h (2 Bft) NO 51 0 min 0,000 mm 0,0 UV-I 0 W/m -0,4 C -1,4 C 9,7 km/h (2 Bft) 100,00 %
16.03.2016 01:24 0,0 C 97 % 1023,1 hPa 0,0 l/m 7,6 km/h (2 Bft) NO 49 0 min 0,000 mm 0,0 UV-I 0 W/m -0,4 C -1,2 C 9,7 km/h (2 Bft) 100,00 %
16.03.2016 01:25 0,0 C 97 % 1023,1 hPa 0,0 l/m 7,2 km/h (2 Bft) NO 44 0 min 0,000 mm 0,0 UV-I 0 W/m -0,4 C -0,8 C 9,7 km/h (2 Bft) 96,15 %
16.03.2016 01:26 0,0 C 97 % 1023,1 hPa 0,0 l/m 7,3 km/h (2 Bft) O-NO 57 0 min 0,000 mm 0,0 UV-I 0 W/m -0,4 C -0,9 C 9,7 km/h (2 Bft) 100,00 %
16.03.2016 01:27 0,0 C 97 % 1023,1 hPa 0,0 l/m 7,0 km/h (2 Bft) O-NO 59 0 min 0,000 mm 0,0 UV-I 0 W/m -0,4 C -0,6 C 9,7 km/h (2 Bft) 96,30 %
16.03.2016 01:28 0,0 C 97 % 1023,1 hPa 0,0 l/m 6,5 km/h (2 Bft) O-NO 62 0 min 0,000 mm 0,0 UV-I 0 W/m -0,4 C -0,1 C 11,3 km/h (2 Bft) 98,18 %
16.03.2016 01:29 0,0 C 97 % 1023,1 hPa 0,0 l/m 7,2 km/h (2 Bft) O-NO 77 0 min 0,000 mm 0,0 UV-I 0 W/m -0,4 C -0,8 C 11,3 km/h (2 Bft) 98,00 %
16.03.2016 01:30 0,0 C 97 % 1023,1 hPa 0,0 l/m 6,4 km/h (2 Bft) NO 49 0 min 0,000 mm 0,0 UV-I 0 W/m -0,4 C 0,0 C 8,0 km/h (2 Bft) 100,00 %
16.03.2016 01:31 0,0 C 97 % 1023,2 hPa 0,0 l/m 7,7 km/h (2 Bft) O-NO 59 0 min 0,000 mm 0,0 UV-I 0 W/m -0,4 C -1,3 C 12,9 km/h (3 Bft) 100,00 %
16.03.2016 01:32 0,0 C 97 % 1023,2 hPa 0,0 l/m 6,6 km/h (2 Bft) NO 51 0 min 0,000 mm 0,0 UV-I 0 W/m -0,4 C -0,2 C 9,7 km/h (2 Bft) 100,00 %
16.03.2016 01:33 0,0 C 97 % 1023,2 hPa 0,0 l/m 8,7 km/h (2 Bft) NO 53 0 min 0,000 mm 0,0 UV-I 0 W/m -0,4 C -2,3 C 12,9 km/h (3 Bft) 100,00 %
16.03.2016 01:34 0,0 C 97 % 1023,2 hPa 0,0 l/m 7,3 km/h (2 Bft) O-NO 64 0 min 0,000 mm 0,0 UV-I 0 W/m -0,4 C -0,9 C 11,3 km/h (2 Bft) 100,00 %
16.03.2016 01:35 0,0 C 97 % 1023,2 hPa 0,0 l/m 8,0 km/h (2 Bft) NO 46 0 min 0,000 mm 0,0 UV-I 0 W/m -0,4 C -1,6 C 12,9 km/h (3 Bft) 100,00 %
16.03.2016 01:36 0,0 C 97 % 1023,2 hPa 0,0 l/m 7,7 km/h (2 Bft) O-NO 71 0 min 0,000 mm 0,0 UV-I 0 W/m -0,4 C -1,3 C 9,7 km/h (2 Bft) 100,00 %
16.03.2016 01:37 0,0 C 97 % 1023,2 hPa 0,0 l/m 5,8 km/h (2 Bft) O-NO 69 0 min 0,000 mm 0,0 UV-I 0 W/m -0,4 C 0,0 C 8,0 km/h (2 Bft) 100,00 %
16.03.2016 01:38 0,0 C 97 % 1023,3 hPa 0,0 l/m 7,2 km/h (2 Bft) O-NO 66 0 min 0,000 mm 0,0 UV-I 0 W/m -0,4 C -0,8 C 9,7 km/h (2 Bft) 100,00 %
16.03.2016 01:39 0,0 C 97 % 1023,3 hPa 0,0 l/m 8,5 km/h (2 Bft) NO 45 0 min 0,000 mm 0,0 UV-I 0 W/m -0,4 C -2,1 C 12,9 km/h (3 Bft) 100,00 %
16.03.2016 01:40 0,0 C 97 % 1023,3 hPa 0,0 l/m 6,5 km/h (2 Bft) NO 53 0 min 0,000 mm 0,0 UV-I 0 W/m -0,4 C -0,1 C 9,7 km/h (2 Bft) 96,43 %
16.03.2016 01:41 0,0 C 97 % 1023,3 hPa 0,0 l/m 5,2 km/h (1 Bft) O-NO 65 0 min 0,000 mm 0,0 UV-I 0 W/m -0,4 C 0,0 C 8,0 km/h (2 Bft) 96,30 %
16.03.2016 01:42 0,0 C 97 % 1023,3 hPa 0,0 l/m 6,9 km/h (2 Bft) O-NO 69 0 min 0,000 mm 0,0 UV-I 0 W/m -0,4 C -0,5 C 8,0 km/h (2 Bft) 100,00 %
16.03.2016 01:43 0,0 C 97 % 1023,3 hPa 0,0 l/m 7,9 km/h (2 Bft) O 80 0 min 0,000 mm 0,0 UV-I 0 W/m -0,4 C -1,5 C 9,7 km/h (2 Bft) 100,00 %
16.03.2016 01:44 0,0 C 97 % 1023,2 hPa 0,0 l/m 6,9 km/h (2 Bft) O-NO 67 0 min 0,000 mm 0,0 UV-I 0 W/m -0,4 C -0,5 C 9,7 km/h (2 Bft) 100,00 %
16.03.2016 01:45 0,1 C 97 % 1023,2 hPa 0,0 l/m 8,2 km/h (2 Bft) O 85 0 min 0,000 mm 0,0 UV-I 0 W/m -0,3 C -1,7 C 11,3 km/h (2 Bft) 100,00 %
16.03.2016 01:46 0,0 C 97 % 1023,3 hPa 0,0 l/m 8,6 km/h (2 Bft) O-NO 68 0 min 0,000 mm 0,0 UV-I 0 W/m -0,4 C -2,2 C 12,9 km/h (3 Bft) 100,00 %
16.03.2016 01:47 0,1 C 97 % 1023,3 hPa 0,0 l/m 5,5 km/h (1 Bft) O 81 0 min 0,000 mm 0,0 UV-I 0 W/m -0,3 C 0,1 C 8,0 km/h (2 Bft) 96,55 %
16.03.2016 01:48 0,1 C 97 % 1023,3 hPa 0,0 l/m 6,6 km/h (2 Bft) O-NO 59 0 min 0,000 mm 0,0 UV-I 0 W/m -0,3 C -0,1 C 8,0 km/h (2 Bft) 100,00 %
16.03.2016 01:49 0,1 C 97 % 1023,3 hPa 0,0 l/m 6,4 km/h (2 Bft) O 79 0 min 0,000 mm 0,0 UV-I 0 W/m -0,3 C 0,1 C 8,0 km/h (2 Bft) 100,00 %
16.03.2016 01:50 0,1 C 97 % 1023,3 hPa 0,0 l/m 5,6 km/h (1 Bft) O 90 0 min 0,000 mm 0,0 UV-I 0 W/m -0,3 C 0,1 C 8,0 km/h (2 Bft) 100,00 %
16.03.2016 01:51 0,1 C 97 % 1023,3 hPa 0,0 l/m 6,0 km/h (2 Bft) O 84 0 min 0,000 mm 0,0 UV-I 0 W/m -0,3 C 0,1 C 9,7 km/h (2 Bft) 100,00 %
16.03.2016 01:52 0,1 C 97 % 1023,3 hPa 0,0 l/m 6,8 km/h (2 Bft) O-NO 67 0 min 0,000 mm 0,0 UV-I 0 W/m -0,3 C -0,3 C 9,7 km/h (2 Bft) 100,00 %
16.03.2016 01:53 0,1 C 97 % 1023,2 hPa 0,0 l/m 8,4 km/h (2 Bft) O-NO 67 0 min 0,000 mm 0,0 UV-I 0 W/m -0,3 C -1,9 C 11,3 km/h (2 Bft) 96,15 %
16.03.2016 01:54 0,1 C 97 % 1023,3 hPa 0,0 l/m 6,7 km/h (2 Bft) O-NO 57 0 min 0,000 mm 0,0 UV-I 0 W/m -0,3 C -0,2 C 8,0 km/h (2 Bft) 100,00 %
16.03.2016 01:55 0,1 C 97 % 1023,3 hPa 0,0 l/m 6,6 km/h (2 Bft) O-NO 62 0 min 0,000 mm 0,0 UV-I 0 W/m -0,3 C -0,1 C 9,7 km/h (2 Bft) 96,15 %
16.03.2016 01:56 0,1 C 97 % 1023,3 hPa 0,0 l/m 7,8 km/h (2 Bft) O-NO 67 0 min 0,000 mm 0,0 UV-I 0 W/m -0,3 C -1,3 C 9,7 km/h (2 Bft) 95,83 %
16.03.2016 01:57 0,1 C 97 % 1023,3 hPa 0,0 l/m 7,7 km/h (2 Bft) NO 54 0 min 0,000 mm 0,0 UV-I 0 W/m -0,3 C -1,2 C 12,9 km/h (3 Bft) 100,00 %
16.03.2016 01:58 0,1 C 97 % 1023,3 hPa 0,0 l/m 7,8 km/h (2 Bft) O-NO 63 0 min 0,000 mm 0,0 UV-I 0 W/m -0,3 C -1,3 C 9,7 km/h (2 Bft) 100,00 %
16.03.2016 01:59 0,1 C 97 % 1023,3 hPa 0,0 l/m 6,8 km/h (2 Bft) O-NO 71 0 min 0,000 mm 0,0 UV-I 0 W/m -0,3 C -0,3 C 9,7 km/h (2 Bft) 100,00 %
16.03.2016 02:00 0,1 C 97 % 1023,3 hPa 0,0 l/m 6,1 km/h (2 Bft) O-NO 76 0 min 0,000 mm 0,0 UV-I 0 W/m -0,3 C 0,1 C 8,0 km/h (2 Bft) 100,00 %
16.03.2016 02:02 0,1 C 96 % 1023,3 hPa 0,0 l/m 5,9 km/h (2 Bft) NO 41 0 min 0,000 mm 0,0 UV-I 0 W/m -0,5 C 0,1 C 9,7 km/h (2 Bft) 100,00 %
16.03.2016 02:03 0,1 C 96 % 1023,2 hPa 0,0 l/m 7,1 km/h (2 Bft) NO 54 0 min 0,000 mm 0,0 UV-I 0 W/m -0,5 C -0,6 C 9,7 km/h (2 Bft) 100,00 %
16.03.2016 02:04 0,1 C 96 % 1023,3 hPa 0,0 l/m 7,0 km/h (2 Bft) O-NO 66 0 min 0,000 mm 0,0 UV-I 0 W/m -0,5 C -0,5 C 11,3 km/h (2 Bft) 100,00 %
16.03.2016 02:05 0,1 C 96 % 1023,3 hPa 0,0 l/m 8,9 km/h (2 Bft) O-NO 67 0 min 0,000 mm 0,0 UV-I 0 W/m -0,5 C -2,4 C 11,3 km/h (2 Bft) 100,00 %
16.03.2016 02:06 0,1 C 96 % 1023,3 hPa 0,0 l/m 9,7 km/h (2 Bft) O-NO 59 0 min 0,000 mm 0,0 UV-I 0 W/m -0,5 C -3,1 C 12,9 km/h (3 Bft) 100,00 %
16.03.2016 02:07 0,1 C 96 % 1023,3 hPa 0,0 l/m 9,9 km/h (2 Bft) O-NO 71 0 min 0,000 mm 0,0 UV-I 0 W/m -0,5 C -3,3 C 12,9 km/h (3 Bft) 100,00 %
16.03.2016 02:08 0,1 C 96 % 1023,3 hPa 0,0 l/m 6,8 km/h (2 Bft) O-NO 68 0 min 0,000 mm 0,0 UV-I 0 W/m -0,5 C -0,3 C 9,7 km/h (2 Bft) 100,00 %
16.03.2016 02:09 0,1 C 96 % 1023,2 hPa 0,0 l/m 8,7 km/h (2 Bft) NO 53 0 min 0,000 mm 0,0 UV-I 0 W/m -0,5 C -2,2 C 12,9 km/h (3 Bft) 100,00 %
16.03.2016 02:10 0,1 C 96 % 1023,3 hPa 0,0 l/m 7,2 km/h (2 Bft) O-NO 74 0 min 0,000 mm 0,0 UV-I 0 W/m -0,5 C -0,7 C 9,7 km/h (2 Bft) 100,00 %
16.03.2016 02:11 0,1 C 96 % 1023,3 hPa 0,0 l/m 7,6 km/h (2 Bft) NO 52 0 min 0,000 mm 0,0 UV-I 0 W/m -0,5 C -1,1 C 9,7 km/h (2 Bft) 100,00 %
16.03.2016 02:12 0,1 C 96 % 1023,3 hPa 0,0 l/m 6,5 km/h (2 Bft) O-NO 59 0 min 0,000 mm 0,0 UV-I 0 W/m -0,5 C 0,0 C 8,0 km/h (2 Bft) 100,00 %
16.03.2016 02:13 0,1 C 96 % 1023,3 hPa 0,0 l/m 6,0 km/h (2 Bft) NO 47 0 min 0,000 mm 0,0 UV-I 0 W/m -0,5 C 0,1 C 8,0 km/h (2 Bft) 100,00 %
16.03.2016 02:14 0,1 C 96 % 1023,3 hPa 0,0 l/m 7,0 km/h (2 Bft) O-NO 57 0 min 0,000 mm 0,0 UV-I 0 W/m -0,5 C -0,5 C 8,0 km/h (2 Bft) 95,65 %
16.03.2016 02:15 0,1 C 96 % 1023,3 hPa 0,0 l/m 6,8 km/h (2 Bft) O-NO 59 0 min 0,000 mm 0,0 UV-I 0 W/m -0,5 C -0,3 C 8,0 km/h (2 Bft) 100,00 %
16.03.2016 02:16 0,1 C 96 % 1023,3 hPa 0,0 l/m 7,6 km/h (2 Bft) O-NO 61 0 min 0,000 mm 0,0 UV-I 0 W/m -0,5 C -1,1 C 12,9 km/h (3 Bft) 100,00 %
16.03.2016 02:17 0,1 C 96 % 1023,3 hPa 0,0 l/m 7,2 km/h (2 Bft) O-NO 63 0 min 0,000 mm 0,0 UV-I 0 W/m -0,5 C -0,7 C 9,7 km/h (2 Bft) 96,30 %
16.03.2016 02:18 0,1 C 96 % 1023,3 hPa 0,0 l/m 7,6 km/h (2 Bft) O-NO 67 0 min 0,000 mm 0,0 UV-I 0 W/m -0,5 C -1,1 C 9,7 km/h (2 Bft) 100,00 %
16.03.2016 02:19 0,1 C 96 % 1023,3 hPa 0,0 l/m 6,1 km/h (2 Bft) O-NO 57 0 min 0,000 mm 0,0 UV-I 0 W/m -0,5 C 0,1 C 8,0 km/h (2 Bft) 95,83 %
16.03.2016 02:20 0,1 C 96 % 1023,3 hPa 0,0 l/m 6,4 km/h (2 Bft) O-NO 73 0 min 0,000 mm 0,0 UV-I 0 W/m -0,5 C 0,1 C 8,0 km/h (2 Bft) 96,15 %
16.03.2016 02:21 0,1 C 96 % 1023,3 hPa 0,0 l/m 6,6 km/h (2 Bft) O-NO 69 0 min 0,000 mm 0,0 UV-I 0 W/m -0,5 C -0,1 C 8,0 km/h (2 Bft) 100,00 %
16.03.2016 02:22 0,1 C 96 % 1023,3 hPa 0,0 l/m 5,5 km/h (1 Bft) O-NO 73 0 min 0,000 mm 0,0 UV-I 0 W/m -0,5 C 0,1 C 8,0 km/h (2 Bft) 95,65 %
16.03.2016 02:23 0,1 C 96 % 1023,3 hPa 0,0 l/m 6,9 km/h (2 Bft) O-NO 61 0 min 0,000 mm 0,0 UV-I 0 W/m -0,5 C -0,4 C 11,3 km/h (2 Bft) 100,00 %
16.03.2016 02:24 0,1 C 96 % 1023,3 hPa 0,0 l/m 7,0 km/h (2 Bft) NO 52 0 min 0,000 mm 0,0 UV-I 0 W/m -0,5 C -0,5 C 8,0 km/h (2 Bft) 95,65 %
16.03.2016 02:25 0,1 C 96 % 1023,3 hPa 0,0 l/m 7,9 km/h (2 Bft) O-NO 65 0 min 0,000 mm 0,0 UV-I 0 W/m -0,5 C -1,4 C 12,9 km/h (3 Bft) 100,00 %
16.03.2016 02:26 0,1 C 96 % 1023,3 hPa 0,0 l/m 7,6 km/h (2 Bft) NO 40 0 min 0,000 mm 0,0 UV-I 0 W/m -0,5 C -1,1 C 11,3 km/h (2 Bft) 95,83 %
16.03.2016 02:27 0,1 C 96 % 1023,3 hPa 0,0 l/m 6,4 km/h (2 Bft) NO 52 0 min 0,000 mm 0,0 UV-I 0 W/m -0,5 C 0,1 C 9,7 km/h (2 Bft) 100,00 %
16.03.2016 02:28 0,1 C 96 % 1023,3 hPa 0,0 l/m 6,8 km/h (2 Bft) NO 48 0 min 0,000 mm 0,0 UV-I 0 W/m -0,5 C -0,3 C 9,7 km/h (2 Bft) 95,83 %
16.03.2016 02:29 0,1 C 96 % 1023,3 hPa 0,0 l/m 6,7 km/h (2 Bft) NO 54 0 min 0,000 mm 0,0 UV-I 0 W/m -0,5 C -0,2 C 8,0 km/h (2 Bft) 91,30 %
16.03.2016 02:30 0,1 C 96 % 1023,3 hPa 0,0 l/m 5,8 km/h (2 Bft) NO 53 0 min 0,000 mm 0,0 UV-I 0 W/m -0,5 C 0,1 C 9,7 km/h (2 Bft) 100,00 %
16.03.2016 02:31 0,1 C 96 % 1023,3 hPa 0,0 l/m 5,5 km/h (1 Bft) O-NO 62 0 min 0,000 mm 0,0 UV-I 0 W/m -0,5 C 0,1 C 6,4 km/h (2 Bft) 92,86 %
16.03.2016 02:32 0,1 C 96 % 1023,4 hPa 0,0 l/m 6,4 km/h (2 Bft) NO 56 0 min 0,000 mm 0,0 UV-I 0 W/m -0,5 C 0,1 C 8,0 km/h (2 Bft) 100,00 %
16.03.2016 02:33 0,1 C 96 % 1023,3 hPa 0,0 l/m 9,7 km/h (2 Bft) O 82 0 min 0,000 mm 0,0 UV-I 0 W/m -0,5 C -3,1 C 16,1 km/h (3 Bft) 92,31 %
16.03.2016 02:34 0,1 C 95 % 1023,3 hPa 0,0 l/m 5,1 km/h (1 Bft) O-NO 60 0 min 0,000 mm 0,0 UV-I 0 W/m -0,6 C 0,1 C 6,4 km/h (2 Bft) 100,00 %
16.03.2016 02:35 0,1 C 95 % 1023,3 hPa 0,0 l/m 7,1 km/h (2 Bft) NO 53 0 min 0,000 mm 0,0 UV-I 0 W/m -0,6 C -0,6 C 9,7 km/h (2 Bft) 92,86 %
16.03.2016 02:36 0,1 C 95 % 1023,3 hPa 0,0 l/m 6,4 km/h (2 Bft) NO 43 0 min 0,000 mm 0,0 UV-I 0 W/m -0,6 C 0,1 C 8,0 km/h (2 Bft) 100,00 %
16.03.2016 02:37 0,1 C 95 % 1023,4 hPa 0,0 l/m 6,8 km/h (2 Bft) O-NO 61 0 min 0,000 mm 0,0 UV-I 0 W/m -0,6 C -0,3 C 9,7 km/h (2 Bft) 96,15 %
16.03.2016 02:38 0,1 C 95 % 1023,4 hPa 0,0 l/m 4,9 km/h (1 Bft) NO 46 0 min 0,000 mm 0,0 UV-I 0 W/m -0,6 C 0,1 C 8,0 km/h (2 Bft) 95,83 %
16.03.2016 02:39 0,1 C 95 % 1023,3 hPa 0,0 l/m 4,0 km/h (1 Bft) O-NO 60 0 min 0,000 mm 0,0 UV-I 0 W/m -0,6 C 0,1 C 6,4 km/h (2 Bft) 100,00 %
16.03.2016 02:40 0,1 C 95 % 1023,3 hPa 0,0 l/m 5,8 km/h (2 Bft) O-NO 61 0 min 0,000 mm 0,0 UV-I 0 W/m -0,6 C 0,1 C 8,0 km/h (2 Bft) 95,83 %
16.03.2016 02:41 0,1 C 95 % 1023,3 hPa 0,0 l/m 5,7 km/h (1 Bft) NO 53 0 min 0,000 mm 0,0 UV-I 0 W/m -0,6 C 0,1 C 8,0 km/h (2 Bft) 95,65 %
16.03.2016 02:42 0,1 C 95 % 1023,4 hPa 0,0 l/m 5,5 km/h (1 Bft) NO 55 0 min 0,000 mm 0,0 UV-I 0 W/m -0,6 C 0,1 C 6,4 km/h (2 Bft) 95,83 %
16.03.2016 02:43 0,1 C 95 % 1023,4 hPa 0,0 l/m 4,7 km/h (1 Bft) NO 51 0 min 0,000 mm 0,0 UV-I 0 W/m -0,6 C 0,1 C 6,4 km/h (2 Bft) 95,65 %
16.03.2016 02:44 0,1 C 95 % 1023,4 hPa 0,0 l/m 6,4 km/h (2 Bft) NO 46 0 min 0,000 mm 0,0 UV-I 0 W/m -0,6 C 0,1 C 9,7 km/h (2 Bft) 91,67 %
16.03.2016 02:45 0,1 C 95 % 1023,4 hPa 0,0 l/m 6,0 km/h (2 Bft) O-NO 62 0 min 0,000 mm 0,0 UV-I 0 W/m -0,6 C 0,1 C 6,4 km/h (2 Bft) 100,00 %
16.03.2016 02:46 0,1 C 95 % 1023,4 hPa 0,0 l/m 4,6 km/h (1 Bft) NO 43 0 min 0,000 mm 0,0 UV-I 0 W/m -0,6 C 0,1 C 6,4 km/h (2 Bft) 95,65 %
16.03.2016 02:47 0,1 C 95 % 1023,4 hPa 0,0 l/m 4,4 km/h (1 Bft) NO 46 0 min 0,000 mm 0,0 UV-I 0 W/m -0,6 C 0,1 C 6,4 km/h (2 Bft) 96,88 %
16.03.2016 02:48 0,1 C 95 % 1023,4 hPa 0,0 l/m 5,4 km/h (1 Bft) O-NO 65 0 min 0,000 mm 0,0 UV-I 0 W/m -0,6 C 0,1 C 8,0 km/h (2 Bft) 100,00 %
16.03.2016 02:49 0,1 C 95 % 1023,4 hPa 0,0 l/m 5,7 km/h (1 Bft) O-NO 64 0 min 0,000 mm 0,0 UV-I 0 W/m -0,6 C 0,1 C 8,0 km/h (2 Bft) 96,30 %
16.03.2016 02:50 0,1 C 95 % 1023,4 hPa 0,0 l/m 5,4 km/h (1 Bft) O 79 0 min 0,000 mm 0,0 UV-I 0 W/m -0,6 C 0,1 C 11,3 km/h (2 Bft) 100,00 %
16.03.2016 02:51 0,1 C 95 % 1023,4 hPa 0,0 l/m 7,5 km/h (2 Bft) NO 55 0 min 0,000 mm 0,0 UV-I 0 W/m -0,6 C -1,0 C 11,3 km/h (2 Bft) 100,00 %
16.03.2016 02:52 0,1 C 95 % 1023,3 hPa 0,0 l/m 7,2 km/h (2 Bft) O-NO 76 0 min 0,000 mm 0,0 UV-I 0 W/m -0,6 C -0,7 C 9,7 km/h (2 Bft) 100,00 %
16.03.2016 02:53 0,1 C 95 % 1023,3 hPa 0,0 l/m 5,6 km/h (1 Bft) O-NO 61 0 min 0,000 mm 0,0 UV-I 0 W/m -0,6 C 0,1 C 11,3 km/h (2 Bft) 100,00 %
16.03.2016 02:54 0,1 C 95 % 1023,4 hPa 0,0 l/m 4,8 km/h (1 Bft) O-NO 57 0 min 0,000 mm 0,0 UV-I 0 W/m -0,6 C 0,1 C 6,4 km/h (2 Bft) 100,00 %
16.03.2016 02:55 0,1 C 95 % 1023,3 hPa 0,0 l/m 5,6 km/h (1 Bft) NO 56 0 min 0,000 mm 0,0 UV-I 0 W/m -0,6 C 0,1 C 6,4 km/h (2 Bft) 95,83 %
16.03.2016 02:56 0,1 C 95 % 1023,3 hPa 0,0 l/m 6,1 km/h (2 Bft) O-NO 76 0 min 0,000 mm 0,0 UV-I 0 W/m -0,6 C 0,1 C 8,0 km/h (2 Bft) 95,65 %
16.03.2016 02:57 0,1 C 95 % 1023,3 hPa 0,0 l/m 5,6 km/h (1 Bft) O-NO 69 0 min 0,000 mm 0,0 UV-I 0 W/m -0,6 C 0,1 C 8,0 km/h (2 Bft) 100,00 %
16.03.2016 02:58 0,1 C 95 % 1023,3 hPa 0,0 l/m 4,7 km/h (1 Bft) O-NO 63 0 min 0,000 mm 0,0 UV-I 0 W/m -0,6 C 0,1 C 6,4 km/h (2 Bft) 100,00 %
16.03.2016 02:59 0,1 C 95 % 1023,3 hPa 0,0 l/m 3,2 km/h (1 Bft) NO 38 0 min 0,000 mm 0,0 UV-I 0 W/m -0,6 C 0,1 C 4,8 km/h (1 Bft) 100,00 %
16.03.2016 03:00 0,1 C 95 % 1023,3 hPa 0,0 l/m 5,5 km/h (1 Bft) O-NO 62 0 min 0,000 mm 0,0 UV-I 0 W/m -0,6 C 0,1 C 6,4 km/h (2 Bft) 100,00 %
16.03.2016 03:01 0,1 C 95 % 1023,3 hPa 0,0 l/m 4,7 km/h (1 Bft) O-NO 65 0 min 0,000 mm 0,0 UV-I 0 W/m -0,6 C 0,1 C 6,4 km/h (2 Bft) 100,00 %
16.03.2016 03:02 0,1 C 95 % 1023,4 hPa 0,0 l/m 4,7 km/h (1 Bft) O-NO 77 0 min 0,000 mm 0,0 UV-I 0 W/m -0,6 C 0,1 C 6,4 km/h (2 Bft) 93,33 %
16.03.2016 03:03 0,1 C 95 % 1023,3 hPa 0,0 l/m 5,8 km/h (2 Bft) O-NO 64 0 min 0,000 mm 0,0 UV-I 0 W/m -0,6 C 0,1 C 8,0 km/h (2 Bft) 100,00 %
16.03.2016 03:04 0,1 C 95 % 1023,4 hPa 0,0 l/m 4,8 km/h (1 Bft) NO 50 0 min 0,000 mm 0,0 UV-I 0 W/m -0,6 C 0,1 C 6,4 km/h (2 Bft) 95,83 %
16.03.2016 03:05 0,1 C 95 % 1023,4 hPa 0,0 l/m 5,6 km/h (1 Bft) O-NO 58 0 min 0,000 mm 0,0 UV-I 0 W/m -0,6 C 0,1 C 8,0 km/h (2 Bft) 100,00 %
16.03.2016 03:06 0,1 C 95 % 1023,4 hPa 0,0 l/m 5,0 km/h (1 Bft) NO 44 0 min 0,000 mm 0,0 UV-I 0 W/m -0,6 C 0,1 C 8,0 km/h (2 Bft) 100,00 %
16.03.2016 03:07 0,1 C 94 % 1023,3 hPa 0,0 l/m 5,8 km/h (2 Bft) O-NO 65 0 min 0,000 mm 0,0 UV-I 0 W/m -0,7 C 0,1 C 8,0 km/h (2 Bft) 100,00 %
16.03.2016 03:08 0,1 C 94 % 1023,3 hPa 0,0 l/m 4,8 km/h (1 Bft) O-NO 64 0 min 0,000 mm 0,0 UV-I 0 W/m -0,7 C 0,1 C 6,4 km/h (2 Bft) 91,67 %
16.03.2016 03:09 0,1 C 94 % 1023,3 hPa 0,0 l/m 3,6 km/h (1 Bft) O-NO 64 0 min 0,000 mm 0,0 UV-I 0 W/m -0,7 C 0,1 C 4,8 km/h (1 Bft) 100,00 %
16.03.2016 03:10 0,1 C 94 % 1023,3 hPa 0,0 l/m 4,8 km/h (1 Bft) O-NO 66 0 min 0,000 mm 0,0 UV-I 0 W/m -0,7 C 0,1 C 6,4 km/h (2 Bft) 100,00 %
16.03.2016 03:11 0,1 C 94 % 1023,4 hPa 0,0 l/m 4,3 km/h (1 Bft) NO 56 0 min 0,000 mm 0,0 UV-I 0 W/m -0,7 C 0,1 C 6,4 km/h (2 Bft) 100,00 %
16.03.2016 03:12 0,1 C 94 % 1023,3 hPa 0,0 l/m 4,3 km/h (1 Bft) O-NO 61 0 min 0,000 mm 0,0 UV-I 0 W/m -0,7 C 0,1 C 6,4 km/h (2 Bft) 100,00 %
16.03.2016 03:13 0,1 C 94 % 1023,4 hPa 0,0 l/m 4,8 km/h (1 Bft) O-NO 62 0 min 0,000 mm 0,0 UV-I 0 W/m -0,7 C 0,1 C 6,4 km/h (2 Bft) 100,00 %
16.03.2016 03:14 0,1 C 94 % 1023,3 hPa 0,0 l/m 5,3 km/h (1 Bft) N-NO 33 0 min 0,000 mm 0,0 UV-I 0 W/m -0,7 C 0,1 C 6,4 km/h (2 Bft) 100,00 %
16.03.2016 03:15 0,1 C 94 % 1023,3 hPa 0,0 l/m 5,0 km/h (1 Bft) NO 49 0 min 0,000 mm 0,0 UV-I 0 W/m -0,7 C 0,1 C 8,0 km/h (2 Bft) 96,88 %
16.03.2016 03:16 0,1 C 94 % 1023,3 hPa 0,0 l/m 5,2 km/h (1 Bft) NO 44 0 min 0,000 mm 0,0 UV-I 0 W/m -0,7 C 0,1 C 6,4 km/h (2 Bft) 100,00 %
16.03.2016 03:17 0,1 C 94 % 1023,4 hPa 0,0 l/m 5,3 km/h (1 Bft) NO 43 0 min 0,000 mm 0,0 UV-I 0 W/m -0,7 C 0,1 C 6,4 km/h (2 Bft) 96,15 %
16.03.2016 03:18 0,1 C 94 % 1023,4 hPa 0,0 l/m 5,1 km/h (1 Bft) O-NO 58 0 min 0,000 mm 0,0 UV-I 0 W/m -0,7 C 0,1 C 6,4 km/h (2 Bft) 100,00 %
16.03.2016 03:19 0,1 C 94 % 1023,4 hPa 0,0 l/m 4,4 km/h (1 Bft) O-NO 63 0 min 0,000 mm 0,0 UV-I 0 W/m -0,7 C 0,1 C 6,4 km/h (2 Bft) 98,36 %
16.03.2016 03:20 0,1 C 94 % 1023,3 hPa 0,0 l/m 3,6 km/h (1 Bft) NO 46 0 min 0,000 mm 0,0 UV-I 0 W/m -0,7 C 0,1 C 4,8 km/h (1 Bft) 100,00 %
16.03.2016 03:21 0,1 C 94 % 1023,4 hPa 0,0 l/m 4,5 km/h (1 Bft) NO 35 0 min 0,000 mm 0,0 UV-I 0 W/m -0,7 C 0,1 C 6,4 km/h (2 Bft) 100,00 %
16.03.2016 03:22 0,1 C 94 % 1023,4 hPa 0,0 l/m 4,0 km/h (1 Bft) NO 45 0 min 0,000 mm 0,0 UV-I 0 W/m -0,7 C 0,1 C 6,4 km/h (2 Bft) 100,00 %
16.03.2016 03:23 0,1 C 94 % 1023,3 hPa 0,0 l/m 4,6 km/h (1 Bft) N-NO 33 0 min 0,000 mm 0,0 UV-I 0 W/m -0,7 C 0,1 C 8,0 km/h (2 Bft) 100,00 %
16.03.2016 03:24 0,1 C 94 % 1023,3 hPa 0,0 l/m 5,0 km/h (1 Bft) N-NO 26 0 min 0,000 mm 0,0 UV-I 0 W/m -0,7 C 0,1 C 6,4 km/h (2 Bft) 100,00 %
16.03.2016 03:25 0,1 C 95 % 1023,4 hPa 0,0 l/m 5,7 km/h (1 Bft) O-NO 64 0 min 0,000 mm 0,0 UV-I 0 W/m -0,6 C 0,1 C 8,0 km/h (2 Bft) 100,00 %
16.03.2016 03:26 0,1 C 94 % 1023,4 hPa 0,0 l/m 4,5 km/h (1 Bft) O-NO 74 0 min 0,000 mm 0,0 UV-I 0 W/m -0,7 C 0,1 C 6,4 km/h (2 Bft) 100,00 %
16.03.2016 03:27 0,0 C 94 % 1023,3 hPa 0,0 l/m 4,0 km/h (1 Bft) NO 49 0 min 0,000 mm 0,0 UV-I 0 W/m -0,8 C 0,0 C 6,4 km/h (2 Bft) 100,00 %
16.03.2016 03:28 0,0 C 94 % 1023,3 hPa 0,0 l/m 6,0 km/h (2 Bft) NO 37 0 min 0,000 mm 0,0 UV-I 0 W/m -0,8 C 0,0 C 8,0 km/h (2 Bft) 100,00 %
16.03.2016 03:29 0,0 C 94 % 1023,3 hPa 0,0 l/m 6,7 km/h (2 Bft) NO 50 0 min 0,000 mm 0,0 UV-I 0 W/m -0,8 C -0,3 C 8,0 km/h (2 Bft) 100,00 %
16.03.2016 03:30 0,0 C 94 % 1023,3 hPa 0,0 l/m 5,1 km/h (1 Bft) NO 49 0 min 0,000 mm 0,0 UV-I 0 W/m -0,8 C 0,0 C 6,4 km/h (2 Bft) 100,00 %
16.03.2016 03:31 0,0 C 94 % 1023,3 hPa 0,0 l/m 4,6 km/h (1 Bft) NO 55 0 min 0,000 mm 0,0 UV-I 0 W/m -0,8 C 0,0 C 6,4 km/h (2 Bft) 100,00 %
16.03.2016 03:32 -0,1 C 94 % 1023,3 hPa 0,0 l/m 5,1 km/h (1 Bft) NO 39 0 min 0,000 mm 0,0 UV-I 0 W/m -0,9 C -0,1 C 6,4 km/h (2 Bft) 100,00 %
16.03.2016 03:33 -0,1 C 95 % 1023,3 hPa 0,0 l/m 6,2 km/h (2 Bft) O-NO 62 0 min 0,000 mm 0,0 UV-I 0 W/m -0,8 C -0,1 C 8,0 km/h (2 Bft) 100,00 %
16.03.2016 03:34 -0,1 C 95 % 1023,3 hPa 0,0 l/m 4,9 km/h (1 Bft) NO 40 0 min 0,000 mm 0,0 UV-I 0 W/m -0,8 C -0,1 C 6,4 km/h (2 Bft) 100,00 %
16.03.2016 03:35 -0,1 C 95 % 1023,3 hPa 0,0 l/m 4,8 km/h (1 Bft) O-NO 61 0 min 0,000 mm 0,0 UV-I 0 W/m -0,8 C -0,1 C 6,4 km/h (2 Bft) 100,00 %
16.03.2016 03:36 -0,1 C 95 % 1023,3 hPa 0,0 l/m 6,6 km/h (2 Bft) O-NO 59 0 min 0,000 mm 0,0 UV-I 0 W/m -0,8 C -0,3 C 8,0 km/h (2 Bft) 100,00 %
16.03.2016 03:37 -0,1 C 95 % 1023,3 hPa 0,0 l/m 5,3 km/h (1 Bft) O-NO 66 0 min 0,000 mm 0,0 UV-I 0 W/m -0,8 C -0,1 C 6,4 km/h (2 Bft) 100,00 %
16.03.2016 03:38 -0,1 C 95 % 1023,3 hPa 0,0 l/m 4,8 km/h (1 Bft) O-NO 73 0 min 0,000 mm 0,0 UV-I 0 W/m -0,8 C -0,1 C 6,4 km/h (2 Bft) 95,65 %
16.03.2016 03:39 -0,1 C 94 % 1023,3 hPa 0,0 l/m 5,8 km/h (2 Bft) NO 49 0 min 0,000 mm 0,0 UV-I 0 W/m -0,9 C -0,1 C 8,0 km/h (2 Bft) 100,00 %
16.03.2016 03:40 -0,1 C 94 % 1023,3 hPa 0,0 l/m 7,6 km/h (2 Bft) O 86 0 min 0,000 mm 0,0 UV-I 0 W/m -0,9 C -1,4 C 11,3 km/h (2 Bft) 100,00 %
16.03.2016 03:41 -0,1 C 94 % 1023,3 hPa 0,0 l/m 5,4 km/h (1 Bft) O-NO 64 0 min 0,000 mm 0,0 UV-I 0 W/m -0,9 C -0,1 C 6,4 km/h (2 Bft) 100,00 %
16.03.2016 03:42 -0,1 C 94 % 1023,4 hPa 0,0 l/m 6,1 km/h (2 Bft) NO 55 0 min 0,000 mm 0,0 UV-I 0 W/m -0,9 C -0,1 C 8,0 km/h (2 Bft) 100,00 %
16.03.2016 03:43 -0,1 C 94 % 1023,4 hPa 0,0 l/m 7,3 km/h (2 Bft) O-NO 65 0 min 0,000 mm 0,0 UV-I 0 W/m -0,9 C -1,0 C 11,3 km/h (2 Bft) 100,00 %
16.03.2016 03:44 -0,1 C 94 % 1023,4 hPa 0,0 l/m 6,8 km/h (2 Bft) O-NO 67 0 min 0,000 mm 0,0 UV-I 0 W/m -0,9 C -0,5 C 9,7 km/h (2 Bft) 100,00 %
16.03.2016 03:45 -0,2 C 94 % 1023,4 hPa 0,0 l/m 6,5 km/h (2 Bft) O-NO 65 0 min 0,000 mm 0,0 UV-I 0 W/m -1,0 C -0,3 C 11,3 km/h (2 Bft) 100,00 %
16.03.2016 03:46 -0,2 C 94 % 1023,4 hPa 0,0 l/m 6,7 km/h (2 Bft) O-NO 77 0 min 0,000 mm 0,0 UV-I 0 W/m -1,0 C -0,5 C 9,7 km/h (2 Bft) 100,00 %
16.03.2016 03:47 -0,2 C 94 % 1023,4 hPa 0,0 l/m 7,0 km/h (2 Bft) O-NO 76 0 min 0,000 mm 0,0 UV-I 0 W/m -1,0 C -0,8 C 9,7 km/h (2 Bft) 100,00 %
16.03.2016 03:48 -0,2 C 94 % 1023,4 hPa 0,0 l/m 7,0 km/h (2 Bft) O-NO 58 0 min 0,000 mm 0,0 UV-I 0 W/m -1,0 C -0,8 C 11,3 km/h (2 Bft) 100,00 %
16.03.2016 03:49 -0,2 C 94 % 1023,4 hPa 0,0 l/m 5,5 km/h (1 Bft) NO 48 0 min 0,000 mm 0,0 UV-I 0 W/m -1,0 C -0,2 C 8,0 km/h (2 Bft) 100,00 %
16.03.2016 03:50 -0,2 C 94 % 1023,4 hPa 0,0 l/m 5,8 km/h (2 Bft) O-NO 65 0 min 0,000 mm 0,0 UV-I 0 W/m -1,0 C -0,2 C 8,0 km/h (2 Bft) 100,00 %
16.03.2016 03:51 -0,3 C 94 % 1023,4 hPa 0,0 l/m 5,6 km/h (1 Bft) O-NO 74 0 min 0,000 mm 0,0 UV-I 0 W/m -1,1 C -0,3 C 8,0 km/h (2 Bft) 100,00 %
16.03.2016 03:52 -0,3 C 94 % 1023,4 hPa 0,0 l/m 5,2 km/h (1 Bft) O-NO 67 0 min 0,000 mm 0,0 UV-I 0 W/m -1,1 C -0,3 C 6,4 km/h (2 Bft) 100,00 %
16.03.2016 03:53 -0,3 C 94 % 1023,4 hPa 0,0 l/m 4,7 km/h (1 Bft) O-NO 70 0 min 0,000 mm 0,0 UV-I 0 W/m -1,1 C -0,3 C 6,4 km/h (2 Bft) 100,00 %
16.03.2016 03:54 -0,3 C 94 % 1023,4 hPa 0,0 l/m 4,6 km/h (1 Bft) O-NO 73 0 min 0,000 mm 0,0 UV-I 0 W/m -1,1 C -0,3 C 6,4 km/h (2 Bft) 100,00 %
16.03.2016 03:55 -0,3 C 94 % 1023,5 hPa 0,0 l/m 6,2 km/h (2 Bft) O 79 0 min 0,000 mm 0,0 UV-I 0 W/m -1,1 C -0,3 C 8,0 km/h (2 Bft) 100,00 %
16.03.2016 03:56 -0,4 C 94 % 1023,4 hPa 0,0 l/m 5,5 km/h (1 Bft) O-NO 71 0 min 0,000 mm 0,0 UV-I 0 W/m -1,2 C -0,4 C 6,4 km/h (2 Bft) 100,00 %
16.03.2016 03:57 -0,4 C 94 % 1023,5 hPa 0,0 l/m 5,6 km/h (1 Bft) O-NO 70 0 min 0,000 mm 0,0 UV-I 0 W/m -1,2 C -0,4 C 6,4 km/h (2 Bft) 100,00 %
16.03.2016 03:58 -0,4 C 94 % 1023,5 hPa 0,0 l/m 5,0 km/h (1 Bft) O-NO 70 0 min 0,000 mm 0,0 UV-I 0 W/m -1,2 C -0,4 C 6,4 km/h (2 Bft) 100,00 %
16.03.2016 03:59 -0,4 C 94 % 1023,5 hPa 0,0 l/m 5,7 km/h (1 Bft) O 80 0 min 0,000 mm 0,0 UV-I 0 W/m -1,2 C -0,4 C 6,4 km/h (2 Bft) 100,00 %
16.03.2016 04:00 -0,4 C 95 % 1023,5 hPa 0,0 l/m 3,9 km/h (1 Bft) O-NO 68 0 min 0,000 mm 0,0 UV-I 0 W/m -1,1 C -0,4 C 4,8 km/h (1 Bft) 100,00 %
16.03.2016 04:01 -0,4 C 94 % 1023,5 hPa 0,0 l/m 5,4 km/h (1 Bft) O 83 0 min 0,000 mm 0,0 UV-I 0 W/m -1,2 C -0,4 C 6,4 km/h (2 Bft) 100,00 %
16.03.2016 04:02 -0,4 C 95 % 1023,5 hPa 0,0 l/m 5,1 km/h (1 Bft) O-NO 62 0 min 0,000 mm 0,0 UV-I 0 W/m -1,1 C -0,4 C 6,4 km/h (2 Bft) 96,55 %
16.03.2016 04:03 -0,4 C 95 % 1023,5 hPa 0,0 l/m 5,4 km/h (1 Bft) O 82 0 min 0,000 mm 0,0 UV-I 0 W/m -1,1 C -0,4 C 8,0 km/h (2 Bft) 100,00 %
16.03.2016 04:04 -0,4 C 95 % 1023,5 hPa 0,0 l/m 4,7 km/h (1 Bft) O-NO 77 0 min 0,000 mm 0,0 UV-I 0 W/m -1,1 C -0,4 C 6,4 km/h (2 Bft) 100,00 %
16.03.2016 04:05 -0,4 C 95 % 1023,5 hPa 0,0 l/m 6,1 km/h (2 Bft) O-NO 72 0 min 0,000 mm 0,0 UV-I 0 W/m -1,1 C -0,4 C 6,4 km/h (2 Bft) 93,33 %
16.03.2016 04:06 -0,4 C 95 % 1023,5 hPa 0,0 l/m 6,0 km/h (2 Bft) O 86 0 min 0,000 mm 0,0 UV-I 0 W/m -1,1 C -0,4 C 6,4 km/h (2 Bft) 100,00 %
16.03.2016 04:07 -0,3 C 95 % 1023,5 hPa 0,0 l/m 6,5 km/h (2 Bft) O-NO 71 0 min 0,000 mm 0,0 UV-I 0 W/m -1,0 C -0,4 C 8,0 km/h (2 Bft) 100,00 %
16.03.2016 04:08 -0,3 C 95 % 1023,5 hPa 0,0 l/m 5,3 km/h (1 Bft) O-NO 76 0 min 0,000 mm 0,0 UV-I 0 W/m -1,0 C -0,3 C 8,0 km/h (2 Bft) 100,00 %
16.03.2016 04:09 -0,3 C 95 % 1023,5 hPa 0,0 l/m 5,5 km/h (1 Bft) O 88 0 min 0,000 mm 0,0 UV-I 0 W/m -1,0 C -0,3 C 8,0 km/h (2 Bft) 100,00 %
16.03.2016 04:10 -0,3 C 95 % 1023,5 hPa 0,0 l/m 6,8 km/h (2 Bft) O 87 0 min 0,000 mm 0,0 UV-I 0 W/m -1,0 C -0,7 C 8,0 km/h (2 Bft) 96,15 %
16.03.2016 04:11 -0,3 C 95 % 1023,6 hPa 0,0 l/m 5,3 km/h (1 Bft) O 100 0 min 0,000 mm 0,0 UV-I 0 W/m -1,0 C -0,3 C 6,4 km/h (2 Bft) 100,00 %
16.03.2016 04:12 -0,3 C 95 % 1023,5 hPa 0,0 l/m 5,0 km/h (1 Bft) O 101 0 min 0,000 mm 0,0 UV-I 0 W/m -1,0 C -0,3 C 6,4 km/h (2 Bft) 100,00 %
16.03.2016 04:13 -0,2 C 95 % 1023,5 hPa 0,0 l/m 3,4 km/h (1 Bft) O-NO 74 0 min 0,000 mm 0,0 UV-I 0 W/m -0,9 C -0,2 C 4,8 km/h (1 Bft) 100,00 %
16.03.2016 04:14 -0,2 C 95 % 1023,5 hPa 0,0 l/m 6,0 km/h (2 Bft) O 87 0 min 0,000 mm 0,0 UV-I 0 W/m -0,9 C -0,2 C 8,0 km/h (2 Bft) 96,15 %
16.03.2016 04:15 -0,2 C 95 % 1023,6 hPa 0,0 l/m 7,5 km/h (2 Bft) O-NO 73 0 min 0,000 mm 0,0 UV-I 0 W/m -0,9 C -1,4 C 8,0 km/h (2 Bft) 100,00 %
16.03.2016 04:16 -0,2 C 95 % 1023,6 hPa 0,0 l/m 5,4 km/h (1 Bft) O-NO 74 0 min 0,000 mm 0,0 UV-I 0 W/m -0,9 C -0,2 C 8,0 km/h (2 Bft) 100,00 %
16.03.2016 04:17 -0,2 C 95 % 1023,6 hPa 0,0 l/m 5,9 km/h (2 Bft) O-NO 69 0 min 0,000 mm 0,0 UV-I 0 W/m -0,9 C -0,2 C 8,0 km/h (2 Bft) 100,00 %
16.03.2016 04:18 -0,2 C 95 % 1023,6 hPa 0,0 l/m 6,9 km/h (2 Bft) O-NO 74 0 min 0,000 mm 0,0 UV-I 0 W/m -0,9 C -0,7 C 8,0 km/h (2 Bft) 100,00 %
16.03.2016 04:19 -0,2 C 95 % 1023,6 hPa 0,0 l/m 5,9 km/h (2 Bft) O 79 0 min 0,000 mm 0,0 UV-I 0 W/m -0,9 C -0,2 C 8,0 km/h (2 Bft) 100,00 %
16.03.2016 04:20 -0,2 C 95 % 1023,6 hPa 0,0 l/m 6,8 km/h (2 Bft) O-NO 74 0 min 0,000 mm 0,0 UV-I 0 W/m -0,9 C -0,6 C 8,0 km/h (2 Bft) 96,55 %
16.03.2016 04:21 -0,2 C 95 % 1023,6 hPa 0,0 l/m 5,3 km/h (1 Bft) O-NO 65 0 min 0,000 mm 0,0 UV-I 0 W/m -0,9 C -0,2 C 9,7 km/h (2 Bft) 100,00 %
16.03.2016 04:22 -0,2 C 95 % 1023,6 hPa 0,0 l/m 7,5 km/h (2 Bft) O-NO 71 0 min 0,000 mm 0,0 UV-I 0 W/m -0,9 C -1,4 C 11,3 km/h (2 Bft) 95,65 %
16.03.2016 04:23 -0,1 C 95 % 1023,6 hPa 0,0 l/m 5,8 km/h (2 Bft) O 79 0 min 0,000 mm 0,0 UV-I 0 W/m -0,8 C -0,1 C 8,0 km/h (2 Bft) 100,00 %
16.03.2016 04:24 -0,1 C 95 % 1023,6 hPa 0,0 l/m 5,1 km/h (1 Bft) O-NO 72 0 min 0,000 mm 0,0 UV-I 0 W/m -0,8 C -0,1 C 8,0 km/h (2 Bft) 96,30 %
16.03.2016 04:25 -0,1 C 95 % 1023,5 hPa 0,0 l/m 6,0 km/h (2 Bft) NO 55 0 min 0,000 mm 0,0 UV-I 0 W/m -0,8 C -0,1 C 9,7 km/h (2 Bft) 100,00 %
16.03.2016 04:26 -0,1 C 95 % 1023,6 hPa 0,0 l/m 4,4 km/h (1 Bft) O 79 0 min 0,000 mm 0,0 UV-I 0 W/m -0,8 C -0,1 C 6,4 km/h (2 Bft) 96,15 %
16.03.2016 04:27 -0,1 C 95 % 1023,6 hPa 0,0 l/m 6,9 km/h (2 Bft) O-NO 76 0 min 0,000 mm 0,0 UV-I 0 W/m -0,8 C -0,6 C 11,3 km/h (2 Bft) 98,66 %
16.03.2016 04:28 -0,1 C 95 % 1023,5 hPa 0,0 l/m 4,7 km/h (1 Bft) O-NO 71 0 min 0,000 mm 0,0 UV-I 0 W/m -0,8 C -0,1 C 6,4 km/h (2 Bft) 97,44 %
16.03.2016 04:29 -0,1 C 95 % 1023,6 hPa 0,0 l/m 7,1 km/h (2 Bft) O-NO 63 0 min 0,000 mm 0,0 UV-I 0 W/m -0,8 C -0,8 C 11,3 km/h (2 Bft) 96,15 %
16.03.2016 04:30 -0,1 C 95 % 1023,5 hPa 0,0 l/m 6,0 km/h (2 Bft) O-NO 74 0 min 0,000 mm 0,0 UV-I 0 W/m -0,8 C -0,1 C 8,0 km/h (2 Bft) 96,30 %
16.03.2016 04:31 -0,1 C 95 % 1023,6 hPa 0,0 l/m 6,5 km/h (2 Bft) O-NO 68 0 min 0,000 mm 0,0 UV-I 0 W/m -0,8 C -0,2 C 9,7 km/h (2 Bft) 96,15 %
16.03.2016 04:32 -0,1 C 95 % 1023,6 hPa 0,0 l/m 5,5 km/h (1 Bft) O 89 0 min 0,000 mm 0,0 UV-I 0 W/m -0,8 C -0,1 C 6,4 km/h (2 Bft) 100,00 %
16.03.2016 04:33 -0,1 C 95 % 1023,6 hPa 0,0 l/m 5,9 km/h (2 Bft) O 89 0 min 0,000 mm 0,0 UV-I 0 W/m -0,8 C -0,1 C 8,0 km/h (2 Bft) 96,55 %
16.03.2016 04:34 -0,1 C 95 % 1023,5 hPa 0,0 l/m 4,4 km/h (1 Bft) NO 53 0 min 0,000 mm 0,0 UV-I 0 W/m -0,8 C -0,1 C 6,4 km/h (2 Bft) 100,00 %
16.03.2016 04:35 -0,1 C 95 % 1023,6 hPa 0,0 l/m 5,2 km/h (1 Bft) O-NO 77 0 min 0,000 mm 0,0 UV-I 0 W/m -0,8 C -0,1 C 6,4 km/h (2 Bft) 95,65 %
16.03.2016 04:36 -0,1 C 95 % 1023,6 hPa 0,0 l/m 5,0 km/h (1 Bft) O-NO 69 0 min 0,000 mm 0,0 UV-I 0 W/m -0,8 C -0,1 C 9,7 km/h (2 Bft) 92,59 %
16.03.2016 04:37 -0,1 C 95 % 1023,6 hPa 0,0 l/m 5,7 km/h (1 Bft) O-NO 68 0 min 0,000 mm 0,0 UV-I 0 W/m -0,8 C -0,1 C 8,0 km/h (2 Bft) 100,00 %
16.03.2016 04:38 -0,1 C 95 % 1023,6 hPa 0,0 l/m 6,3 km/h (2 Bft) O 82 0 min 0,000 mm 0,0 UV-I 0 W/m -0,8 C -0,1 C 8,0 km/h (2 Bft) 100,00 %
16.03.2016 04:39 -0,1 C 95 % 1023,6 hPa 0,0 l/m 6,9 km/h (2 Bft) O 86 0 min 0,000 mm 0,0 UV-I 0 W/m -0,8 C -0,6 C 8,0 km/h (2 Bft) 96,15 %
16.03.2016 04:40 -0,1 C 95 % 1023,6 hPa 0,0 l/m 5,2 km/h (1 Bft) O-NO 70 0 min 0,000 mm 0,0 UV-I 0 W/m -0,8 C -0,1 C 6,4 km/h (2 Bft) 100,00 %
16.03.2016 04:41 -0,1 C 95 % 1023,6 hPa 0,0 l/m 6,1 km/h (2 Bft) O-NO 74 0 min 0,000 mm 0,0 UV-I 0 W/m -0,8 C -0,1 C 8,0 km/h (2 Bft) 96,15 %
16.03.2016 04:42 -0,1 C 95 % 1023,6 hPa 0,0 l/m 5,1 km/h (1 Bft) O 82 0 min 0,000 mm 0,0 UV-I 0 W/m -0,8 C -0,1 C 8,0 km/h (2 Bft) 88,89 %
16.03.2016 04:43 -0,1 C 95 % 1023,6 hPa 0,0 l/m 0,8 km/h (0 Bft) O 82 0 min 0,000 mm 0,0 UV-I 0 W/m -0,8 C -0,1 C 3,2 km/h (1 Bft) 100,00 %
16.03.2016 04:44 -0,1 C 95 % 1023,6 hPa 0,0 l/m 2,5 km/h (1 Bft) O 82 0 min 0,000 mm 0,0 UV-I 0 W/m -0,8 C -0,1 C 3,2 km/h (1 Bft) 92,31 %
16.03.2016 04:45 -0,1 C 95 % 1023,6 hPa 0,0 l/m 2,2 km/h (1 Bft) O 82 0 min 0,000 mm 0,0 UV-I 0 W/m -0,8 C -0,1 C 3,2 km/h (1 Bft) 100,00 %
16.03.2016 04:46 -0,1 C 95 % 1023,7 hPa 0,0 l/m 2,2 km/h (1 Bft) O 82 0 min 0,000 mm 0,0 UV-I 0 W/m -0,8 C -0,1 C 3,2 km/h (1 Bft) 96,15 %
16.03.2016 04:47 -0,1 C 95 % 1023,7 hPa 0,0 l/m 3,7 km/h (1 Bft) O-NO 70 0 min 0,000 mm 0,0 UV-I 0 W/m -0,8 C -0,1 C 8,0 km/h (2 Bft) 100,00 %
16.03.2016 04:48 -0,1 C 95 % 1023,7 hPa 0,0 l/m 6,0 km/h (2 Bft) O-NO 59 0 min 0,000 mm 0,0 UV-I 0 W/m -0,8 C -0,1 C 8,0 km/h (2 Bft) 96,15 %
16.03.2016 04:49 -0,1 C 95 % 1023,7 hPa 0,0 l/m 6,2 km/h (2 Bft) O-NO 73 0 min 0,000 mm 0,0 UV-I 0 W/m -0,8 C -0,1 C 8,0 km/h (2 Bft) 96,30 %
16.03.2016 04:50 -0,1 C 95 % 1023,7 hPa 0,0 l/m 6,5 km/h (2 Bft) O 83 0 min 0,000 mm 0,0 UV-I 0 W/m -0,8 C -0,2 C 8,0 km/h (2 Bft) 100,00 %
16.03.2016 04:51 -0,1 C 95 % 1023,8 hPa 0,0 l/m 6,6 km/h (2 Bft) O-NO 67 0 min 0,000 mm 0,0 UV-I 0 W/m -0,8 C -0,3 C 8,0 km/h (2 Bft) 95,83 %
16.03.2016 04:52 -0,1 C 95 % 1023,8 hPa 0,0 l/m 6,6 km/h (2 Bft) O 80 0 min 0,000 mm 0,0 UV-I 0 W/m -0,8 C -0,3 C 11,3 km/h (2 Bft) 100,00 %
16.03.2016 04:53 -0,1 C 95 % 1023,8 hPa 0,0 l/m 6,5 km/h (2 Bft) O 79 0 min 0,000 mm 0,0 UV-I 0 W/m -0,8 C -0,2 C 8,0 km/h (2 Bft) 96,30 %
16.03.2016 04:54 -0,1 C 95 % 1023,8 hPa 0,0 l/m 5,5 km/h (1 Bft) O-NO 72 0 min 0,000 mm 0,0 UV-I 0 W/m -0,8 C -0,1 C 8,0 km/h (2 Bft) 100,00 %
16.03.2016 04:55 -0,1 C 95 % 1023,8 hPa 0,0 l/m 4,9 km/h (1 Bft) NO 51 0 min 0,000 mm 0,0 UV-I 0 W/m -0,8 C -0,1 C 8,0 km/h (2 Bft) 100,00 %
16.03.2016 04:56 -0,1 C 95 % 1023,8 hPa 0,0 l/m 6,0 km/h (2 Bft) O 79 0 min 0,000 mm 0,0 UV-I 0 W/m -0,8 C -0,1 C 8,0 km/h (2 Bft) 100,00 %
16.03.2016 04:57 -0,1 C 95 % 1023,8 hPa 0,0 l/m 6,2 km/h (2 Bft) NO 53 0 min 0,000 mm 0,0 UV-I 0 W/m -0,8 C -0,1 C 8,0 km/h (2 Bft) 100,00 %
16.03.2016 04:58 -0,1 C 95 % 1023,8 hPa 0,0 l/m 5,4 km/h (1 Bft) NO 53 0 min 0,000 mm 0,0 UV-I 0 W/m -0,8 C -0,1 C 8,0 km/h (2 Bft) 100,00 %
16.03.2016 04:59 -0,1 C 95 % 1023,8 hPa 0,0 l/m 5,3 km/h (1 Bft) O-NO 71 0 min 0,000 mm 0,0 UV-I 0 W/m -0,8 C -0,1 C 6,4 km/h (2 Bft) 100,00 %
16.03.2016 05:00 -0,1 C 95 % 1023,8 hPa 0,0 l/m 5,2 km/h (1 Bft) NO 56 0 min 0,000 mm 0,0 UV-I 0 W/m -0,8 C -0,1 C 6,4 km/h (2 Bft) 94,12 %
16.03.2016 05:01 -0,1 C 95 % 1023,8 hPa 0,0 l/m 5,9 km/h (2 Bft) O-NO 71 0 min 0,000 mm 0,0 UV-I 0 W/m -0,8 C -0,1 C 9,7 km/h (2 Bft) 100,00 %
16.03.2016 05:02 -0,1 C 95 % 1023,8 hPa 0,0 l/m 6,8 km/h (2 Bft) O-NO 73 0 min 0,000 mm 0,0 UV-I 0 W/m -0,8 C -0,5 C 12,9 km/h (3 Bft) 100,00 %
16.03.2016 05:03 -0,1 C 95 % 1023,8 hPa 0,0 l/m 6,3 km/h (2 Bft) O-NO 58 0 min 0,000 mm 0,0 UV-I 0 W/m -0,8 C -0,1 C 8,0 km/h (2 Bft) 100,00 %
16.03.2016 05:04 -0,1 C 95 % 1023,8 hPa 0,0 l/m 5,2 km/h (1 Bft) O-NO 61 0 min 0,000 mm 0,0 UV-I 0 W/m -0,8 C -0,1 C 8,0 km/h (2 Bft) 100,00 %
16.03.2016 05:05 -0,1 C 95 % 1023,8 hPa 0,0 l/m 5,8 km/h (2 Bft) O-NO 67 0 min 0,000 mm 0,0 UV-I 0 W/m -0,8 C -0,1 C 8,0 km/h (2 Bft) 100,00 %
16.03.2016 05:06 -0,1 C 95 % 1023,8 hPa 0,0 l/m 6,6 km/h (2 Bft) O-NO 65 0 min 0,000 mm 0,0 UV-I 0 W/m -0,8 C -0,3 C 9,7 km/h (2 Bft) 100,00 %
16.03.2016 05:07 -0,1 C 95 % 1023,8 hPa 0,0 l/m 6,2 km/h (2 Bft) O-NO 64 0 min 0,000 mm 0,0 UV-I 0 W/m -0,8 C -0,1 C 9,7 km/h (2 Bft) 100,00 %
16.03.2016 05:08 -0,1 C 95 % 1023,8 hPa 0,0 l/m 6,8 km/h (2 Bft) O-NO 78 0 min 0,000 mm 0,0 UV-I 0 W/m -0,8 C -0,5 C 9,7 km/h (2 Bft) 96,30 %
16.03.2016 05:09 -0,1 C 95 % 1023,8 hPa 0,0 l/m 6,5 km/h (2 Bft) NO 45 0 min 0,000 mm 0,0 UV-I 0 W/m -0,8 C -0,2 C 8,0 km/h (2 Bft) 100,00 %
16.03.2016 05:10 -0,1 C 95 % 1023,8 hPa 0,0 l/m 6,0 km/h (2 Bft) O-NO 60 0 min 0,000 mm 0,0 UV-I 0 W/m -0,8 C -0,1 C 8,0 km/h (2 Bft) 100,00 %
16.03.2016 05:11 -0,1 C 95 % 1023,8 hPa 0,0 l/m 5,8 km/h (2 Bft) O-NO 63 0 min 0,000 mm 0,0 UV-I 0 W/m -0,8 C -0,1 C 8,0 km/h (2 Bft) 100,00 %
16.03.2016 05:12 -0,1 C 95 % 1023,8 hPa 0,0 l/m 5,4 km/h (1 Bft) NO 45 0 min 0,000 mm 0,0 UV-I 0 W/m -0,8 C -0,1 C 6,4 km/h (2 Bft) 100,00 %
16.03.2016 05:13 -0,1 C 95 % 1023,8 hPa 0,0 l/m 6,2 km/h (2 Bft) O-NO 64 0 min 0,000 mm 0,0 UV-I 0 W/m -0,8 C -0,1 C 8,0 km/h (2 Bft) 100,00 %
16.03.2016 05:14 -0,1 C 95 % 1023,8 hPa 0,0 l/m 7,5 km/h (2 Bft) O-NO 76 0 min 0,000 mm 0,0 UV-I 0 W/m -0,8 C -1,2 C 9,7 km/h (2 Bft) 100,00 %
16.03.2016 05:15 -0,1 C 95 % 1023,8 hPa 0,0 l/m 6,9 km/h (2 Bft) O-NO 58 0 min 0,000 mm 0,0 UV-I 0 W/m -0,8 C -0,6 C 8,0 km/h (2 Bft) 100,00 %
16.03.2016 05:16 -0,1 C 95 % 1023,8 hPa 0,0 l/m 5,9 km/h (2 Bft) O-NO 57 0 min 0,000 mm 0,0 UV-I 0 W/m -0,8 C -0,1 C 8,0 km/h (2 Bft) 100,00 %
16.03.2016 05:17 -0,1 C 95 % 1023,8 hPa 0,0 l/m 5,6 km/h (1 Bft) O-NO 60 0 min 0,000 mm 0,0 UV-I 0 W/m -0,8 C -0,1 C 8,0 km/h (2 Bft) 100,00 %
16.03.2016 05:18 -0,1 C 95 % 1023,8 hPa 0,0 l/m 5,4 km/h (1 Bft) NO 53 0 min 0,000 mm 0,0 UV-I 0 W/m -0,8 C -0,1 C 6,4 km/h (2 Bft) 96,55 %
16.03.2016 05:19 -0,1 C 95 % 1023,8 hPa 0,0 l/m 6,0 km/h (2 Bft) O-NO 64 0 min 0,000 mm 0,0 UV-I 0 W/m -0,8 C -0,1 C 6,4 km/h (2 Bft) 100,00 %
16.03.2016 05:20 -0,1 C 95 % 1023,8 hPa 0,0 l/m 6,8 km/h (2 Bft) O-NO 74 0 min 0,000 mm 0,0 UV-I 0 W/m -0,8 C -0,5 C 8,0 km/h (2 Bft) 100,00 %
16.03.2016 05:21 -0,1 C 95 % 1023,8 hPa 0,0 l/m 5,3 km/h (1 Bft) O-NO 71 0 min 0,000 mm 0,0 UV-I 0 W/m -0,8 C -0,1 C 6,4 km/h (2 Bft) 100,00 %
16.03.2016 05:22 -0,1 C 95 % 1023,8 hPa 0,0 l/m 3,8 km/h (1 Bft) O-NO 76 0 min 0,000 mm 0,0 UV-I 0 W/m -0,8 C -0,1 C 6,4 km/h (2 Bft) 100,00 %
16.03.2016 05:23 -0,1 C 95 % 1023,8 hPa 0,0 l/m 6,4 km/h (2 Bft) O-NO 61 0 min 0,000 mm 0,0 UV-I 0 W/m -0,8 C -0,1 C 8,0 km/h (2 Bft) 95,83 %
16.03.2016 05:24 -0,1 C 95 % 1023,8 hPa 0,0 l/m 5,2 km/h (1 Bft) O-NO 63 0 min 0,000 mm 0,0 UV-I 0 W/m -0,8 C -0,1 C 8,0 km/h (2 Bft) 100,00 %
16.03.2016 05:25 -0,1 C 95 % 1023,9 hPa 0,0 l/m 5,1 km/h (1 Bft) O-NO 71 0 min 0,000 mm 0,0 UV-I 0 W/m -0,8 C -0,1 C 8,0 km/h (2 Bft) 100,00 %
16.03.2016 05:26 -0,1 C 95 % 1023,9 hPa 0,0 l/m 4,5 km/h (1 Bft) O-NO 76 0 min 0,000 mm 0,0 UV-I 0 W/m -0,8 C -0,1 C 6,4 km/h (2 Bft) 100,00 %
16.03.2016 05:27 -0,1 C 95 % 1023,9 hPa 0,0 l/m 3,8 km/h (1 Bft) O-NO 77 0 min 0,000 mm 0,0 UV-I 0 W/m -0,8 C -0,1 C 6,4 km/h (2 Bft) 93,33 %
16.03.2016 05:28 -0,1 C 95 % 1023,9 hPa 0,0 l/m 5,5 km/h (1 Bft) O-NO 76 0 min 0,000 mm 0,0 UV-I 0 W/m -0,8 C -0,1 C 8,0 km/h (2 Bft) 100,00 %
16.03.2016 05:29 -0,1 C 95 % 1023,9 hPa 0,0 l/m 4,2 km/h (1 Bft) O 98 0 min 0,000 mm 0,0 UV-I 0 W/m -0,8 C -0,1 C 6,4 km/h (2 Bft) 100,00 %
16.03.2016 05:30 -0,1 C 95 % 1023,9 hPa 0,0 l/m 9,1 km/h (2 Bft) O 80 0 min 0,000 mm 0,0 UV-I 0 W/m -0,8 C -2,8 C 12,9 km/h (3 Bft) 100,00 %
16.03.2016 05:31 -0,1 C 95 % 1023,9 hPa 0,0 l/m 6,9 km/h (2 Bft) O-SO 116 0 min 0,000 mm 0,0 UV-I 0 W/m -0,8 C -0,6 C 11,3 km/h (2 Bft) 100,00 %
16.03.2016 05:32 -0,1 C 95 % 1023,9 hPa 0,0 l/m 3,8 km/h (1 Bft) O-NO 67 0 min 0,000 mm 0,0 UV-I 0 W/m -0,8 C -0,1 C 6,4 km/h (2 Bft) 95,65 %
16.03.2016 05:33 -0,1 C 95 % 1023,9 hPa 0,0 l/m 4,4 km/h (1 Bft) O 88 0 min 0,000 mm 0,0 UV-I 0 W/m -0,8 C -0,1 C 6,4 km/h (2 Bft) 100,00 %
16.03.2016 05:34 -0,1 C 95 % 1023,9 hPa 0,0 l/m 4,3 km/h (1 Bft) O-NO 67 0 min 0,000 mm 0,0 UV-I 0 W/m -0,8 C -0,1 C 8,0 km/h (2 Bft) 100,00 %
16.03.2016 05:35 -0,1 C 95 % 1023,9 hPa 0,0 l/m 4,6 km/h (1 Bft) O 84 0 min 0,000 mm 0,0 UV-I 0 W/m -0,8 C -0,1 C 6,4 km/h (2 Bft) 100,00 %
16.03.2016 05:36 -0,1 C 95 % 1023,9 hPa 0,0 l/m 4,6 km/h (1 Bft) O-NO 72 0 min 0,000 mm 0,0 UV-I 0 W/m -0,8 C -0,1 C 6,4 km/h (2 Bft) 100,00 %
16.03.2016 05:37 -0,1 C 95 % 1023,9 hPa 0,0 l/m 6,4 km/h (2 Bft) O 98 0 min 0,000 mm 0,0 UV-I 0 W/m -0,8 C -0,1 C 11,3 km/h (2 Bft) 96,67 %
16.03.2016 05:38 -0,1 C 95 % 1023,9 hPa 0,0 l/m 5,3 km/h (1 Bft) O 94 0 min 0,000 mm 0,0 UV-I 0 W/m -0,8 C -0,1 C 6,4 km/h (2 Bft) 100,00 %
16.03.2016 05:39 -0,1 C 95 % 1023,9 hPa 0,0 l/m 3,8 km/h (1 Bft) O-NO 76 0 min 0,000 mm 0,0 UV-I 0 W/m -0,8 C -0,1 C 6,4 km/h (2 Bft) 100,00 %
16.03.2016 05:40 -0,1 C 95 % 1023,9 hPa 0,0 l/m 5,5 km/h (1 Bft) O-NO 63 0 min 0,000 mm 0,0 UV-I 0 W/m -0,8 C -0,1 C 6,4 km/h (2 Bft) 100,00 %
16.03.2016 05:41 -0,1 C 95 % 1023,9 hPa 0,0 l/m 7,3 km/h (2 Bft) O-NO 67 0 min 0,000 mm 0,0 UV-I 0 W/m -0,8 C -1,0 C 9,7 km/h (2 Bft) 100,00 %
16.03.2016 05:42 -0,1 C 95 % 1024,0 hPa 0,0 l/m 6,8 km/h (2 Bft) O-NO 62 0 min 0,000 mm 0,0 UV-I 0 W/m -0,8 C -0,5 C 9,7 km/h (2 Bft) 100,00 %
16.03.2016 05:43 -0,1 C 95 % 1024,0 hPa 0,0 l/m 6,5 km/h (2 Bft) O-NO 73 0 min 0,000 mm 0,0 UV-I 0 W/m -0,8 C -0,2 C 8,0 km/h (2 Bft) 100,00 %
16.03.2016 05:44 -0,1 C 95 % 1024,0 hPa 0,0 l/m 7,7 km/h (2 Bft) O-NO 69 0 min 0,000 mm 0,0 UV-I 0 W/m -0,8 C -1,5 C 11,3 km/h (2 Bft) 100,00 %
16.03.2016 05:45 -0,1 C 95 % 1024,1 hPa 0,0 l/m 3,2 km/h (1 Bft) NO 48 0 min 0,000 mm 0,0 UV-I 0 W/m -0,8 C -0,1 C 4,8 km/h (1 Bft) 96,15 %
16.03.2016 05:46 0,0 C 95 % 1024,1 hPa 0,0 l/m 6,1 km/h (2 Bft) O 90 0 min 0,000 mm 0,0 UV-I 0 W/m -0,7 C 0,0 C 8,0 km/h (2 Bft) 100,00 %
16.03.2016 05:47 -0,1 C 95 % 1024,0 hPa 0,0 l/m 5,5 km/h (1 Bft) O-NO 76 0 min 0,000 mm 0,0 UV-I 0 W/m -0,8 C -0,1 C 8,0 km/h (2 Bft) 100,00 %
16.03.2016 05:48 0,0 C 95 % 1024,0 hPa 0,0 l/m 4,6 km/h (1 Bft) O 79 0 min 0,000 mm 0,0 UV-I 0 W/m -0,7 C 0,0 C 6,4 km/h (2 Bft) 100,00 %
16.03.2016 05:49 0,0 C 95 % 1024,0 hPa 0,0 l/m 5,9 km/h (2 Bft) O-NO 71 0 min 0,000 mm 0,0 UV-I 0 W/m -0,7 C 0,0 C 11,3 km/h (2 Bft) 100,00 %
16.03.2016 05:50 0,0 C 95 % 1024,0 hPa 0,0 l/m 4,9 km/h (1 Bft) O-SO 119 0 min 0,000 mm 0,0 UV-I 0 W/m -0,7 C 0,0 C 6,4 km/h (2 Bft) 100,00 %
16.03.2016 05:51 0,0 C 95 % 1024,1 hPa 0,0 l/m 4,7 km/h (1 Bft) O-SO 111 0 min 0,000 mm 0,0 UV-I 0 W/m -0,7 C 0,0 C 6,4 km/h (2 Bft) 96,15 %
16.03.2016 05:52 0,0 C 95 % 1024,1 hPa 0,0 l/m 3,7 km/h (1 Bft) O-SO 110 0 min 0,000 mm 0,0 UV-I 0 W/m -0,7 C 0,0 C 6,4 km/h (2 Bft) 100,00 %
16.03.2016 05:53 0,0 C 95 % 1024,0 hPa 0,0 l/m 2,1 km/h (1 Bft) O-NO 68 0 min 0,000 mm 0,0 UV-I 0 W/m -0,7 C 0,0 C 3,2 km/h (1 Bft) 100,00 %
16.03.2016 05:54 0,0 C 95 % 1024,0 hPa 0,0 l/m 2,1 km/h (1 Bft) O 92 0 min 0,000 mm 0,0 UV-I 0 W/m -0,7 C 0,0 C 3,2 km/h (1 Bft) 95,83 %
16.03.2016 05:55 0,0 C 95 % 1024,1 hPa 0,0 l/m 3,5 km/h (1 Bft) O-NO 64 0 min 0,000 mm 0,0 UV-I 0 W/m -0,7 C 0,0 C 4,8 km/h (1 Bft) 100,00 %
16.03.2016 05:56 0,0 C 95 % 1024,1 hPa 0,0 l/m 2,7 km/h (1 Bft) O-NO 64 0 min 0,000 mm 0,0 UV-I 0 W/m -0,7 C 0,0 C 4,8 km/h (1 Bft) 95,83 %
16.03.2016 05:57 0,0 C 95 % 1024,1 hPa 0,0 l/m 4,8 km/h (1 Bft) O 96 0 min 0,000 mm 0,0 UV-I 0 W/m -0,7 C 0,0 C 6,4 km/h (2 Bft) 100,00 %
16.03.2016 05:58 0,0 C 95 % 1024,1 hPa 0,0 l/m 4,4 km/h (1 Bft) O 88 0 min 0,000 mm 0,0 UV-I 0 W/m -0,7 C 0,0 C 9,7 km/h (2 Bft) 100,00 %
16.03.2016 05:59 0,0 C 95 % 1024,1 hPa 0,0 l/m 5,2 km/h (1 Bft) O 84 0 min 0,000 mm 0,0 UV-I 0 W/m -0,7 C 0,0 C 11,3 km/h (2 Bft) 95,65 %
16.03.2016 06:00 0,0 C 95 % 1024,1 hPa 0,0 l/m 7,6 km/h (2 Bft) O 86 0 min 0,000 mm 0,0 UV-I 0 W/m -0,7 C -1,2 C 8,0 km/h (2 Bft) 100,00 %
16.03.2016 06:01 0,0 C 95 % 1024,2 hPa 0,0 l/m 5,1 km/h (1 Bft) O-SO 111 0 min 0,000 mm 0,0 UV-I 0 W/m -0,7 C 0,0 C 9,7 km/h (2 Bft) 100,00 %
16.03.2016 06:02 0,0 C 95 % 1024,2 hPa 0,0 l/m 4,2 km/h (1 Bft) O-NO 67 0 min 0,000 mm 0,0 UV-I 0 W/m -0,7 C 0,0 C 6,4 km/h (2 Bft) 100,00 %
16.03.2016 06:03 0,0 C 95 % 1024,2 hPa 0,0 l/m 6,4 km/h (2 Bft) O 92 0 min 0,000 mm 0,0 UV-I 0 W/m -0,7 C 0,0 C 9,7 km/h (2 Bft) 100,00 %
16.03.2016 06:04 0,0 C 95 % 1024,2 hPa 0,0 l/m 4,2 km/h (1 Bft) O-NO 78 0 min 0,000 mm 0,0 UV-I 0 W/m -0,7 C 0,0 C 6,4 km/h (2 Bft) 100,00 %
16.03.2016 06:05 0,0 C 95 % 1024,3 hPa 0,0 l/m 5,8 km/h (2 Bft) O-NO 73 0 min 0,000 mm 0,0 UV-I 0 W/m -0,7 C 0,0 C 8,0 km/h (2 Bft) 95,83 %
16.03.2016 06:06 0,0 C 95 % 1024,3 hPa 0,0 l/m 5,8 km/h (2 Bft) O-NO 72 0 min 0,000 mm 0,0 UV-I 0 W/m -0,7 C 0,0 C 8,0 km/h (2 Bft) 100,00 %
16.03.2016 06:07 0,0 C 95 % 1024,3 hPa 0,0 l/m 5,7 km/h (1 Bft) O 82 0 min 0,000 mm 0,0 UV-I 0 W/m -0,7 C 0,0 C 8,0 km/h (2 Bft) 100,00 %
16.03.2016 06:08 -0,1 C 95 % 1024,3 hPa 0,0 l/m 6,5 km/h (2 Bft) O-NO 77 0 min 0,000 mm 0,0 UV-I 0 W/m -0,8 C -0,2 C 8,0 km/h (2 Bft) 100,00 %
16.03.2016 06:09 -0,1 C 95 % 1024,3 hPa 0,0 l/m 5,6 km/h (1 Bft) O-NO 69 0 min 0,000 mm 0,0 UV-I 0 W/m -0,8 C -0,1 C 6,4 km/h (2 Bft) 100,00 %
16.03.2016 06:10 0,0 C 95 % 1024,3 hPa 0,0 l/m 4,9 km/h (1 Bft) O-NO 59 0 min 0,000 mm 0,0 UV-I 0 W/m -0,7 C 0,0 C 6,4 km/h (2 Bft) 100,00 %
16.03.2016 06:11 -0,1 C 95 % 1024,3 hPa 0,0 l/m 5,2 km/h (1 Bft) O 88 0 min 0,000 mm 0,0 UV-I 0 W/m -0,8 C -0,1 C 6,4 km/h (2 Bft) 100,00 %
16.03.2016 06:12 0,0 C 95 % 1024,3 hPa 0,0 l/m 4,1 km/h (1 Bft) O-NO 62 0 min 0,000 mm 0,0 UV-I 0 W/m -0,7 C 0,0 C 6,4 km/h (2 Bft) 100,00 %
16.03.2016 06:13 0,0 C 95 % 1024,3 hPa 0,0 l/m 5,7 km/h (1 Bft) O-NO 74 0 min 0,000 mm 0,0 UV-I 0 W/m -0,7 C 0,0 C 8,0 km/h (2 Bft) 100,00 %
16.03.2016 06:14 -0,1 C 95 % 1024,3 hPa 0,0 l/m 5,3 km/h (1 Bft) O 98 0 min 0,000 mm 0,0 UV-I 0 W/m -0,8 C -0,1 C 6,4 km/h (2 Bft) 100,00 %
16.03.2016 06:15 0,0 C 95 % 1024,3 hPa 0,0 l/m 3,7 km/h (1 Bft) O 85 0 min 0,000 mm 0,0 UV-I 0 W/m -0,7 C 0,0 C 4,8 km/h (1 Bft) 100,00 %
16.03.2016 06:16 -0,1 C 95 % 1024,3 hPa 0,0 l/m 4,7 km/h (1 Bft) O-NO 74 0 min 0,000 mm 0,0 UV-I 0 W/m -0,8 C -0,1 C 6,4 km/h (2 Bft) 100,00 %
16.03.2016 06:17 0,0 C 95 % 1024,3 hPa 0,0 l/m 7,3 km/h (2 Bft) O 88 0 min 0,000 mm 0,0 UV-I 0 W/m -0,7 C -0,9 C 11,3 km/h (2 Bft) 100,00 %
16.03.2016 06:18 0,0 C 95 % 1024,3 hPa 0,0 l/m 6,9 km/h (2 Bft) O 79 0 min 0,000 mm 0,0 UV-I 0 W/m -0,7 C -0,5 C 9,7 km/h (2 Bft) 100,00 %
16.03.2016 06:19 0,0 C 95 % 1024,3 hPa 0,0 l/m 5,5 km/h (1 Bft) O 82 0 min 0,000 mm 0,0 UV-I 0 W/m -0,7 C 0,0 C 8,0 km/h (2 Bft) 100,00 %
16.03.2016 06:20 0,0 C 95 % 1024,3 hPa 0,0 l/m 5,7 km/h (1 Bft) O-NO 57 0 min 0,000 mm 0,0 UV-I 0 W/m -0,7 C 0,0 C 9,7 km/h (2 Bft) 98,74 %
16.03.2016 06:21 0,0 C 95 % 1024,3 hPa 0,0 l/m 5,2 km/h (1 Bft) O-NO 75 0 min 0,000 mm 0,0 UV-I 0 W/m -0,7 C 0,0 C 8,0 km/h (2 Bft) 100,00 %
16.03.2016 06:22 0,0 C 95 % 1024,3 hPa 0,0 l/m 5,0 km/h (1 Bft) O 92 0 min 0,000 mm 0,0 UV-I 0 W/m -0,7 C 0,0 C 9,7 km/h (2 Bft) 100,00 %
16.03.2016 06:23 0,0 C 95 % 1024,4 hPa 0,0 l/m 5,6 km/h (1 Bft) O 82 0 min 0,000 mm 0,0 UV-I 0 W/m -0,7 C 0,0 C 6,4 km/h (2 Bft) 100,00 %
16.03.2016 06:24 0,0 C 95 % 1024,4 hPa 0,0 l/m 7,6 km/h (2 Bft) O 80 0 min 0,000 mm 0,0 UV-I 0 W/m -0,7 C -1,2 C 11,3 km/h (2 Bft) 95,65 %
16.03.2016 06:25 0,0 C 95 % 1024,4 hPa 0,0 l/m 6,0 km/h (2 Bft) O 80 0 min 0,000 mm 0,0 UV-I 0 W/m -0,7 C 0,0 C 8,0 km/h (2 Bft) 100,00 %
16.03.2016 06:26 0,0 C 95 % 1024,4 hPa 0,0 l/m 8,6 km/h (2 Bft) O 80 0 min 0,000 mm 0,0 UV-I 0 W/m -0,7 C -2,2 C 12,9 km/h (3 Bft) 91,30 %
16.03.2016 06:27 0,0 C 95 % 1024,3 hPa 0,0 l/m 6,2 km/h (2 Bft) O-NO 67 0 min 0,000 mm 0,0 UV-I 0 W/m -0,7 C 0,0 C 8,0 km/h (2 Bft) 100,00 %
16.03.2016 06:28 0,0 C 95 % 1024,4 hPa 0,0 l/m 6,4 km/h (2 Bft) O-NO 63 0 min 0,000 mm 0,0 UV-I 0 W/m -0,7 C 0,0 C 8,0 km/h (2 Bft) 96,67 %
16.03.2016 06:29 0,0 C 95 % 1024,4 hPa 0,0 l/m 6,1 km/h (2 Bft) O 89 0 min 0,000 mm 0,0 UV-I 0 W/m -0,7 C 0,0 C 11,3 km/h (2 Bft) 96,15 %
16.03.2016 06:30 0,0 C 95 % 1024,4 hPa 0,0 l/m 6,4 km/h (2 Bft) O-SO 123 0 min 0,000 mm 0,0 UV-I 0 W/m -0,7 C 0,0 C 11,3 km/h (2 Bft) 83,33 %
16.03.2016 06:31 0,0 C 95 % 1024,4 hPa 0,0 l/m 7,2 km/h (2 Bft) O 91 0 min 0,000 mm 0,0 UV-I 0 W/m -0,7 C -0,8 C 11,3 km/h (2 Bft) 100,00 %
16.03.2016 06:32 0,0 C 95 % 1024,4 hPa 0,0 l/m 6,1 km/h (2 Bft) O-NO 59 0 min 0,000 mm 0,0 UV-I 0 W/m -0,7 C 0,0 C 9,7 km/h (2 Bft) 96,30 %
16.03.2016 06:33 0,0 C 96 % 1024,4 hPa 0,0 l/m 7,3 km/h (2 Bft) O-NO 78 0 min 0,000 mm 0,0 UV-I 0 W/m -0,6 C -0,9 C 8,0 km/h (2 Bft) 100,00 %
16.03.2016 06:34 0,0 C 96 % 1024,4 hPa 0,0 l/m 5,7 km/h (1 Bft) O-NO 76 0 min 0,000 mm 0,0 UV-I 0 W/m -0,6 C 0,0 C 8,0 km/h (2 Bft) 96,30 %
16.03.2016 06:35 0,0 C 96 % 1024,4 hPa 0,0 l/m 6,5 km/h (2 Bft) O 80 0 min 0,000 mm 0,0 UV-I 1 W/m -0,6 C -0,1 C 9,7 km/h (2 Bft) 95,65 %
16.03.2016 06:36 0,0 C 96 % 1024,4 hPa 0,0 l/m 3,9 km/h (1 Bft) O-NO 78 0 min 0,000 mm 0,0 UV-I 5 W/m -0,6 C 0,0 C 4,8 km/h (1 Bft) 100,00 %
16.03.2016 06:37 0,0 C 96 % 1024,4 hPa 0,0 l/m 5,9 km/h (2 Bft) O-NO 57 0 min 0,000 mm 0,0 UV-I 5 W/m -0,6 C 0,0 C 8,0 km/h (2 Bft) 95,65 %
16.03.2016 06:38 0,0 C 96 % 1024,5 hPa 0,0 l/m 5,6 km/h (1 Bft) O-NO 61 0 min 0,000 mm 0,0 UV-I 5 W/m -0,6 C 0,0 C 6,4 km/h (2 Bft) 100,00 %
16.03.2016 06:39 0,1 C 96 % 1024,4 hPa 0,0 l/m 6,4 km/h (2 Bft) NO 49 0 min 0,000 mm 0,0 UV-I 5 W/m -0,5 C 0,1 C 8,0 km/h (2 Bft) 91,30 %
16.03.2016 06:40 0,0 C 96 % 1024,4 hPa 0,0 l/m 6,8 km/h (2 Bft) O-NO 71 0 min 0,000 mm 0,0 UV-I 7 W/m -0,6 C -0,4 C 9,7 km/h (2 Bft) 96,30 %
16.03.2016 06:41 0,0 C 96 % 1024,5 hPa 0,0 l/m 6,7 km/h (2 Bft) O-NO 63 0 min 0,000 mm 0,0 UV-I 7 W/m -0,6 C -0,3 C 8,0 km/h (2 Bft) 100,00 %
16.03.2016 06:42 0,1 C 95 % 1024,5 hPa 0,0 l/m 7,6 km/h (2 Bft) O-NO 72 0 min 0,000 mm 0,0 UV-I 7 W/m -0,6 C -1,1 C 11,3 km/h (2 Bft) 93,33 %
16.03.2016 06:43 0,1 C 96 % 1024,5 hPa 0,0 l/m 6,4 km/h (2 Bft) O-NO 59 0 min 0,000 mm 0,0 UV-I 7 W/m -0,5 C 0,1 C 8,0 km/h (2 Bft) 100,00 %
16.03.2016 06:44 0,1 C 95 % 1024,6 hPa 0,0 l/m 7,0 km/h (2 Bft) O-NO 66 0 min 0,000 mm 0,0 UV-I 7 W/m -0,6 C -0,5 C 9,7 km/h (2 Bft) 93,33 %
16.03.2016 06:45 0,1 C 95 % 1024,6 hPa 0,0 l/m 7,8 km/h (2 Bft) O-NO 78 0 min 0,000 mm 0,0 UV-I 7 W/m -0,6 C -1,3 C 9,7 km/h (2 Bft) 100,00 %
16.03.2016 06:46 0,1 C 95 % 1024,6 hPa 0,0 l/m 6,0 km/h (2 Bft) O-NO 61 0 min 0,000 mm 0,0 UV-I 7 W/m -0,6 C 0,1 C 8,0 km/h (2 Bft) 96,15 %
16.03.2016 06:47 0,1 C 95 % 1024,5 hPa 0,0 l/m 7,3 km/h (2 Bft) O-NO 76 0 min 0,000 mm 0,0 UV-I 7 W/m -0,6 C -0,8 C 12,9 km/h (3 Bft) 100,00 %
16.03.2016 06:48 0,1 C 95 % 1024,5 hPa 0,0 l/m 8,8 km/h (2 Bft) O-NO 71 0 min 0,000 mm 0,0 UV-I 8 W/m -0,6 C -2,3 C 12,9 km/h (3 Bft) 96,15 %
16.03.2016 06:49 0,1 C 95 % 1024,5 hPa 0,0 l/m 7,2 km/h (2 Bft) O-NO 74 0 min 0,000 mm 0,0 UV-I 9 W/m -0,6 C -0,7 C 14,5 km/h (3 Bft) 96,30 %
16.03.2016 06:50 0,1 C 95 % 1024,5 hPa 0,0 l/m 4,4 km/h (1 Bft) NO 56 0 min 0,000 mm 0,0 UV-I 9 W/m -0,6 C 0,1 C 8,0 km/h (2 Bft) 100,00 %
16.03.2016 06:51 0,1 C 95 % 1024,5 hPa 0,0 l/m 7,3 km/h (2 Bft) O-NO 69 0 min 0,000 mm 0,0 UV-I 7 W/m -0,6 C -0,8 C 9,7 km/h (2 Bft) 95,83 %
16.03.2016 06:52 0,1 C 95 % 1024,6 hPa 0,0 l/m 8,3 km/h (2 Bft) O-NO 57 0 min 0,000 mm 0,0 UV-I 7 W/m -0,6 C -1,8 C 12,9 km/h (3 Bft) 100,00 %
16.03.2016 06:53 0,1 C 95 % 1024,6 hPa 0,0 l/m 8,4 km/h (2 Bft) NO 53 0 min 0,000 mm 0,0 UV-I 7 W/m -0,6 C -1,9 C 11,3 km/h (2 Bft) 91,67 %
16.03.2016 06:54 0,1 C 95 % 1024,6 hPa 0,0 l/m 6,5 km/h (2 Bft) O 80 0 min 0,000 mm 0,0 UV-I 5 W/m -0,6 C 0,0 C 8,0 km/h (2 Bft) 100,00 %
16.03.2016 06:55 0,1 C 95 % 1024,6 hPa 0,0 l/m 8,8 km/h (2 Bft) O-NO 73 0 min 0,000 mm 0,0 UV-I 6 W/m -0,6 C -2,3 C 12,9 km/h (3 Bft) 91,67 %
16.03.2016 06:56 0,1 C 95 % 1024,6 hPa 0,0 l/m 9,5 km/h (2 Bft) O 82 0 min 0,000 mm 0,0 UV-I 7 W/m -0,6 C -2,9 C 14,5 km/h (3 Bft) 96,15 %
16.03.2016 06:57 0,1 C 95 % 1024,6 hPa 0,0 l/m 8,0 km/h (2 Bft) NO 46 0 min 0,000 mm 0,0 UV-I 7 W/m -0,6 C -1,5 C 12,9 km/h (3 Bft) 96,67 %
16.03.2016 06:58 0,1 C 96 % 1024,6 hPa 0,0 l/m 7,8 km/h (2 Bft) O-NO 63 0 min 0,000 mm 0,0 UV-I 7 W/m -0,5 C -1,3 C 12,9 km/h (3 Bft) 100,00 %
16.03.2016 06:59 0,1 C 96 % 1024,7 hPa 0,0 l/m 9,0 km/h (2 Bft) O-NO 65 0 min 0,000 mm 0,0 UV-I 7 W/m -0,5 C -2,5 C 12,9 km/h (3 Bft) 100,00 %
16.03.2016 07:00 0,1 C 96 % 1024,7 hPa 0,0 l/m 7,4 km/h (2 Bft) O 84 0 min 0,000 mm 0,0 UV-I 7 W/m -0,5 C -0,9 C 11,3 km/h (2 Bft) 100,00 %
16.03.2016 07:01 0,1 C 95 % 1024,7 hPa 0,0 l/m 7,8 km/h (2 Bft) O-NO 63 0 min 0,000 mm 0,0 UV-I 7 W/m -0,6 C -1,3 C 9,7 km/h (2 Bft) 100,00 %
16.03.2016 07:02 0,2 C 95 % 1024,7 hPa 0,0 l/m 8,4 km/h (2 Bft) O-NO 69 0 min 0,000 mm 0,0 UV-I 6 W/m -0,5 C -1,8 C 11,3 km/h (2 Bft) 100,00 %
16.03.2016 07:03 0,1 C 95 % 1024,7 hPa 0,0 l/m 6,7 km/h (2 Bft) O-NO 67 0 min 0,000 mm 0,0 UV-I 5 W/m -0,6 C -0,2 C 14,5 km/h (3 Bft) 96,15 %
16.03.2016 07:04 0,2 C 95 % 1024,7 hPa 0,0 l/m 10,4 km/h (2 Bft) O-NO 69 0 min 0,000 mm 0,0 UV-I 5 W/m -0,5 C -3,6 C 12,9 km/h (3 Bft) 100,00 %
16.03.2016 07:05 0,2 C 95 % 1024,8 hPa 0,0 l/m 8,1 km/h (2 Bft) NO 56 0 min 0,000 mm 0,0 UV-I 7 W/m -0,5 C -1,5 C 12,9 km/h (3 Bft) 100,00 %
16.03.2016 07:06 0,2 C 95 % 1024,8 hPa 0,0 l/m 7,4 km/h (2 Bft) O-NO 74 0 min 0,000 mm 0,0 UV-I 7 W/m -0,5 C -0,8 C 11,3 km/h (2 Bft) 95,83 %
16.03.2016 07:07 0,2 C 95 % 1024,8 hPa 0,0 l/m 7,1 km/h (2 Bft) O-NO 73 0 min 0,000 mm 0,0 UV-I 7 W/m -0,5 C -0,5 C 11,3 km/h (2 Bft) 100,00 %
16.03.2016 07:08 0,2 C 95 % 1024,8 hPa 0,0 l/m 7,2 km/h (2 Bft) O-NO 73 0 min 0,000 mm 0,0 UV-I 7 W/m -0,5 C -0,6 C 8,0 km/h (2 Bft) 100,00 %
16.03.2016 07:09 0,2 C 95 % 1024,8 hPa 0,0 l/m 7,3 km/h (2 Bft) O 91 0 min 0,000 mm 0,0 UV-I 7 W/m -0,5 C -0,7 C 12,9 km/h (3 Bft) 100,00 %
16.03.2016 07:10 0,2 C 95 % 1024,8 hPa 0,0 l/m 5,1 km/h (1 Bft) O-NO 67 0 min 0,000 mm 0,0 UV-I 9 W/m -0,5 C 0,2 C 8,0 km/h (2 Bft) 100,00 %
16.03.2016 07:11 0,2 C 95 % 1024,8 hPa 0,0 l/m 6,3 km/h (2 Bft) O-NO 69 0 min 0,000 mm 0,0 UV-I 9 W/m -0,5 C 0,2 C 8,0 km/h (2 Bft) 100,00 %
16.03.2016 07:12 0,2 C 95 % 1024,8 hPa 0,0 l/m 4,6 km/h (1 Bft) O-NO 61 0 min 0,000 mm 0,0 UV-I 9 W/m -0,5 C 0,2 C 8,0 km/h (2 Bft) 93,33 %
16.03.2016 07:13 0,2 C 95 % 1024,8 hPa 0,0 l/m 5,6 km/h (1 Bft) O-NO 76 0 min 0,000 mm 0,0 UV-I 9 W/m -0,5 C 0,2 C 8,0 km/h (2 Bft) 100,00 %
16.03.2016 07:14 0,2 C 95 % 1024,8 hPa 0,0 l/m 6,5 km/h (2 Bft) O-NO 67 0 min 0,000 mm 0,0 UV-I 10 W/m -0,5 C 0,1 C 9,7 km/h (2 Bft) 100,00 %
16.03.2016 07:15 0,2 C 95 % 1024,8 hPa 0,0 l/m 7,4 km/h (2 Bft) O-NO 65 0 min 0,000 mm 0,0 UV-I 11 W/m -0,5 C -0,8 C 12,9 km/h (3 Bft) 100,00 %
16.03.2016 07:16 0,2 C 95 % 1024,8 hPa 0,0 l/m 6,1 km/h (2 Bft) O-NO 69 0 min 0,000 mm 0,0 UV-I 12 W/m -0,5 C 0,2 C 9,7 km/h (2 Bft) 100,00 %
16.03.2016 07:17 0,2 C 95 % 1024,8 hPa 0,0 l/m 5,9 km/h (2 Bft) O-NO 74 0 min 0,000 mm 0,0 UV-I 12 W/m -0,5 C 0,2 C 8,0 km/h (2 Bft) 92,86 %
16.03.2016 07:18 0,2 C 95 % 1024,8 hPa 0,0 l/m 6,1 km/h (2 Bft) NO 42 0 min 0,000 mm 0,0 UV-I 14 W/m -0,5 C 0,2 C 8,0 km/h (2 Bft) 100,00 %
16.03.2016 07:19 0,2 C 95 % 1024,8 hPa 0,0 l/m 6,4 km/h (2 Bft) O-NO 76 0 min 0,000 mm 0,0 UV-I 15 W/m -0,5 C 0,2 C 11,3 km/h (2 Bft) 100,00 %
16.03.2016 07:20 0,2 C 95 % 1024,8 hPa 0,0 l/m 4,1 km/h (1 Bft) O-NO 65 0 min 0,000 mm 0,0 UV-I 16 W/m -0,5 C 0,2 C 6,4 km/h (2 Bft) 100,00 %
16.03.2016 07:21 0,2 C 95 % 1024,8 hPa 0,0 l/m 5,6 km/h (1 Bft) O-NO 70 0 min 0,000 mm 0,0 UV-I 18 W/m -0,5 C 0,2 C 8,0 km/h (2 Bft) 100,00 %
16.03.2016 07:22 0,2 C 95 % 1024,8 hPa 0,0 l/m 5,7 km/h (1 Bft) O 79 0 min 0,000 mm 0,0 UV-I 18 W/m -0,5 C 0,2 C 8,0 km/h (2 Bft) 100,00 %
16.03.2016 07:23 0,2 C 95 % 1024,8 hPa 0,0 l/m 6,0 km/h (2 Bft) O-NO 62 0 min 0,000 mm 0,0 UV-I 18 W/m -0,5 C 0,2 C 8,0 km/h (2 Bft) 100,00 %
16.03.2016 07:24 0,2 C 95 % 1024,8 hPa 0,0 l/m 7,2 km/h (2 Bft) O-NO 72 0 min 0,000 mm 0,0 UV-I 18 W/m -0,5 C -0,6 C 8,0 km/h (2 Bft) 100,00 %
16.03.2016 07:25 0,2 C 96 % 1024,8 hPa 0,0 l/m 6,2 km/h (2 Bft) O-NO 73 0 min 0,000 mm 0,0 UV-I 17 W/m -0,4 C 0,2 C 8,0 km/h (2 Bft) 100,00 %
16.03.2016 07:26 0,2 C 96 % 1024,9 hPa 0,0 l/m 6,7 km/h (2 Bft) O-NO 65 0 min 0,000 mm 0,0 UV-I 18 W/m -0,4 C -0,1 C 8,0 km/h (2 Bft) 100,00 %
16.03.2016 07:27 0,2 C 96 % 1024,9 hPa 0,0 l/m 5,8 km/h (2 Bft) O-NO 61 0 min 0,000 mm 0,0 UV-I 18 W/m -0,4 C 0,2 C 8,0 km/h (2 Bft) 100,00 %
16.03.2016 07:28 0,2 C 96 % 1024,9 hPa 0,0 l/m 7,3 km/h (2 Bft) O 81 0 min 0,000 mm 0,0 UV-I 18 W/m -0,4 C -0,7 C 8,0 km/h (2 Bft) 100,00 %
16.03.2016 07:29 0,2 C 96 % 1024,9 hPa 0,0 l/m 4,7 km/h (1 Bft) NO 52 0 min 0,000 mm 0,0 UV-I 18 W/m -0,4 C 0,2 C 6,4 km/h (2 Bft) 100,00 %
16.03.2016 07:30 0,2 C 96 % 1024,9 hPa 0,0 l/m 5,4 km/h (1 Bft) O 90 0 min 0,000 mm 0,0 UV-I 18 W/m -0,4 C 0,2 C 8,0 km/h (2 Bft) 100,00 %
16.03.2016 07:31 0,3 C 96 % 1024,9 hPa 0,0 l/m 7,5 km/h (2 Bft) O-NO 59 0 min 0,000 mm 0,0 UV-I 18 W/m -0,3 C -0,8 C 9,7 km/h (2 Bft) 100,00 %
16.03.2016 07:32 0,3 C 96 % 1024,9 hPa 0,0 l/m 7,0 km/h (2 Bft) O 83 0 min 0,000 mm 0,0 UV-I 18 W/m -0,3 C -0,3 C 8,0 km/h (2 Bft) 100,00 %
16.03.2016 07:33 0,3 C 96 % 1025,0 hPa 0,0 l/m 7,6 km/h (2 Bft) O-NO 59 0 min 0,000 mm 0,0 UV-I 18 W/m -0,3 C -0,9 C 9,7 km/h (2 Bft) 100,00 %
16.03.2016 07:34 0,3 C 96 % 1025,0 hPa 0,0 l/m 9,4 km/h (2 Bft) O-NO 60 0 min 0,000 mm 0,0 UV-I 18 W/m -0,3 C -2,6 C 14,5 km/h (3 Bft) 100,00 %
16.03.2016 07:35 0,3 C 96 % 1025,0 hPa 0,0 l/m 6,4 km/h (2 Bft) O-NO 69 0 min 0,000 mm 0,0 UV-I 16 W/m -0,3 C 0,3 C 11,3 km/h (2 Bft) 100,00 %
16.03.2016 07:36 0,3 C 95 % 1025,0 hPa 0,0 l/m 6,6 km/h (2 Bft) O-NO 62 0 min 0,000 mm 0,0 UV-I 15 W/m -0,4 C 0,1 C 11,3 km/h (2 Bft) 100,00 %
16.03.2016 07:37 0,3 C 96 % 1025,0 hPa 0,0 l/m 12,0 km/h (2 Bft) O-NO 77 0 min 0,000 mm 0,0 UV-I 15 W/m -0,3 C -4,7 C 16,1 km/h (3 Bft) 95,83 %
16.03.2016 07:38 0,3 C 95 % 1025,0 hPa 0,0 l/m 8,6 km/h (2 Bft) O 97 0 min 0,000 mm 0,0 UV-I 16 W/m -0,4 C -1,9 C 11,3 km/h (2 Bft) 100,00 %
16.03.2016 07:39 0,3 C 95 % 1025,0 hPa 0,0 l/m 7,3 km/h (2 Bft) NO 50 0 min 0,000 mm 0,0 UV-I 18 W/m -0,4 C -0,6 C 9,7 km/h (2 Bft) 100,00 %
16.03.2016 07:40 0,3 C 95 % 1025,0 hPa 0,0 l/m 9,7 km/h (2 Bft) O-NO 67 0 min 0,000 mm 0,0 UV-I 18 W/m -0,4 C -2,9 C 14,5 km/h (3 Bft) 100,00 %
16.03.2016 07:41 0,3 C 95 % 1025,1 hPa 0,0 l/m 7,4 km/h (2 Bft) O-NO 72 0 min 0,000 mm 0,0 UV-I 19 W/m -0,4 C -0,7 C 11,3 km/h (2 Bft) 100,00 %
16.03.2016 07:42 0,3 C 95 % 1025,1 hPa 0,0 l/m 7,6 km/h (2 Bft) O-NO 68 0 min 0,000 mm 0,0 UV-I 18 W/m -0,4 C -0,9 C 11,3 km/h (2 Bft) 100,00 %
16.03.2016 07:43 0,3 C 95 % 1025,1 hPa 0,0 l/m 11,1 km/h (2 Bft) O-NO 69 0 min 0,000 mm 0,0 UV-I 18 W/m -0,4 C -4,0 C 16,1 km/h (3 Bft) 100,00 %
16.03.2016 07:44 0,3 C 95 % 1025,2 hPa 0,0 l/m 9,4 km/h (2 Bft) O-NO 78 0 min 0,000 mm 0,0 UV-I 18 W/m -0,4 C -2,6 C 12,9 km/h (3 Bft) 100,00 %
16.03.2016 07:45 0,3 C 95 % 1025,1 hPa 0,0 l/m 10,2 km/h (2 Bft) NO 53 0 min 0,000 mm 0,0 UV-I 18 W/m -0,4 C -3,3 C 12,9 km/h (3 Bft) 96,55 %
16.03.2016 07:46 0,3 C 95 % 1025,2 hPa 0,0 l/m 8,7 km/h (2 Bft) O-NO 59 0 min 0,000 mm 0,0 UV-I 16 W/m -0,4 C -2,0 C 12,9 km/h (3 Bft) 100,00 %
16.03.2016 07:47 0,3 C 95 % 1025,1 hPa 0,0 l/m 8,5 km/h (2 Bft) O-NO 69 0 min 0,000 mm 0,0 UV-I 16 W/m -0,4 C -1,8 C 11,3 km/h (2 Bft) 100,00 %
16.03.2016 07:48 0,3 C 95 % 1025,2 hPa 0,0 l/m 10,3 km/h (2 Bft) O 83 0 min 0,000 mm 0,0 UV-I 16 W/m -0,4 C -3,4 C 12,9 km/h (3 Bft) 100,00 %
16.03.2016 07:49 0,3 C 95 % 1025,2 hPa 0,0 l/m 7,5 km/h (2 Bft) O-NO 71 0 min 0,000 mm 0,0 UV-I 17 W/m -0,4 C -0,8 C 11,3 km/h (2 Bft) 100,00 %
16.03.2016 07:50 0,3 C 95 % 1025,2 hPa 0,0 l/m 7,6 km/h (2 Bft) NO 54 0 min 0,000 mm 0,0 UV-I 19 W/m -0,4 C -0,9 C 14,5 km/h (3 Bft) 100,00 %
16.03.2016 07:51 0,3 C 95 % 1025,2 hPa 0,0 l/m 5,6 km/h (1 Bft) NO 46 0 min 0,000 mm 0,0 UV-I 21 W/m -0,4 C 0,3 C 8,0 km/h (2 Bft) 96,15 %
16.03.2016 07:52 0,4 C 95 % 1025,2 hPa 0,0 l/m 8,0 km/h (2 Bft) NO 49 0 min 0,000 mm 0,0 UV-I 19 W/m -0,3 C -1,2 C 12,9 km/h (3 Bft) 100,00 %
16.03.2016 07:53 0,4 C 95 % 1025,2 hPa 0,0 l/m 8,4 km/h (2 Bft) O-NO 59 0 min 0,000 mm 0,0 UV-I 20 W/m -0,3 C -1,6 C 12,9 km/h (3 Bft) 100,00 %
16.03.2016 07:54 0,4 C 95 % 1025,2 hPa 0,0 l/m 7,4 km/h (2 Bft) O-NO 60 0 min 0,000 mm 0,0 UV-I 22 W/m -0,3 C -0,6 C 9,7 km/h (2 Bft) 100,00 %
16.03.2016 07:55 0,4 C 95 % 1025,1 hPa 0,0 l/m 8,7 km/h (2 Bft) O 92 0 min 0,000 mm 0,0 UV-I 24 W/m -0,3 C -1,9 C 12,9 km/h (3 Bft) 100,00 %
16.03.2016 07:56 0,4 C 95 % 1025,1 hPa 0,0 l/m 11,0 km/h (2 Bft) O-NO 74 0 min 0,000 mm 0,0 UV-I 26 W/m -0,3 C -3,8 C 17,7 km/h (3 Bft) 100,00 %
16.03.2016 07:57 0,4 C 95 % 1025,2 hPa 0,0 l/m 7,2 km/h (2 Bft) NO 56 0 min 0,000 mm 0,0 UV-I 29 W/m -0,3 C -0,4 C 11,3 km/h (2 Bft) 100,00 %
16.03.2016 07:58 0,4 C 95 % 1025,2 hPa 0,0 l/m 8,4 km/h (2 Bft) NO 49 0 min 0,000 mm 0,0 UV-I 33 W/m -0,3 C -1,6 C 11,3 km/h (2 Bft) 100,00 %
16.03.2016 07:59 0,4 C 95 % 1025,1 hPa 0,0 l/m 9,6 km/h (2 Bft) O-NO 61 0 min 0,000 mm 0,0 UV-I 36 W/m -0,3 C -2,7 C 14,5 km/h (3 Bft) 100,00 %
16.03.2016 08:00 0,4 C 95 % 1025,2 hPa 0,0 l/m 7,6 km/h (2 Bft) NO 44 0 min 0,000 mm 0,0 UV-I 37 W/m -0,3 C -0,8 C 9,7 km/h (2 Bft) 100,00 %
16.03.2016 08:01 0,4 C 95 % 1025,2 hPa 0,0 l/m 7,7 km/h (2 Bft) NO 53 0 min 0,000 mm 0,0 UV-I 36 W/m -0,3 C -0,9 C 11,3 km/h (2 Bft) 96,15 %
16.03.2016 08:02 0,4 C 95 % 1025,2 hPa 0,0 l/m 8,9 km/h (2 Bft) NO 54 0 min 0,000 mm 0,0 UV-I 33 W/m -0,3 C -2,1 C 12,9 km/h (3 Bft) 98,69 %
16.03.2016 08:03 0,5 C 95 % 1025,2 hPa 0,0 l/m 10,6 km/h (2 Bft) NO 55 0 min 0,000 mm 0,0 UV-I 33 W/m -0,2 C -3,4 C 14,5 km/h (3 Bft) 100,00 %
16.03.2016 08:04 0,5 C 95 % 1025,2 hPa 0,0 l/m 9,1 km/h (2 Bft) NO 52 0 min 0,000 mm 0,0 UV-I 36 W/m -0,2 C -2,1 C 12,9 km/h (3 Bft) 100,00 %
16.03.2016 08:05 0,5 C 95 % 1025,2 hPa 0,0 l/m 7,9 km/h (2 Bft) O-NO 63 0 min 0,000 mm 0,0 UV-I 38 W/m -0,2 C -1,0 C 9,7 km/h (2 Bft) 100,00 %
16.03.2016 08:06 0,5 C 95 % 1025,2 hPa 0,0 l/m 8,8 km/h (2 Bft) O-NO 57 0 min 0,000 mm 0,0 UV-I 41 W/m -0,2 C -1,9 C 11,3 km/h (2 Bft) 95,65 %
16.03.2016 08:07 0,5 C 95 % 1025,2 hPa 0,0 l/m 8,3 km/h (2 Bft) O-NO 71 0 min 0,000 mm 0,0 UV-I 43 W/m -0,2 C -1,4 C 11,3 km/h (2 Bft) 100,00 %
16.03.2016 08:08 0,5 C 95 % 1025,3 hPa 0,0 l/m 10,5 km/h (2 Bft) O-NO 71 0 min 0,000 mm 0,0 UV-I 46 W/m -0,2 C -3,3 C 14,5 km/h (3 Bft) 100,00 %
16.03.2016 08:09 0,5 C 95 % 1025,2 hPa 0,0 l/m 10,1 km/h (2 Bft) O-NO 65 0 min 0,000 mm 0,0 UV-I 51 W/m -0,2 C -3,0 C 14,5 km/h (3 Bft) 96,30 %
16.03.2016 08:10 0,6 C 95 % 1025,2 hPa 0,0 l/m 11,1 km/h (2 Bft) NO 56 0 min 0,000 mm 0,0 UV-I 52 W/m -0,1 C -3,7 C 14,5 km/h (3 Bft) 96,15 %
16.03.2016 08:11 0,6 C 95 % 1025,2 hPa 0,0 l/m 13,4 km/h (3 Bft) O-NO 67 0 min 0,000 mm 0,0 UV-I 51 W/m -0,1 C -5,3 C 16,1 km/h (3 Bft) 100,00 %
16.03.2016 08:12 0,6 C 95 % 1025,2 hPa 0,0 l/m 11,8 km/h (2 Bft) O 84 0 min 0,000 mm 0,0 UV-I 47 W/m -0,1 C -4,2 C 14,5 km/h (3 Bft) 100,00 %
16.03.2016 08:13 0,6 C 95 % 1025,2 hPa 0,0 l/m 15,7 km/h (3 Bft) NO 51 0 min 0,000 mm 0,0 UV-I 42 W/m -0,1 C -6,7 C 19,3 km/h (3 Bft) 100,00 %
16.03.2016 08:14 0,6 C 95 % 1025,2 hPa 0,0 l/m 12,9 km/h (3 Bft) O-NO 73 0 min 0,000 mm 0,0 UV-I 40 W/m -0,1 C -4,9 C 16,1 km/h (3 Bft) 100,00 %
16.03.2016 08:15 0,6 C 95 % 1025,3 hPa 0,0 l/m 12,6 km/h (3 Bft) O-NO 68 0 min 0,000 mm 0,0 UV-I 37 W/m -0,1 C -4,7 C 16,1 km/h (3 Bft) 100,00 %
16.03.2016 08:16 0,6 C 95 % 1025,3 hPa 0,0 l/m 14,1 km/h (3 Bft) NO 44 0 min 0,000 mm 0,0 UV-I 38 W/m -0,1 C -5,7 C 17,7 km/h (3 Bft) 100,00 %
16.03.2016 08:17 0,6 C 95 % 1025,3 hPa 0,0 l/m 11,5 km/h (2 Bft) NO 51 0 min 0,000 mm 0,0 UV-I 40 W/m -0,1 C -3,9 C 16,1 km/h (3 Bft) 100,00 %
16.03.2016 08:18 0,6 C 95 % 1025,3 hPa 0,0 l/m 13,5 km/h (3 Bft) O-NO 65 0 min 0,000 mm 0,0 UV-I 38 W/m -0,1 C -5,3 C 16,1 km/h (3 Bft) 100,00 %
16.03.2016 08:19 0,6 C 94 % 1025,3 hPa 0,0 l/m 13,8 km/h (3 Bft) O 96 0 min 0,000 mm 0,0 UV-I 39 W/m -0,3 C -5,5 C 19,3 km/h (3 Bft) 100,00 %
16.03.2016 08:20 0,6 C 95 % 1025,3 hPa 0,0 l/m 12,5 km/h (3 Bft) O-NO 71 0 min 0,000 mm 0,0 UV-I 42 W/m -0,1 C -4,7 C 16,1 km/h (3 Bft) 100,00 %
16.03.2016 08:21 0,6 C 95 % 1025,3 hPa 0,0 l/m 13,0 km/h (3 Bft) O-NO 59 0 min 0,000 mm 0,0 UV-I 47 W/m -0,1 C -5,0 C 16,1 km/h (3 Bft) 100,00 %
16.03.2016 08:22 0,6 C 95 % 1025,3 hPa 0,0 l/m 10,1 km/h (2 Bft) NO 48 0 min 0,000 mm 0,0 UV-I 50 W/m -0,1 C -2,9 C 16,1 km/h (3 Bft) 100,00 %
16.03.2016 08:23 0,6 C 95 % 1025,3 hPa 0,0 l/m 16,3 km/h (3 Bft) O-NO 63 0 min 0,000 mm 0,0 UV-I 53 W/m -0,1 C -7,0 C 20,9 km/h (4 Bft) 100,00 %
16.03.2016 08:24 0,6 C 95 % 1025,4 hPa 0,0 l/m 14,6 km/h (3 Bft) NO 50 0 min 0,000 mm 0,0 UV-I 56 W/m -0,1 C -6,0 C 20,9 km/h (4 Bft) 95,65 %
16.03.2016 08:25 0,6 C 95 % 1025,4 hPa 0,0 l/m 9,3 km/h (2 Bft) NO 55 0 min 0,000 mm 0,0 UV-I 58 W/m -0,1 C -2,2 C 12,9 km/h (3 Bft) 100,00 %
16.03.2016 08:26 0,6 C 95 % 1025,4 hPa 0,0 l/m 10,9 km/h (2 Bft) NO 55 0 min 0,000 mm 0,0 UV-I 51 W/m -0,1 C -3,5 C 17,7 km/h (3 Bft) 100,00 %
16.03.2016 08:27 0,6 C 95 % 1025,4 hPa 0,0 l/m 13,6 km/h (3 Bft) O-NO 63 0 min 0,000 mm 0,0 UV-I 48 W/m -0,1 C -5,4 C 17,7 km/h (3 Bft) 100,00 %
16.03.2016 08:28 0,6 C 95 % 1025,4 hPa 0,0 l/m 12,7 km/h (3 Bft) NO 37 0 min 0,000 mm 0,0 UV-I 47 W/m -0,1 C -4,8 C 16,1 km/h (3 Bft) 83,33 %
16.03.2016 08:29 0,6 C 95 % 1025,4 hPa 0,0 l/m 13,9 km/h (3 Bft) O-NO 58 0 min 0,000 mm 0,0 UV-I 47 W/m -0,1 C -5,6 C 19,3 km/h (3 Bft) 96,88 %
16.03.2016 08:30 0,6 C 95 % 1025,4 hPa 0,0 l/m 13,0 km/h (3 Bft) O-NO 62 0 min 0,000 mm 0,0 UV-I 46 W/m -0,1 C -5,0 C 16,1 km/h (3 Bft) 96,30 %
16.03.2016 08:31 0,6 C 95 % 1025,4 hPa 0,0 l/m 12,9 km/h (3 Bft) O-NO 59 0 min 0,000 mm 0,0 UV-I 43 W/m -0,1 C -4,9 C 19,3 km/h (3 Bft) 100,00 %
16.03.2016 08:32 0,6 C 95 % 1025,4 hPa 0,0 l/m 15,1 km/h (3 Bft) O-NO 68 0 min 0,000 mm 0,0 UV-I 40 W/m -0,1 C -6,3 C 19,3 km/h (3 Bft) 96,67 %
16.03.2016 08:33 0,6 C 95 % 1025,4 hPa 0,0 l/m 10,8 km/h (2 Bft) NO 39 0 min 0,000 mm 0,0 UV-I 40 W/m -0,1 C -3,4 C 14,5 km/h (3 Bft) 100,00 %
16.03.2016 08:34 0,6 C 95 % 1025,5 hPa 0,0 l/m 12,1 km/h (2 Bft) O-NO 74 0 min 0,000 mm 0,0 UV-I 44 W/m -0,1 C -4,4 C 16,1 km/h (3 Bft) 95,83 %
16.03.2016 08:35 0,6 C 95 % 1025,5 hPa 0,0 l/m 13,0 km/h (3 Bft) NO 52 0 min 0,000 mm 0,0 UV-I 49 W/m -0,1 C -5,0 C 16,1 km/h (3 Bft) 96,15 %
16.03.2016 08:36 0,6 C 95 % 1025,4 hPa 0,0 l/m 11,6 km/h (2 Bft) O-NO 63 0 min 0,000 mm 0,0 UV-I 53 W/m -0,1 C -4,0 C 14,5 km/h (3 Bft) 100,00 %
16.03.2016 08:37 0,7 C 95 % 1025,5 hPa 0,0 l/m 11,5 km/h (2 Bft) O 87 0 min 0,000 mm 0,0 UV-I 58 W/m -0,0 C -3,8 C 17,7 km/h (3 Bft) 96,55 %
16.03.2016 08:38 0,7 C 95 % 1025,5 hPa 0,0 l/m 15,4 km/h (3 Bft) O-NO 63 0 min 0,000 mm 0,0 UV-I 64 W/m -0,0 C -6,4 C 20,9 km/h (4 Bft) 100,00 %
16.03.2016 08:39 0,7 C 95 % 1025,5 hPa 0,0 l/m 14,6 km/h (3 Bft) O-NO 66 0 min 0,000 mm 0,0 UV-I 69 W/m -0,0 C -5,9 C 20,9 km/h (4 Bft) 92,31 %
16.03.2016 08:40 0,7 C 95 % 1025,5 hPa 0,0 l/m 12,3 km/h (3 Bft) NO 55 0 min 0,000 mm 0,0 UV-I 68 W/m -0,0 C -4,4 C 16,1 km/h (3 Bft) 96,30 %
16.03.2016 08:41 0,7 C 95 % 1025,5 hPa 0,0 l/m 13,4 km/h (3 Bft) O-NO 76 0 min 0,000 mm 0,0 UV-I 71 W/m -0,0 C -5,1 C 17,7 km/h (3 Bft) 100,00 %
16.03.2016 08:42 0,7 C 95 % 1025,5 hPa 0,0 l/m 10,9 km/h (2 Bft) O-NO 59 0 min 0,000 mm 0,0 UV-I 81 W/m -0,0 C -3,4 C 17,7 km/h (3 Bft) 96,30 %
16.03.2016 08:43 0,7 C 95 % 1025,5 hPa 0,0 l/m 13,4 km/h (3 Bft) NO 56 0 min 0,000 mm 0,0 UV-I 90 W/m -0,0 C -5,1 C 17,7 km/h (3 Bft) 100,00 %
16.03.2016 08:44 0,7 C 95 % 1025,5 hPa 0,0 l/m 12,2 km/h (2 Bft) O-NO 65 0 min 0,000 mm 0,0 UV-I 100 W/m -0,0 C -4,3 C 16,1 km/h (3 Bft) 96,88 %
16.03.2016 08:45 0,7 C 94 % 1025,5 hPa 0,0 l/m 15,5 km/h (3 Bft) O-NO 63 0 min 0,000 mm 0,0 UV-I 98 W/m -0,2 C -6,4 C 19,3 km/h (3 Bft) 100,00 %
16.03.2016 08:46 0,7 C 94 % 1025,5 hPa 0,0 l/m 16,9 km/h (3 Bft) NO 51 0 min 0,000 mm 0,0 UV-I 101 W/m -0,2 C -7,2 C 20,9 km/h (4 Bft) 86,67 %
16.03.2016 08:47 0,7 C 94 % 1025,5 hPa 0,0 l/m 15,7 km/h (3 Bft) O-NO 66 0 min 0,000 mm 0,0 UV-I 114 W/m -0,2 C -6,5 C 20,9 km/h (4 Bft) 96,30 %
16.03.2016 08:48 0,8 C 94 % 1025,6 hPa 0,0 l/m 11,6 km/h (2 Bft) O-NO 63 0 min 0,000 mm 0,0 UV-I 131 W/m -0,1 C -3,8 C 17,7 km/h (3 Bft) 96,15 %
16.03.2016 08:49 0,8 C 94 % 1025,6 hPa 0,0 l/m 14,7 km/h (3 Bft) O-NO 57 0 min 0,000 mm 0,0 UV-I 136 W/m -0,1 C -5,8 C 22,5 km/h (4 Bft) 91,67 %
16.03.2016 08:50 0,8 C 94 % 1025,6 hPa 0,0 l/m 15,2 km/h (3 Bft) O-NO 57 0 min 0,000 mm 0,0 UV-I 149 W/m -0,1 C -6,1 C 19,3 km/h (3 Bft) 100,00 %
16.03.2016 08:51 0,8 C 94 % 1025,6 hPa 0,0 l/m 14,3 km/h (3 Bft) NO 56 0 min 0,000 mm 0,0 UV-I 140 W/m -0,1 C -5,6 C 16,1 km/h (3 Bft) 100,00 %
16.03.2016 08:52 0,8 C 94 % 1025,5 hPa 0,0 l/m 15,7 km/h (3 Bft) NO 54 0 min 0,000 mm 0,0 UV-I 139 W/m -0,1 C -6,4 C 19,3 km/h (3 Bft) 96,15 %
16.03.2016 08:53 0,8 C 94 % 1025,6 hPa 0,0 l/m 14,3 km/h (3 Bft) O-NO 69 0 min 0,000 mm 0,0 UV-I 136 W/m -0,1 C -5,6 C 19,3 km/h (3 Bft) 96,67 %
16.03.2016 08:54 0,8 C 94 % 1025,6 hPa 0,0 l/m 13,7 km/h (3 Bft) O-NO 77 0 min 0,000 mm 0,0 UV-I 137 W/m -0,1 C -5,2 C 22,5 km/h (4 Bft) 90,91 %
16.03.2016 08:55 0,8 C 94 % 1025,6 hPa 0,0 l/m 13,4 km/h (3 Bft) NO 41 0 min 0,000 mm 0,0 UV-I 131 W/m -0,1 C -5,0 C 17,7 km/h (3 Bft) 100,00 %
16.03.2016 08:56 0,8 C 94 % 1025,6 hPa 0,0 l/m 12,7 km/h (3 Bft) NO 46 0 min 0,000 mm 0,0 UV-I 131 W/m -0,1 C -4,6 C 16,1 km/h (3 Bft) 100,00 %
16.03.2016 08:57 0,8 C 94 % 1025,6 hPa 0,0 l/m 16,5 km/h (3 Bft) NO 49 0 min 0,000 mm 0,0 UV-I 127 W/m -0,1 C -6,9 C 20,9 km/h (4 Bft) 91,67 %
16.03.2016 08:58 0,8 C 94 % 1025,6 hPa 0,2 l/m 14,7 km/h (3 Bft) O-NO 57 0 min 0,000 mm 0,0 UV-I 125 W/m -0,1 C -5,8 C 19,3 km/h (3 Bft) 93,75 %
16.03.2016 08:59 0,8 C 94 % 1025,6 hPa 0,0 l/m 14,8 km/h (3 Bft) O-NO 64 0 min 0,000 mm 0,0 UV-I 126 W/m -0,1 C -5,9 C 17,7 km/h (3 Bft) 91,67 %
16.03.2016 09:00 0,8 C 94 % 1025,6 hPa 0,0 l/m 13,6 km/h (3 Bft) O-NO 71 0 min 0,025 mm 0,0 UV-I 123 W/m -0,1 C -5,2 C 16,1 km/h (3 Bft) 100,00 %
16.03.2016 09:01 0,8 C 94 % 1025,6 hPa 0,0 l/m 13,8 km/h (3 Bft) O-NO 58 0 min 0,000 mm 0,0 UV-I 116 W/m -0,1 C -5,3 C 19,3 km/h (3 Bft) 97,56 %
16.03.2016 09:02 0,8 C 94 % 1025,6 hPa 0,0 l/m 12,6 km/h (3 Bft) NO 47 0 min 0,000 mm 0,0 UV-I 113 W/m -0,1 C -4,5 C 19,3 km/h (3 Bft) 96,15 %
16.03.2016 09:03 0,8 C 94 % 1025,6 hPa 0,0 l/m 11,6 km/h (2 Bft) O-NO 69 0 min 0,000 mm 0,0 UV-I 113 W/m -0,1 C -3,8 C 19,3 km/h (3 Bft) 100,00 %
16.03.2016 09:04 0,8 C 94 % 1025,6 hPa 0,0 l/m 10,7 km/h (2 Bft) O-NO 65 0 min 0,000 mm 0,0 UV-I 113 W/m -0,1 C -3,1 C 17,7 km/h (3 Bft) 100,00 %
16.03.2016 09:05 0,8 C 94 % 1025,6 hPa 0,0 l/m 11,6 km/h (2 Bft) O-NO 74 0 min 0,000 mm 0,0 UV-I 112 W/m -0,1 C -3,8 C 16,1 km/h (3 Bft) 98,51 %
16.03.2016 09:06 0,8 C 94 % 1025,6 hPa 0,2 l/m 12,4 km/h (3 Bft) O-NO 65 0 min 0,000 mm 0,0 UV-I 119 W/m -0,1 C -4,4 C 16,1 km/h (3 Bft) 100,00 %
16.03.2016 09:07 0,8 C 94 % 1025,6 hPa 0,0 l/m 11,0 km/h (2 Bft) O-NO 64 0 min 0,000 mm 0,0 UV-I 116 W/m -0,1 C -3,3 C 16,1 km/h (3 Bft) 100,00 %
16.03.2016 09:08 0,8 C 94 % 1025,7 hPa 0,0 l/m 14,0 km/h (3 Bft) NO 56 0 min 0,000 mm 0,0 UV-I 99 W/m -0,1 C -5,4 C 17,7 km/h (3 Bft) 100,00 %
16.03.2016 09:09 0,8 C 94 % 1025,6 hPa 0,0 l/m 10,4 km/h (2 Bft) O-NO 57 0 min 0,000 mm 0,0 UV-I 98 W/m -0,1 C -2,9 C 14,5 km/h (3 Bft) 92,86 %
16.03.2016 09:10 0,8 C 94 % 1025,6 hPa 0,0 l/m 10,5 km/h (2 Bft) NO 38 0 min 0,000 mm 0,0 UV-I 93 W/m -0,1 C -3,0 C 16,1 km/h (3 Bft) 100,00 %
16.03.2016 09:11 0,8 C 94 % 1025,7 hPa 0,0 l/m 11,2 km/h (2 Bft) NO 51 0 min 0,000 mm 0,0 UV-I 90 W/m -0,1 C -3,5 C 16,1 km/h (3 Bft) 95,65 %
16.03.2016 09:12 0,8 C 94 % 1025,7 hPa 0,0 l/m 14,3 km/h (3 Bft) NO 54 0 min 0,000 mm 0,0 UV-I 85 W/m -0,1 C -5,6 C 17,7 km/h (3 Bft) 100,00 %
16.03.2016 09:13 0,8 C 94 % 1025,7 hPa 0,0 l/m 9,7 km/h (2 Bft) O-NO 69 0 min 0,000 mm 0,0 UV-I 88 W/m -0,1 C -2,3 C 14,5 km/h (3 Bft) 92,31 %
16.03.2016 09:14 0,8 C 94 % 1025,7 hPa 0,0 l/m 16,1 km/h (3 Bft) O-NO 63 0 min 0,000 mm 0,0 UV-I 86 W/m -0,1 C -6,6 C 19,3 km/h (3 Bft) 100,00 %
16.03.2016 09:15 0,8 C 94 % 1025,7 hPa 0,0 l/m 10,4 km/h (2 Bft) O-NO 70 0 min 0,000 mm 0,0 UV-I 90 W/m -0,1 C -2,9 C 12,9 km/h (3 Bft) 100,00 %
16.03.2016 09:16 0,8 C 94 % 1025,7 hPa 0,0 l/m 10,3 km/h (2 Bft) O-NO 63 0 min 0,000 mm 0,0 UV-I 103 W/m -0,1 C -2,8 C 16,1 km/h (3 Bft) 100,00 %
16.03.2016 09:17 0,8 C 94 % 1025,7 hPa 0,0 l/m 12,2 km/h (2 Bft) NO 44 0 min 0,000 mm 0,0 UV-I 110 W/m -0,1 C -4,2 C 17,7 km/h (3 Bft) 100,00 %
16.03.2016 09:18 0,8 C 94 % 1025,7 hPa 0,0 l/m 15,3 km/h (3 Bft) O-NO 59 0 min 0,000 mm 0,0 UV-I 111 W/m -0,1 C -6,2 C 19,3 km/h (3 Bft) 100,00 %
16.03.2016 09:19 0,8 C 94 % 1025,7 hPa 0,0 l/m 15,8 km/h (3 Bft) O-NO 74 0 min 0,000 mm 0,0 UV-I 111 W/m -0,1 C -6,5 C 20,9 km/h (4 Bft) 100,00 %
16.03.2016 09:20 0,8 C 94 % 1025,7 hPa 0,0 l/m 13,1 km/h (3 Bft) O-NO 68 0 min 0,000 mm 0,0 UV-I 110 W/m -0,1 C -4,8 C 17,7 km/h (3 Bft) 100,00 %
16.03.2016 09:21 0,8 C 94 % 1025,7 hPa 0,0 l/m 14,0 km/h (3 Bft) NO 41 0 min 0,000 mm 0,0 UV-I 120 W/m -0,1 C -5,4 C 17,7 km/h (3 Bft) 86,67 %
16.03.2016 09:22 0,8 C 94 % 1025,7 hPa 0,2 l/m 14,6 km/h (3 Bft) O-NO 74 0 min 0,000 mm 0,0 UV-I 142 W/m -0,1 C -5,8 C 17,7 km/h (3 Bft) 100,00 %
16.03.2016 09:23 0,9 C 94 % 1025,7 hPa 0,0 l/m 15,6 km/h (3 Bft) O-NO 67 0 min 0,000 mm 0,0 UV-I 143 W/m 0,0 C -6,2 C 19,3 km/h (3 Bft) 100,00 %
16.03.2016 09:24 0,9 C 94 % 1025,7 hPa 0,0 l/m 15,9 km/h (3 Bft) O-NO 58 0 min 0,000 mm 0,0 UV-I 148 W/m 0,0 C -6,4 C 19,3 km/h (3 Bft) 100,00 %
16.03.2016 09:25 0,9 C 94 % 1025,7 hPa 0,0 l/m 14,0 km/h (3 Bft) NO 46 0 min 0,000 mm 0,4 UV-I 173 W/m 0,0 C -5,3 C 19,3 km/h (3 Bft) 100,00 %
16.03.2016 09:26 0,9 C 94 % 1025,7 hPa 0,0 l/m 16,2 km/h (3 Bft) NO 46 0 min 0,000 mm 0,0 UV-I 151 W/m 0,0 C -6,6 C 19,3 km/h (3 Bft) 100,00 %
16.03.2016 09:27 0,9 C 94 % 1025,7 hPa 0,0 l/m 16,0 km/h (3 Bft) O-NO 68 0 min 0,000 mm 0,0 UV-I 147 W/m 0,0 C -6,5 C 20,9 km/h (4 Bft) 96,67 %
16.03.2016 09:28 0,9 C 94 % 1025,7 hPa 0,0 l/m 11,9 km/h (2 Bft) NO 52 0 min 0,000 mm 0,0 UV-I 138 W/m 0,0 C -3,9 C 16,1 km/h (3 Bft) 92,86 %
16.03.2016 09:29 0,9 C 94 % 1025,7 hPa 0,0 l/m 14,2 km/h (3 Bft) NO 55 0 min 0,000 mm 0,0 UV-I 132 W/m 0,0 C -5,4 C 16,1 km/h (3 Bft) 100,00 %
16.03.2016 09:30 0,9 C 94 % 1025,7 hPa 0,0 l/m 13,2 km/h (3 Bft) NO 51 0 min 0,000 mm 0,0 UV-I 131 W/m 0,0 C -4,8 C 17,7 km/h (3 Bft) 100,00 %
16.03.2016 09:31 0,9 C 94 % 1025,7 hPa 0,0 l/m 17,9 km/h (3 Bft) O-NO 57 0 min 0,000 mm 0,0 UV-I 116 W/m 0,0 C -7,5 C 24,1 km/h (4 Bft) 96,30 %
16.03.2016 09:32 0,9 C 94 % 1025,7 hPa 0,0 l/m 16,3 km/h (3 Bft) O-NO 70 0 min 0,000 mm 0,0 UV-I 124 W/m 0,0 C -6,6 C 19,3 km/h (3 Bft) 100,00 %
16.03.2016 09:33 0,9 C 94 % 1025,8 hPa 0,0 l/m 15,8 km/h (3 Bft) O-NO 59 0 min 0,000 mm 0,0 UV-I 127 W/m 0,0 C -6,4 C 17,7 km/h (3 Bft) 100,00 %
16.03.2016 09:34 0,9 C 94 % 1025,7 hPa 0,0 l/m 17,4 km/h (3 Bft) O-NO 59 0 min 0,000 mm 0,0 UV-I 131 W/m 0,0 C -7,2 C 22,5 km/h (4 Bft) 100,00 %
16.03.2016 09:35 0,9 C 94 % 1025,7 hPa 0,2 l/m 14,6 km/h (3 Bft) O-NO 69 0 min 0,000 mm 0,0 UV-I 135 W/m 0,0 C -5,7 C 19,3 km/h (3 Bft) 100,00 %
16.03.2016 09:36 1,0 C 94 % 1025,8 hPa 0,0 l/m 12,9 km/h (3 Bft) O 79 0 min 0,000 mm 0,4 UV-I 141 W/m 0,1 C -4,5 C 17,7 km/h (3 Bft) 100,00 %
16.03.2016 09:37 1,0 C 94 % 1025,8 hPa 0,0 l/m 19,4 km/h (3 Bft) NO 44 0 min 0,000 mm 0,5 UV-I 145 W/m 0,1 C -8,1 C 25,7 km/h (4 Bft) 100,00 %
16.03.2016 09:38 1,0 C 94 % 1025,8 hPa 0,0 l/m 17,2 km/h (3 Bft) NO 40 0 min 0,000 mm 0,0 UV-I 137 W/m 0,1 C -7,0 C 20,9 km/h (4 Bft) 100,00 %
16.03.2016 09:39 1,0 C 94 % 1025,7 hPa 0,0 l/m 14,4 km/h (3 Bft) O-NO 64 0 min 0,000 mm 0,0 UV-I 128 W/m 0,1 C -5,4 C 17,7 km/h (3 Bft) 100,00 %
16.03.2016 09:40 1,0 C 94 % 1025,8 hPa 0,0 l/m 18,1 km/h (3 Bft) O-NO 59 0 min 0,000 mm 0,0 UV-I 126 W/m 0,1 C -7,4 C 22,5 km/h (4 Bft) 100,00 %
16.03.2016 09:41 1,0 C 94 % 1025,8 hPa 0,0 l/m 17,1 km/h (3 Bft) NO 48 0 min 0,000 mm 0,0 UV-I 127 W/m 0,1 C -6,9 C 24,1 km/h (4 Bft) 100,00 %
16.03.2016 09:42 1,0 C 94 % 1025,8 hPa 0,0 l/m 16,5 km/h (3 Bft) O-NO 62 0 min 0,000 mm 0,0 UV-I 135 W/m 0,1 C -6,6 C 20,9 km/h (4 Bft) 96,15 %
16.03.2016 09:43 1,1 C 94 % 1025,8 hPa 0,0 l/m 16,3 km/h (3 Bft) NO 46 0 min 0,000 mm 0,4 UV-I 151 W/m 0,2 C -6,4 C 24,1 km/h (4 Bft) 100,00 %
16.03.2016 09:44 1,1 C 94 % 1025,9 hPa 0,0 l/m 17,1 km/h (3 Bft) NO 54 0 min 0,000 mm 0,5 UV-I 154 W/m 0,2 C -6,8 C 22,5 km/h (4 Bft) 100,00 %
16.03.2016 09:45 1,1 C 94 % 1025,8 hPa 0,0 l/m 18,9 km/h (3 Bft) O-NO 74 0 min 0,000 mm 0,5 UV-I 146 W/m 0,2 C -7,7 C 22,5 km/h (4 Bft) 100,00 %
16.03.2016 09:46 1,1 C 94 % 1025,9 hPa 0,0 l/m 18,2 km/h (3 Bft) NO 44 0 min 0,000 mm 0,2 UV-I 134 W/m 0,2 C -7,4 C 22,5 km/h (4 Bft) 100,00 %
16.03.2016 09:47 1,1 C 94 % 1025,8 hPa 0,0 l/m 15,5 km/h (3 Bft) NO 44 0 min 0,000 mm 0,4 UV-I 148 W/m 0,2 C -5,9 C 19,3 km/h (3 Bft) 100,00 %
16.03.2016 09:48 1,1 C 94 % 1025,9 hPa 0,0 l/m 17,4 km/h (3 Bft) NO 47 0 min 0,000 mm 0,6 UV-I 164 W/m 0,2 C -7,0 C 20,9 km/h (4 Bft) 100,00 %
16.03.2016 09:49 1,1 C 94 % 1025,9 hPa 0,0 l/m 16,5 km/h (3 Bft) NO 52 0 min 0,000 mm 0,6 UV-I 170 W/m 0,2 C -6,5 C 20,9 km/h (4 Bft) 100,00 %
16.03.2016 09:50 1,1 C 94 % 1025,9 hPa 0,0 l/m 17,6 km/h (3 Bft) O-NO 67 0 min 0,000 mm 0,5 UV-I 157 W/m 0,2 C -7,1 C 25,7 km/h (4 Bft) 100,00 %
16.03.2016 09:51 1,1 C 94 % 1025,9 hPa 0,0 l/m 19,1 km/h (3 Bft) N-NO 30 0 min 0,000 mm 0,3 UV-I 142 W/m 0,2 C -7,8 C 24,1 km/h (4 Bft) 100,00 %
16.03.2016 09:52 1,1 C 93 % 1025,9 hPa 0,0 l/m 23,9 km/h (4 Bft) NO 46 0 min 0,000 mm 0,3 UV-I 153 W/m 0,1 C -9,8 C 29,0 km/h (5 Bft) 100,00 %
16.03.2016 09:53 1,1 C 93 % 1025,9 hPa 0,0 l/m 19,7 km/h (3 Bft) O-NO 59 0 min 0,000 mm 0,5 UV-I 146 W/m 0,1 C -8,1 C 25,7 km/h (4 Bft) 100,00 %
16.03.2016 09:54 1,1 C 93 % 1026,0 hPa 0,0 l/m 20,0 km/h (4 Bft) O-NO 67 0 min 0,000 mm 0,5 UV-I 126 W/m 0,1 C -8,2 C 30,6 km/h (5 Bft) 100,00 %
16.03.2016 09:55 1,1 C 93 % 1026,0 hPa 0,0 l/m 17,5 km/h (3 Bft) O-NO 59 0 min 0,000 mm 0,5 UV-I 127 W/m 0,1 C -7,0 C 22,5 km/h (4 Bft) 100,00 %
16.03.2016 09:56 1,1 C 93 % 1026,0 hPa 0,0 l/m 13,5 km/h (3 Bft) NO 40 0 min 0,000 mm 0,4 UV-I 123 W/m 0,1 C -4,7 C 20,9 km/h (4 Bft) 100,00 %
16.03.2016 09:57 1,1 C 93 % 1026,0 hPa 0,0 l/m 14,4 km/h (3 Bft) O-NO 67 0 min 0,000 mm 0,0 UV-I 109 W/m 0,1 C -5,3 C 22,5 km/h (4 Bft) 100,00 %
16.03.2016 09:58 1,1 C 93 % 1026,0 hPa 0,2 l/m 17,0 km/h (3 Bft) NO 51 0 min 0,000 mm 0,2 UV-I 107 W/m 0,1 C -6,8 C 19,3 km/h (3 Bft) 100,00 %
16.03.2016 09:59 1,1 C 93 % 1026,1 hPa 0,0 l/m 17,2 km/h (3 Bft) NO 53 0 min 0,000 mm 0,5 UV-I 103 W/m 0,1 C -6,9 C 20,9 km/h (4 Bft) 96,55 %
16.03.2016 10:00 1,1 C 93 % 1026,1 hPa 0,0 l/m 16,6 km/h (3 Bft) O-NO 57 0 min 0,000 mm 0,1 UV-I 103 W/m 0,1 C -6,5 C 27,4 km/h (4 Bft) 96,30 %
16.03.2016 10:01 1,1 C 93 % 1026,0 hPa 0,0 l/m 23,3 km/h (4 Bft) O-NO 65 0 min 0,051 mm 0,5 UV-I 122 W/m 0,1 C -9,6 C 30,6 km/h (5 Bft) 100,00 %
16.03.2016 10:02 1,1 C 93 % 1026,0 hPa 0,0 l/m 22,5 km/h (4 Bft) O-NO 76 0 min 0,000 mm 0,5 UV-I 132 W/m 0,1 C -9,3 C 27,4 km/h (4 Bft) 100,00 %
16.03.2016 10:03 1,1 C 93 % 1026,0 hPa 0,0 l/m 19,9 km/h (4 Bft) NO 56 0 min 0,000 mm 0,5 UV-I 127 W/m 0,1 C -8,2 C 24,1 km/h (4 Bft) 100,00 %
16.03.2016 10:04 1,2 C 93 % 1026,0 hPa 0,0 l/m 16,4 km/h (3 Bft) NO 56 0 min 0,000 mm 0,5 UV-I 126 W/m 0,2 C -6,3 C 20,9 km/h (4 Bft) 95,65 %
16.03.2016 10:05 1,2 C 93 % 1026,1 hPa 0,0 l/m 20,1 km/h (4 Bft) O-NO 59 0 min 0,000 mm 0,5 UV-I 141 W/m 0,2 C -8,1 C 25,7 km/h (4 Bft) 100,00 %
16.03.2016 10:06 1,2 C 93 % 1026,1 hPa 0,0 l/m 16,8 km/h (3 Bft) O-NO 76 0 min 0,000 mm 0,5 UV-I 152 W/m 0,2 C -6,5 C 22,5 km/h (4 Bft) 85,71 %
16.03.2016 10:07 1,2 C 93 % 1026,1 hPa 0,0 l/m 20,3 km/h (4 Bft) O-NO 59 0 min 0,000 mm 0,5 UV-I 158 W/m 0,2 C -8,2 C 27,4 km/h (4 Bft) 94,87 %
16.03.2016 10:08 1,2 C 93 % 1026,2 hPa 0,0 l/m 19,6 km/h (3 Bft) O-NO 59 0 min 0,000 mm 0,5 UV-I 154 W/m 0,2 C -7,9 C 24,1 km/h (4 Bft) 100,00 %
16.03.2016 10:09 1,2 C 93 % 1026,2 hPa 0,0 l/m 19,3 km/h (3 Bft) O-NO 69 0 min 0,000 mm 0,6 UV-I 165 W/m 0,2 C -7,8 C 24,1 km/h (4 Bft) 100,00 %
16.03.2016 10:10 1,2 C 93 % 1026,2 hPa 0,0 l/m 17,5 km/h (3 Bft) O-NO 71 0 min 0,000 mm 0,5 UV-I 149 W/m 0,2 C -6,9 C 19,3 km/h (3 Bft) 100,00 %
16.03.2016 10:11 1,2 C 93 % 1026,2 hPa 0,0 l/m 19,1 km/h (3 Bft) NO 54 0 min 0,000 mm 0,5 UV-I 126 W/m 0,2 C -7,7 C 22,5 km/h (4 Bft) 96,30 %
16.03.2016 10:12 1,2 C 93 % 1026,2 hPa 0,0 l/m 22,0 km/h (4 Bft) O-NO 73 0 min 0,000 mm 0,5 UV-I 125 W/m 0,2 C -8,9 C 29,0 km/h (5 Bft) 100,00 %
16.03.2016 10:13 1,2 C 93 % 1026,2 hPa 0,0 l/m 17,9 km/h (3 Bft) O-NO 58 0 min 0,000 mm 0,0 UV-I 109 W/m 0,2 C -7,1 C 24,1 km/h (4 Bft) 100,00 %
16.03.2016 10:14 1,2 C 93 % 1026,2 hPa 0,0 l/m 17,6 km/h (3 Bft) O-NO 63 0 min 0,000 mm 0,0 UV-I 85 W/m 0,2 C -6,9 C 20,9 km/h (4 Bft) 100,00 %
16.03.2016 10:15 1,2 C 93 % 1026,2 hPa 0,0 l/m 18,5 km/h (3 Bft) O-NO 70 0 min 0,000 mm 0,0 UV-I 65 W/m 0,2 C -7,4 C 24,1 km/h (4 Bft) 100,00 %
16.03.2016 10:16 1,2 C 93 % 1026,2 hPa 0,0 l/m 20,4 km/h (4 Bft) NO 54 0 min 0,000 mm 0,0 UV-I 56 W/m 0,2 C -8,3 C 27,4 km/h (4 Bft) 100,00 %
16.03.2016 10:17 1,2 C 93 % 1026,2 hPa 0,0 l/m 21,9 km/h (4 Bft) NO 53 0 min 0,000 mm 0,0 UV-I 64 W/m 0,2 C -8,9 C 27,4 km/h (4 Bft) 100,00 %
16.03.2016 10:18 1,2 C 93 % 1026,2 hPa 0,0 l/m 21,8 km/h (4 Bft) NO 45 0 min 0,000 mm 0,0 UV-I 81 W/m 0,2 C -8,9 C 27,4 km/h (4 Bft) 100,00 %
16.03.2016 10:19 1,2 C 93 % 1026,3 hPa 0,0 l/m 24,5 km/h (4 Bft) NO 40 0 min 0,000 mm 0,1 UV-I 107 W/m 0,2 C -9,9 C 30,6 km/h (5 Bft) 100,00 %
16.03.2016 10:20 1,2 C 93 % 1026,2 hPa 0,0 l/m 21,1 km/h (4 Bft) O-NO 63 0 min 0,000 mm 0,3 UV-I 120 W/m 0,2 C -8,6 C 27,4 km/h (4 Bft) 100,00 %
16.03.2016 10:21 1,2 C 93 % 1026,2 hPa 0,0 l/m 15,6 km/h (3 Bft) O-NO 63 0 min 0,000 mm 0,2 UV-I 124 W/m 0,2 C -5,9 C 20,9 km/h (4 Bft) 100,00 %
16.03.2016 10:22 1,2 C 93 % 1026,3 hPa 0,0 l/m 18,0 km/h (3 Bft) O-NO 69 0 min 0,000 mm 0,2 UV-I 124 W/m 0,2 C -7,1 C 22,5 km/h (4 Bft) 100,00 %
16.03.2016 10:23 1,2 C 93 % 1026,2 hPa 0,0 l/m 21,4 km/h (4 Bft) O-NO 71 0 min 0,000 mm 0,0 UV-I 121 W/m 0,2 C -8,7 C 25,7 km/h (4 Bft) 100,00 %
16.03.2016 10:24 1,2 C 93 % 1026,3 hPa 0,0 l/m 19,4 km/h (3 Bft) NO 40 0 min 0,000 mm 0,5 UV-I 131 W/m 0,2 C -7,8 C 22,5 km/h (4 Bft) 100,00 %
16.03.2016 10:25 1,2 C 93 % 1026,3 hPa 0,0 l/m 17,1 km/h (3 Bft) O 80 0 min 0,000 mm 0,5 UV-I 137 W/m 0,2 C -6,7 C 24,1 km/h (4 Bft) 96,15 %
16.03.2016 10:26 1,2 C 93 % 1026,2 hPa 0,0 l/m 17,3 km/h (3 Bft) O-NO 66 0 min 0,000 mm 0,5 UV-I 142 W/m 0,2 C -6,8 C 20,9 km/h (4 Bft) 96,30 %
16.03.2016 10:27 1,2 C 93 % 1026,3 hPa 0,0 l/m 16,9 km/h (3 Bft) NO 49 0 min 0,000 mm 0,5 UV-I 147 W/m 0,2 C -6,6 C 19,3 km/h (3 Bft) 100,00 %
16.03.2016 10:28 1,2 C 93 % 1026,3 hPa 0,0 l/m 19,1 km/h (3 Bft) O-NO 65 0 min 0,000 mm 0,6 UV-I 159 W/m 0,2 C -7,7 C 22,5 km/h (4 Bft) 100,00 %
16.03.2016 10:29 1,2 C 93 % 1026,3 hPa 0,2 l/m 21,6 km/h (4 Bft) O-NO 69 0 min 0,000 mm 0,6 UV-I 169 W/m 0,2 C -8,8 C 27,4 km/h (4 Bft) 100,00 %
16.03.2016 10:30 1,2 C 93 % 1026,2 hPa 0,0 l/m 19,2 km/h (3 Bft) O-NO 66 0 min 0,000 mm 0,5 UV-I 153 W/m 0,2 C -7,7 C 24,1 km/h (4 Bft) 96,67 %
16.03.2016 10:31 1,2 C 93 % 1026,3 hPa 0,0 l/m 19,5 km/h (3 Bft) NO 40 0 min 0,000 mm 0,6 UV-I 151 W/m 0,2 C -7,9 C 24,1 km/h (4 Bft) 100,00 %
16.03.2016 10:32 1,2 C 93 % 1026,2 hPa 0,0 l/m 16,0 km/h (3 Bft) O-NO 63 0 min 0,000 mm 0,5 UV-I 150 W/m 0,2 C -6,1 C 29,0 km/h (5 Bft) 95,83 %
16.03.2016 10:33 1,2 C 93 % 1026,2 hPa 0,0 l/m 26,1 km/h (4 Bft) NO 52 0 min 0,000 mm 0,6 UV-I 155 W/m 0,2 C -10,5 C 32,2 km/h (5 Bft) 100,00 %
16.03.2016 10:34 1,3 C 93 % 1026,3 hPa 0,0 l/m 23,5 km/h (4 Bft) NO 51 0 min 0,000 mm 0,7 UV-I 165 W/m 0,3 C -9,4 C 29,0 km/h (5 Bft) 95,83 %
16.03.2016 10:35 1,3 C 93 % 1026,2 hPa 0,0 l/m 21,7 km/h (4 Bft) NO 49 0 min 0,000 mm 0,8 UV-I 199 W/m 0,3 C -8,7 C 27,4 km/h (4 Bft) 100,00 %
16.03.2016 10:36 1,3 C 93 % 1026,2 hPa 0,0 l/m 20,9 km/h (4 Bft) NO 40 0 min 0,000 mm 0,7 UV-I 181 W/m 0,3 C -8,3 C 25,7 km/h (4 Bft) 95,83 %
16.03.2016 10:37 1,3 C 93 % 1026,2 hPa 0,0 l/m 19,2 km/h (3 Bft) NO 46 0 min 0,000 mm 0,7 UV-I 194 W/m 0,3 C -7,6 C 24,1 km/h (4 Bft) 91,30 %
16.03.2016 10:38 1,3 C 93 % 1026,2 hPa 0,0 l/m 23,1 km/h (4 Bft) O-NO 78 0 min 0,000 mm 0,8 UV-I 210 W/m 0,3 C -9,2 C 30,6 km/h (5 Bft) 100,00 %
16.03.2016 10:39 1,3 C 93 % 1026,2 hPa 0,0 l/m 21,3 km/h (4 Bft) NO 55 0 min 0,000 mm 0,8 UV-I 213 W/m 0,3 C -8,5 C 27,4 km/h (4 Bft) 92,31 %
16.03.2016 10:40 1,3 C 93 % 1026,3 hPa 0,0 l/m 21,9 km/h (4 Bft) NO 39 0 min 0,000 mm 0,8 UV-I 214 W/m 0,3 C -8,8 C 30,6 km/h (5 Bft) 100,00 %
16.03.2016 10:41 1,3 C 93 % 1026,2 hPa 0,0 l/m 29,6 km/h (5 Bft) O-NO 58 0 min 0,000 mm 0,8 UV-I 213 W/m 0,3 C -11,5 C 37,0 km/h (5 Bft) 93,33 %
16.03.2016 10:42 1,3 C 93 % 1026,2 hPa 0,0 l/m 28,7 km/h (4 Bft) NO 47 0 min 0,000 mm 0,8 UV-I 207 W/m 0,3 C -11,2 C 37,0 km/h (5 Bft) 93,10 %
16.03.2016 10:43 1,3 C 92 % 1026,2 hPa 0,0 l/m 27,3 km/h (4 Bft) O-NO 65 0 min 0,000 mm 0,8 UV-I 210 W/m 0,1 C -10,7 C 32,2 km/h (5 Bft) 100,00 %
16.03.2016 10:44 1,3 C 92 % 1026,2 hPa 0,0 l/m 21,8 km/h (4 Bft) NO 55 0 min 0,000 mm 0,8 UV-I 243 W/m 0,1 C -8,7 C 29,0 km/h (5 Bft) 93,33 %
16.03.2016 10:45 1,3 C 92 % 1026,3 hPa 0,0 l/m 27,1 km/h (4 Bft) NO 45 0 min 0,000 mm 0,9 UV-I 282 W/m 0,1 C -10,7 C 35,4 km/h (5 Bft) 100,00 %
16.03.2016 10:46 1,4 C 92 % 1026,1 hPa 0,0 l/m 27,6 km/h (4 Bft) O-NO 59 1 min 0,000 mm 1,1 UV-I 349 W/m 0,2 C -10,7 C 35,4 km/h (5 Bft) 96,15 %
16.03.2016 10:47 1,4 C 92 % 1026,2 hPa 0,0 l/m 23,4 km/h (4 Bft) O-NO 62 0 min 0,000 mm 1,1 UV-I 325 W/m 0,2 C -9,2 C 27,4 km/h (4 Bft) 100,00 %
16.03.2016 10:48 1,4 C 92 % 1026,3 hPa 0,0 l/m 24,3 km/h (4 Bft) O-NO 62 0 min 0,000 mm 1,1 UV-I 304 W/m 0,2 C -9,6 C 33,8 km/h (5 Bft) 96,15 %
16.03.2016 10:49 1,4 C 92 % 1026,2 hPa 0,0 l/m 26,2 km/h (4 Bft) O-NO 67 0 min 0,000 mm 1,2 UV-I 310 W/m 0,2 C -10,2 C 32,2 km/h (5 Bft) 100,00 %
16.03.2016 10:50 1,4 C 91 % 1026,1 hPa 0,0 l/m 25,7 km/h (4 Bft) NO 54 0 min 0,000 mm 1,2 UV-I 293 W/m 0,1 C -10,1 C 32,2 km/h (5 Bft) 95,65 %
16.03.2016 10:51 1,4 C 91 % 1026,2 hPa 0,0 l/m 27,4 km/h (4 Bft) NO 48 0 min 0,000 mm 1,3 UV-I 297 W/m 0,1 C -10,6 C 33,8 km/h (5 Bft) 96,30 %
16.03.2016 10:52 1,5 C 91 % 1026,2 hPa 0,0 l/m 25,1 km/h (4 Bft) O-NO 63 0 min 0,000 mm 1,3 UV-I 301 W/m 0,2 C -9,7 C 32,2 km/h (5 Bft) 94,12 %
16.03.2016 10:53 1,5 C 91 % 1026,2 hPa 0,2 l/m 24,2 km/h (4 Bft) NO 50 0 min 0,000 mm 1,2 UV-I 299 W/m 0,2 C -9,4 C 32,2 km/h (5 Bft) 96,67 %
16.03.2016 10:54 1,5 C 91 % 1026,2 hPa 0,0 l/m 25,5 km/h (4 Bft) O-NO 77 0 min 0,000 mm 1,2 UV-I 266 W/m 0,2 C -9,9 C 32,2 km/h (5 Bft) 100,00 %
16.03.2016 10:55 1,6 C 91 % 1026,2 hPa 0,0 l/m 22,9 km/h (4 Bft) NO 36 0 min 0,000 mm 1,2 UV-I 281 W/m 0,3 C -8,8 C 27,4 km/h (4 Bft) 96,30 %
16.03.2016 10:56 1,6 C 91 % 1026,2 hPa 0,0 l/m 28,6 km/h (4 Bft) NO 55 0 min 0,000 mm 1,3 UV-I 327 W/m 0,3 C -10,7 C 37,0 km/h (5 Bft) 96,15 %
16.03.2016 10:57 1,6 C 91 % 1026,2 hPa 0,0 l/m 30,7 km/h (5 Bft) NO 55 1 min 0,000 mm 1,4 UV-I 394 W/m 0,3 C -11,4 C 35,4 km/h (5 Bft) 96,67 %
16.03.2016 10:58 1,6 C 91 % 1026,2 hPa 0,0 l/m 25,7 km/h (4 Bft) O-NO 61 1 min 0,000 mm 1,5 UV-I 446 W/m 0,3 C -9,8 C 30,6 km/h (5 Bft) 100,00 %
16.03.2016 10:59 1,7 C 91 % 1026,2 hPa 0,0 l/m 22,9 km/h (4 Bft) O-NO 77 1 min 0,000 mm 1,8 UV-I 441 W/m 0,4 C -8,6 C 29,0 km/h (5 Bft) 92,31 %
16.03.2016 11:00 1,7 C 91 % 1026,2 hPa 0,0 l/m 22,0 km/h (4 Bft) NO 38 1 min 0,076 mm 1,8 UV-I 406 W/m 0,4 C -8,3 C 25,7 km/h (4 Bft) 96,55 %
16.03.2016 11:01 1,7 C 91 % 1026,2 hPa 0,0 l/m 21,7 km/h (4 Bft) O-NO 67 1 min 0,000 mm 1,8 UV-I 342 W/m 0,4 C -8,2 C 30,6 km/h (5 Bft) 100,00 %
16.03.2016 11:02 1,8 C 91 % 1026,2 hPa 0,0 l/m 21,1 km/h (4 Bft) NO 34 0 min 0,000 mm 1,8 UV-I 278 W/m 0,5 C -7,8 C 29,0 km/h (5 Bft) 100,00 %
16.03.2016 11:03 1,8 C 91 % 1026,1 hPa 0,2 l/m 28,9 km/h (5 Bft) O-NO 59 0 min 0,000 mm 1,9 UV-I 278 W/m 0,5 C -10,6 C 41,8 km/h (6 Bft) 100,00 %
16.03.2016 11:04 1,8 C 91 % 1026,1 hPa 0,0 l/m 31,0 km/h (5 Bft) O-NO 58 0 min 0,000 mm 1,5 UV-I 313 W/m 0,5 C -11,2 C 40,2 km/h (6 Bft) 100,00 %
16.03.2016 11:05 1,8 C 90 % 1026,1 hPa 0,0 l/m 30,0 km/h (5 Bft) O-NO 57 1 min 0,000 mm 1,9 UV-I 381 W/m 0,3 C -10,9 C 41,8 km/h (6 Bft) 100,00 %
16.03.2016 11:06 1,8 C 90 % 1026,1 hPa 0,0 l/m 28,5 km/h (4 Bft) O-NO 62 1 min 0,000 mm 1,5 UV-I 345 W/m 0,3 C -10,4 C 33,8 km/h (5 Bft) 98,49 %
16.03.2016 11:07 1,8 C 90 % 1026,2 hPa 0,0 l/m 33,2 km/h (5 Bft) O-NO 63 0 min 0,000 mm 1,5 UV-I 278 W/m 0,3 C -11,7 C 40,2 km/h (6 Bft) 100,00 %
16.03.2016 11:08 1,8 C 90 % 1026,2 hPa 0,0 l/m 30,5 km/h (5 Bft) O-NO 60 0 min 0,000 mm 1,4 UV-I 258 W/m 0,3 C -11,0 C 38,6 km/h (5 Bft) 96,30 %
16.03.2016 11:09 1,8 C 90 % 1026,1 hPa 0,0 l/m 29,9 km/h (5 Bft) NO 53 0 min 0,000 mm 1,4 UV-I 241 W/m 0,3 C -10,8 C 37,0 km/h (5 Bft) 100,00 %
16.03.2016 11:10 1,8 C 90 % 1026,2 hPa 0,0 l/m 30,5 km/h (5 Bft) NO 42 0 min 0,000 mm 1,5 UV-I 310 W/m 0,3 C -11,0 C 38,6 km/h (5 Bft) 100,00 %
16.03.2016 11:11 1,8 C 90 % 1026,2 hPa 0,0 l/m 30,8 km/h (5 Bft) NO 42 0 min 0,000 mm 1,7 UV-I 267 W/m 0,3 C -11,1 C 35,4 km/h (5 Bft) 100,00 %
16.03.2016 11:12 1,8 C 90 % 1026,2 hPa 0,0 l/m 31,3 km/h (5 Bft) NO 53 0 min 0,000 mm 1,9 UV-I 339 W/m 0,3 C -11,2 C 38,6 km/h (5 Bft) 93,33 %
16.03.2016 11:13 1,8 C 90 % 1026,2 hPa 0,0 l/m 27,6 km/h (4 Bft) O-NO 59 1 min 0,000 mm 1,5 UV-I 366 W/m 0,3 C -10,1 C 32,2 km/h (5 Bft) 95,65 %
16.03.2016 11:14 1,8 C 90 % 1026,2 hPa 0,0 l/m 24,1 km/h (4 Bft) NO 46 0 min 0,000 mm 1,3 UV-I 285 W/m 0,3 C -9,0 C 29,0 km/h (5 Bft) 100,00 %
16.03.2016 11:15 1,8 C 90 % 1026,3 hPa 0,0 l/m 24,2 km/h (4 Bft) O 81 0 min 0,000 mm 1,5 UV-I 278 W/m 0,3 C -9,0 C 29,0 km/h (5 Bft) 100,00 %
16.03.2016 11:16 1,8 C 90 % 1026,2 hPa 0,0 l/m 30,9 km/h (5 Bft) O-NO 74 0 min 0,000 mm 1,4 UV-I 302 W/m 0,3 C -11,1 C 38,6 km/h (5 Bft) 100,00 %
16.03.2016 11:17 1,8 C 89 % 1026,2 hPa 0,0 l/m 30,8 km/h (5 Bft) O-NO 61 1 min 0,000 mm 1,4 UV-I 362 W/m 0,2 C -11,1 C 40,2 km/h (6 Bft) 100,00 %
16.03.2016 11:18 1,8 C 89 % 1026,2 hPa 0,0 l/m 32,5 km/h (5 Bft) NO 44 0 min 0,000 mm 1,5 UV-I 310 W/m 0,2 C -11,6 C 45,1 km/h (6 Bft) 100,00 %
16.03.2016 11:19 1,8 C 89 % 1026,3 hPa 0,0 l/m 31,9 km/h (5 Bft) O-NO 64 0 min 0,000 mm 1,5 UV-I 347 W/m 0,2 C -11,4 C 38,6 km/h (5 Bft) 100,00 %
16.03.2016 11:20 1,8 C 89 % 1026,3 hPa 0,0 l/m 30,8 km/h (5 Bft) O-NO 63 1 min 0,000 mm 1,6 UV-I 405 W/m 0,2 C -11,1 C 37,0 km/h (5 Bft) 100,00 %
16.03.2016 11:21 1,8 C 89 % 1026,4 hPa 0,0 l/m 32,0 km/h (5 Bft) O-NO 70 1 min 0,000 mm 1,6 UV-I 415 W/m 0,2 C -11,4 C 38,6 km/h (5 Bft) 100,00 %
16.03.2016 11:22 1,9 C 89 % 1026,3 hPa 0,0 l/m 28,9 km/h (5 Bft) NO 40 1 min 0,000 mm 2,0 UV-I 373 W/m 0,3 C -10,4 C 38,6 km/h (5 Bft) 93,33 %
16.03.2016 11:23 1,9 C 89 % 1026,3 hPa 0,2 l/m 29,0 km/h (5 Bft) O-NO 64 1 min 0,000 mm 2,3 UV-I 470 W/m 0,3 C -10,4 C 35,4 km/h (5 Bft) 96,55 %
16.03.2016 11:24 2,0 C 89 % 1026,3 hPa 0,0 l/m 22,9 km/h (4 Bft) O-NO 67 1 min 0,000 mm 2,3 UV-I 828 W/m 0,4 C -8,2 C 29,0 km/h (5 Bft) 100,00 %
16.03.2016 11:25 2,0 C 89 % 1026,4 hPa 0,0 l/m 25,1 km/h (4 Bft) O-NO 61 1 min 0,000 mm 1,7 UV-I 763 W/m 0,4 C -9,0 C 35,4 km/h (5 Bft) 100,00 %
16.03.2016 11:26 2,0 C 89 % 1026,3 hPa 0,0 l/m 27,3 km/h (4 Bft) NO 55 1 min 0,000 mm 1,5 UV-I 422 W/m 0,4 C -9,8 C 38,6 km/h (5 Bft) 100,00 %
16.03.2016 11:27 2,0 C 89 % 1026,3 hPa 0,0 l/m 30,7 km/h (5 Bft) N-NO 30 0 min 0,000 mm 1,5 UV-I 212 W/m 0,4 C -10,8 C 38,6 km/h (5 Bft) 100,00 %
16.03.2016 11:28 1,9 C 88 % 1026,2 hPa 0,0 l/m 32,5 km/h (5 Bft) O-NO 57 0 min 0,000 mm 1,5 UV-I 207 W/m 0,1 C -11,4 C 40,2 km/h (6 Bft) 100,00 %
16.03.2016 11:29 1,9 C 88 % 1026,2 hPa 0,2 l/m 32,4 km/h (5 Bft) O-NO 63 0 min 0,000 mm 1,6 UV-I 208 W/m 0,1 C -11,4 C 40,2 km/h (6 Bft) 100,00 %
16.03.2016 11:30 1,9 C 88 % 1026,2 hPa 0,0 l/m 30,4 km/h (5 Bft) O-NO 65 0 min 0,000 mm 2,1 UV-I 213 W/m 0,1 C -10,8 C 40,2 km/h (6 Bft) 100,00 %
16.03.2016 11:31 1,9 C 88 % 1026,2 hPa 0,0 l/m 29,2 km/h (5 Bft) O-NO 67 1 min 0,000 mm 2,0 UV-I 497 W/m 0,1 C -10,5 C 38,6 km/h (5 Bft) 100,00 %
16.03.2016 11:32 1,9 C 88 % 1026,2 hPa 0,0 l/m 33,7 km/h (5 Bft) NO 51 1 min 0,000 mm 2,2 UV-I 662 W/m 0,1 C -11,7 C 41,8 km/h (6 Bft) 100,00 %
16.03.2016 11:33 2,0 C 89 % 1026,2 hPa 0,0 l/m 34,5 km/h (5 Bft) N-NO 32 1 min 0,000 mm 2,2 UV-I 682 W/m 0,4 C -11,8 C 43,5 km/h (6 Bft) 100,00 %
16.03.2016 11:34 2,0 C 88 % 1026,2 hPa 0,0 l/m 27,7 km/h (4 Bft) O-NO 76 1 min 0,000 mm 2,3 UV-I 717 W/m 0,2 C -9,9 C 38,6 km/h (5 Bft) 98,54 %
16.03.2016 11:35 2,1 C 89 % 1026,2 hPa 0,0 l/m 31,1 km/h (5 Bft) NO 51 1 min 0,000 mm 1,8 UV-I 579 W/m 0,5 C -10,8 C 40,2 km/h (6 Bft) 97,73 %
16.03.2016 11:36 2,1 C 88 % 1026,2 hPa 0,0 l/m 27,2 km/h (4 Bft) O-NO 71 1 min 0,000 mm 1,7 UV-I 371 W/m 0,3 C -9,6 C 37,0 km/h (5 Bft) 100,00 %
16.03.2016 11:37 2,1 C 89 % 1026,2 hPa 0,0 l/m 24,5 km/h (4 Bft) NO 51 1 min 0,000 mm 1,9 UV-I 371 W/m 0,5 C -8,7 C 35,4 km/h (5 Bft) 100,00 %
16.03.2016 11:38 2,1 C 89 % 1026,2 hPa 0,0 l/m 28,4 km/h (4 Bft) O-NO 72 1 min 0,000 mm 1,9 UV-I 371 W/m 0,5 C -10,0 C 38,6 km/h (5 Bft) 100,00 %
16.03.2016 11:39 2,1 C 89 % 1026,2 hPa 0,0 l/m 22,8 km/h (4 Bft) O-NO 62 0 min 0,000 mm 1,6 UV-I 281 W/m 0,5 C -8,1 C 27,4 km/h (4 Bft) 100,00 %
16.03.2016 11:40 2,1 C 89 % 1026,2 hPa 0,0 l/m 20,9 km/h (4 Bft) N-NO 32 0 min 0,000 mm 2,0 UV-I 271 W/m 0,5 C -7,3 C 29,0 km/h (5 Bft) 100,00 %
16.03.2016 11:41 2,1 C 89 % 1026,2 hPa 0,0 l/m 25,2 km/h (4 Bft) NO 54 0 min 0,000 mm 2,0 UV-I 271 W/m 0,5 C -8,9 C 37,0 km/h (5 Bft) 100,00 %
16.03.2016 11:42 2,2 C 89 % 1026,2 hPa 0,0 l/m 27,0 km/h (4 Bft) O-NO 74 0 min 0,000 mm 2,1 UV-I 271 W/m 0,6 C -9,4 C 32,2 km/h (5 Bft) 100,00 %
16.03.2016 11:43 2,2 C 88 % 1026,3 hPa 0,0 l/m 28,5 km/h (4 Bft) O-NO 72 1 min 0,000 mm 2,2 UV-I 552 W/m 0,4 C -9,9 C 33,8 km/h (5 Bft) 100,00 %
16.03.2016 11:44 2,2 C 88 % 1026,3 hPa 0,0 l/m 27,3 km/h (4 Bft) O-NO 73 1 min 0,000 mm 2,3 UV-I 716 W/m 0,4 C -9,5 C 33,8 km/h (5 Bft) 100,00 %
16.03.2016 11:45 2,3 C 88 % 1026,3 hPa 0,0 l/m 27,6 km/h (4 Bft) NO 42 1 min 0,000 mm 2,1 UV-I 744 W/m 0,5 C -9,5 C 37,0 km/h (5 Bft) 100,00 %
16.03.2016 11:46 2,3 C 88 % 1026,3 hPa 0,0 l/m 29,9 km/h (5 Bft) O 90 1 min 0,000 mm 2,3 UV-I 682 W/m 0,5 C -10,1 C 37,0 km/h (5 Bft) 100,00 %
16.03.2016 11:47 2,3 C 88 % 1026,3 hPa 0,0 l/m 30,7 km/h (5 Bft) O 86 1 min 0,000 mm 2,2 UV-I 684 W/m 0,5 C -10,4 C 38,6 km/h (5 Bft) 100,00 %
16.03.2016 11:48 2,3 C 88 % 1026,3 hPa 0,0 l/m 32,7 km/h (5 Bft) O-NO 65 1 min 0,000 mm 2,0 UV-I 698 W/m 0,5 C -10,9 C 41,8 km/h (6 Bft) 100,00 %
16.03.2016 11:49 2,3 C 87 % 1026,3 hPa 0,2 l/m 33,0 km/h (5 Bft) O 79 1 min 0,000 mm 1,9 UV-I 452 W/m 0,4 C -11,0 C 40,2 km/h (6 Bft) 100,00 %
16.03.2016 11:50 2,3 C 88 % 1026,3 hPa 0,0 l/m 32,1 km/h (5 Bft) O-NO 69 0 min 0,000 mm 2,2 UV-I 329 W/m 0,5 C -10,7 C 41,8 km/h (6 Bft) 100,00 %
16.03.2016 11:51 2,3 C 87 % 1026,2 hPa 0,0 l/m 34,3 km/h (5 Bft) NO 46 1 min 0,000 mm 2,3 UV-I 684 W/m 0,4 C -11,3 C 43,5 km/h (6 Bft) 100,00 %
16.03.2016 11:52 2,3 C 87 % 1026,3 hPa 0,0 l/m 32,4 km/h (5 Bft) NO 41 1 min 0,000 mm 1,6 UV-I 684 W/m 0,4 C -10,8 C 40,2 km/h (6 Bft) 100,00 %
16.03.2016 11:53 2,3 C 87 % 1026,3 hPa 0,0 l/m 26,8 km/h (4 Bft) O-NO 69 1 min 0,000 mm 2,3 UV-I 720 W/m 0,4 C -9,2 C 37,0 km/h (5 Bft) 94,12 %
16.03.2016 11:54 2,4 C 88 % 1026,4 hPa 0,0 l/m 27,5 km/h (4 Bft) NO 55 1 min 0,000 mm 2,4 UV-I 818 W/m 0,6 C -9,3 C 37,0 km/h (5 Bft) 100,00 %
16.03.2016 11:55 2,4 C 88 % 1026,4 hPa 0,0 l/m 29,1 km/h (5 Bft) O-NO 74 1 min 0,000 mm 2,4 UV-I 819 W/m 0,6 C -9,8 C 38,6 km/h (5 Bft) 100,00 %
16.03.2016 11:56 2,5 C 88 % 1026,4 hPa 0,0 l/m 31,9 km/h (5 Bft) NO 52 1 min 0,000 mm 2,2 UV-I 795 W/m 0,7 C -10,4 C 37,0 km/h (5 Bft) 100,00 %
16.03.2016 11:57 2,5 C 88 % 1026,4 hPa 0,0 l/m 28,1 km/h (4 Bft) NO 52 0 min 0,000 mm 1,7 UV-I 292 W/m 0,7 C -9,3 C 35,4 km/h (5 Bft) 100,00 %
16.03.2016 11:58 2,4 C 87 % 1026,5 hPa 0,0 l/m 24,2 km/h (4 Bft) NO 42 0 min 0,000 mm 1,6 UV-I 236 W/m 0,5 C -8,2 C 30,6 km/h (5 Bft) 100,00 %
16.03.2016 11:59 2,4 C 88 % 1026,5 hPa 0,0 l/m 28,6 km/h (4 Bft) O-NO 69 0 min 0,000 mm 1,5 UV-I 188 W/m 0,6 C -9,6 C 37,0 km/h (5 Bft) 100,00 %
16.03.2016 12:00 2,4 C 87 % 1026,5 hPa 0,0 l/m 29,9 km/h (5 Bft) NO 51 0 min 0,000 mm 1,6 UV-I 188 W/m 0,5 C -10,0 C 35,4 km/h (5 Bft) 96,15 %
16.03.2016 12:01 2,4 C 87 % 1026,5 hPa 0,2 l/m 34,1 km/h (5 Bft) O-NO 58 0 min 0,178 mm 2,1 UV-I 188 W/m 0,5 C -11,1 C 41,8 km/h (6 Bft) 100,00 %
16.03.2016 12:02 2,4 C 87 % 1026,4 hPa 0,0 l/m 29,9 km/h (5 Bft) NO 56 0 min 0,000 mm 1,9 UV-I 188 W/m 0,5 C -10,0 C 38,6 km/h (5 Bft) 92,59 %
16.03.2016 12:03 2,3 C 87 % 1026,4 hPa 0,0 l/m 26,7 km/h (4 Bft) NO 47 0 min 0,000 mm 1,6 UV-I 201 W/m 0,4 C -9,2 C 33,8 km/h (5 Bft) 100,00 %
16.03.2016 12:04 2,3 C 88 % 1026,4 hPa 0,0 l/m 22,9 km/h (4 Bft) O 80 0 min 0,000 mm 1,4 UV-I 155 W/m 0,5 C -7,8 C 30,6 km/h (5 Bft) 100,00 %
16.03.2016 12:05 2,3 C 88 % 1026,4 hPa 0,0 l/m 27,8 km/h (4 Bft) NO 46 0 min 0,000 mm 1,5 UV-I 162 W/m 0,5 C -9,5 C 35,4 km/h (5 Bft) 100,00 %
16.03.2016 12:06 2,3 C 88 % 1026,4 hPa 0,0 l/m 27,7 km/h (4 Bft) NO 49 0 min 0,000 mm 1,7 UV-I 204 W/m 0,5 C -9,5 C 33,8 km/h (5 Bft) 100,00 %
16.03.2016 12:07 2,3 C 88 % 1026,4 hPa 0,0 l/m 25,6 km/h (4 Bft) O-NO 64 0 min 0,000 mm 1,5 UV-I 207 W/m 0,5 C -8,8 C 35,4 km/h (5 Bft) 100,00 %
16.03.2016 12:08 2,3 C 88 % 1026,4 hPa 0,0 l/m 28,3 km/h (4 Bft) O-NO 67 0 min 0,000 mm 1,8 UV-I 197 W/m 0,5 C -9,7 C 35,4 km/h (5 Bft) 96,55 %
16.03.2016 12:09 2,3 C 88 % 1026,4 hPa 0,0 l/m 29,4 km/h (5 Bft) O-NO 70 0 min 0,000 mm 1,6 UV-I 233 W/m 0,5 C -10,0 C 37,0 km/h (5 Bft) 98,59 %
16.03.2016 12:10 2,3 C 88 % 1026,4 hPa 0,0 l/m 31,2 km/h (5 Bft) NO 51 1 min 0,000 mm 1,7 UV-I 387 W/m 0,5 C -10,5 C 40,2 km/h (6 Bft) 100,00 %
16.03.2016 12:11 2,4 C 89 % 1026,4 hPa 0,0 l/m 29,2 km/h (5 Bft) O-NO 64 1 min 0,000 mm 1,6 UV-I 387 W/m 0,8 C -9,8 C 38,6 km/h (5 Bft) 100,00 %
16.03.2016 12:12 2,4 C 88 % 1026,4 hPa 0,0 l/m 28,7 km/h (4 Bft) O-NO 77 0 min 0,000 mm 1,3 UV-I 260 W/m 0,6 C -9,7 C 38,6 km/h (5 Bft) 100,00 %
16.03.2016 12:13 2,4 C 88 % 1026,4 hPa 0,0 l/m 29,5 km/h (5 Bft) NO 53 0 min 0,000 mm 1,4 UV-I 237 W/m 0,6 C -9,9 C 38,6 km/h (5 Bft) 100,00 %
16.03.2016 12:14 2,4 C 87 % 1026,4 hPa 0,0 l/m 30,0 km/h (5 Bft) NO 56 0 min 0,000 mm 1,3 UV-I 217 W/m 0,5 C -10,0 C 35,4 km/h (5 Bft) 91,30 %
16.03.2016 12:15 2,4 C 87 % 1026,4 hPa 0,0 l/m 29,4 km/h (5 Bft) O-NO 62 0 min 0,000 mm 1,3 UV-I 247 W/m 0,5 C -9,9 C 41,8 km/h (6 Bft) 100,00 %
16.03.2016 12:16 2,4 C 87 % 1026,5 hPa 0,0 l/m 27,3 km/h (4 Bft) NO 50 0 min 0,000 mm 1,6 UV-I 291 W/m 0,5 C -9,2 C 32,2 km/h (5 Bft) 96,15 %
16.03.2016 12:17 2,4 C 88 % 1026,5 hPa 0,0 l/m 19,3 km/h (3 Bft) NO 52 0 min 0,000 mm 1,3 UV-I 273 W/m 0,6 C -6,2 C 24,1 km/h (4 Bft) 100,00 %
16.03.2016 12:18 2,4 C 88 % 1026,4 hPa 0,0 l/m 25,7 km/h (4 Bft) O-NO 65 0 min 0,000 mm 1,3 UV-I 247 W/m 0,6 C -8,7 C 30,6 km/h (5 Bft) 96,15 %
16.03.2016 12:19 2,4 C 89 % 1026,5 hPa 0,0 l/m 32,2 km/h (5 Bft) NO 44 0 min 0,000 mm 1,3 UV-I 245 W/m 0,8 C -10,6 C 40,2 km/h (6 Bft) 100,00 %
16.03.2016 12:20 2,4 C 88 % 1026,4 hPa 0,0 l/m 27,1 km/h (4 Bft) O-NO 67 0 min 0,000 mm 1,2 UV-I 214 W/m 0,6 C -9,2 C 32,2 km/h (5 Bft) 93,10 %
16.03.2016 12:21 2,4 C 88 % 1026,4 hPa 0,0 l/m 29,1 km/h (5 Bft) O-NO 65 0 min 0,000 mm 1,3 UV-I 239 W/m 0,6 C -9,8 C 41,8 km/h (6 Bft) 95,83 %
16.03.2016 12:22 2,5 C 88 % 1026,3 hPa 0,0 l/m 34,4 km/h (5 Bft) NO 38 0 min 0,000 mm 1,5 UV-I 294 W/m 0,7 C -11,0 C 40,2 km/h (6 Bft) 100,00 %
16.03.2016 12:23 2,5 C 88 % 1026,4 hPa 0,0 l/m 34,1 km/h (5 Bft) NO 46 0 min 0,000 mm 1,7 UV-I 320 W/m 0,7 C -11,0 C 40,2 km/h (6 Bft) 91,67 %
16.03.2016 12:24 2,5 C 88 % 1026,4 hPa 0,0 l/m 28,8 km/h (4 Bft) NO 51 0 min 0,000 mm 1,7 UV-I 320 W/m 0,7 C -9,5 C 38,6 km/h (5 Bft) 96,55 %
16.03.2016 12:25 2,6 C 88 % 1026,3 hPa 0,0 l/m 34,6 km/h (5 Bft) O-NO 66 0 min 0,000 mm 1,5 UV-I 290 W/m 0,8 C -10,9 C 45,1 km/h (6 Bft) 91,30 %
16.03.2016 12:26 2,5 C 88 % 1026,3 hPa 0,0 l/m 32,3 km/h (5 Bft) NO 36 0 min 0,000 mm 1,4 UV-I 274 W/m 0,7 C -10,5 C 43,5 km/h (6 Bft) 100,00 %
16.03.2016 12:27 2,6 C 88 % 1026,3 hPa 0,0 l/m 27,0 km/h (4 Bft) NO 40 0 min 0,000 mm 1,3 UV-I 177 W/m 0,8 C -8,9 C 32,2 km/h (5 Bft) 96,15 %
16.03.2016 12:28 2,6 C 88 % 1026,3 hPa 0,0 l/m 30,2 km/h (5 Bft) O-NO 69 0 min 0,000 mm 1,5 UV-I 200 W/m 0,8 C -9,8 C 40,2 km/h (6 Bft) 96,30 %
16.03.2016 12:29 2,6 C 88 % 1026,4 hPa 0,0 l/m 25,3 km/h (4 Bft) O-NO 65 0 min 0,000 mm 1,5 UV-I 183 W/m 0,8 C -8,3 C 37,0 km/h (5 Bft) 100,00 %
16.03.2016 12:30 2,6 C 88 % 1026,4 hPa 0,0 l/m 24,8 km/h (4 Bft) NO 38 0 min 0,000 mm 1,9 UV-I 179 W/m 0,8 C -8,1 C 33,8 km/h (5 Bft) 95,83 %
16.03.2016 12:31 2,7 C 88 % 1026,4 hPa 0,0 l/m 24,0 km/h (4 Bft) O-NO 67 0 min 0,000 mm 1,9 UV-I 179 W/m 0,9 C -7,7 C 30,6 km/h (5 Bft) 100,00 %
16.03.2016 12:32 2,7 C 88 % 1026,4 hPa 0,0 l/m 32,7 km/h (5 Bft) O 82 0 min 0,000 mm 1,5 UV-I 214 W/m 0,9 C -10,3 C 40,2 km/h (6 Bft) 91,67 %
16.03.2016 12:33 2,7 C 88 % 1026,4 hPa 0,0 l/m 28,8 km/h (4 Bft) NO 49 0 min 0,000 mm 1,5 UV-I 244 W/m 0,9 C -9,3 C 37,0 km/h (5 Bft) 100,00 %
16.03.2016 12:34 2,8 C 87 % 1026,3 hPa 0,0 l/m 30,8 km/h (5 Bft) O 85 0 min 0,000 mm 1,6 UV-I 288 W/m 0,9 C -9,7 C 45,1 km/h (6 Bft) 95,83 %
16.03.2016 12:35 2,8 C 87 % 1026,4 hPa 0,0 l/m 31,5 km/h (5 Bft) O-NO 67 1 min 0,000 mm 1,9 UV-I 362 W/m 0,9 C -9,9 C 41,8 km/h (6 Bft) 96,15 %
16.03.2016 12:36 2,9 C 87 % 1026,4 hPa 0,0 l/m 27,6 km/h (4 Bft) NO 44 1 min 0,000 mm 2,2 UV-I 362 W/m 1,0 C -8,6 C 38,6 km/h (5 Bft) 100,00 %
16.03.2016 12:37 3,1 C 87 % 1026,3 hPa 0,0 l/m 30,8 km/h (5 Bft) O 101 1 min 0,000 mm 2,2 UV-I 646 W/m 1,2 C -9,3 C 43,5 km/h (6 Bft) 96,15 %
16.03.2016 12:38 3,2 C 87 % 1026,4 hPa 0,0 l/m 29,1 km/h (5 Bft) O-NO 65 1 min 0,000 mm 2,3 UV-I 746 W/m 1,2 C -8,7 C 40,2 km/h (6 Bft) 98,51 %
16.03.2016 12:39 3,3 C 87 % 1026,3 hPa 0,0 l/m 30,7 km/h (5 Bft) O-NO 72 1 min 0,000 mm 2,3 UV-I 746 W/m 1,3 C -9,0 C 40,2 km/h (6 Bft) 97,56 %
16.03.2016 12:40 3,4 C 86 % 1026,3 hPa 0,0 l/m 25,7 km/h (4 Bft) O-NO 78 1 min 0,000 mm 2,2 UV-I 728 W/m 1,3 C -7,3 C 30,6 km/h (5 Bft) 100,00 %
16.03.2016 12:41 3,5 C 86 % 1026,4 hPa 0,0 l/m 31,5 km/h (5 Bft) O 96 1 min 0,000 mm 2,2 UV-I 720 W/m 1,4 C -8,9 C 37,0 km/h (5 Bft) 96,15 %
16.03.2016 12:42 3,6 C 86 % 1026,4 hPa 0,0 l/m 30,6 km/h (5 Bft) O-NO 63 1 min 0,000 mm 2,2 UV-I 704 W/m 1,5 C -8,5 C 43,5 km/h (6 Bft) 100,00 %
16.03.2016 12:43 3,6 C 85 % 1026,4 hPa 0,0 l/m 28,9 km/h (5 Bft) O-NO 63 1 min 0,000 mm 2,2 UV-I 689 W/m 1,3 C -8,0 C 40,2 km/h (6 Bft) 96,55 %
16.03.2016 12:44 3,7 C 85 % 1026,4 hPa 0,0 l/m 33,6 km/h (5 Bft) O-NO 59 1 min 0,000 mm 2,2 UV-I 696 W/m 1,4 C -9,1 C 41,8 km/h (6 Bft) 100,00 %
16.03.2016 12:45 3,7 C 85 % 1026,3 hPa 0,0 l/m 31,4 km/h (5 Bft) O-NO 73 1 min 0,000 mm 1,6 UV-I 696 W/m 1,4 C -8,6 C 38,6 km/h (5 Bft) 96,30 %
16.03.2016 12:46 3,7 C 84 % 1026,4 hPa 0,0 l/m 29,8 km/h (5 Bft) O-NO 57 1 min 0,000 mm 1,7 UV-I 700 W/m 1,3 C -8,1 C 41,8 km/h (6 Bft) 96,15 %
16.03.2016 12:47 3,7 C 84 % 1026,4 hPa 0,0 l/m 31,6 km/h (5 Bft) O-NO 59 1 min 0,000 mm 2,1 UV-I 705 W/m 1,3 C -8,6 C 40,2 km/h (6 Bft) 100,00 %
16.03.2016 12:48 3,7 C 84 % 1026,3 hPa 0,0 l/m 29,8 km/h (5 Bft) O-NO 72 1 min 0,000 mm 2,2 UV-I 705 W/m 1,3 C -8,1 C 38,6 km/h (5 Bft) 100,00 %
16.03.2016 12:49 3,7 C 84 % 1026,3 hPa 0,0 l/m 32,7 km/h (5 Bft) O-NO 72 1 min 0,000 mm 2,2 UV-I 694 W/m 1,3 C -8,9 C 43,5 km/h (6 Bft) 100,00 %
16.03.2016 12:50 3,7 C 84 % 1026,3 hPa 0,0 l/m 30,0 km/h (5 Bft) NO 56 1 min 0,000 mm 2,2 UV-I 665 W/m 1,3 C -8,2 C 40,2 km/h (6 Bft) 100,00 %
16.03.2016 12:51 3,7 C 84 % 1026,3 hPa 0,0 l/m 28,5 km/h (4 Bft) O-NO 78 1 min 0,000 mm 2,0 UV-I 677 W/m 1,3 C -7,8 C 38,6 km/h (5 Bft) 100,00 %
16.03.2016 12:52 3,8 C 85 % 1026,4 hPa 0,0 l/m 24,2 km/h (4 Bft) NO 45 1 min 0,000 mm 2,2 UV-I 691 W/m 1,5 C -6,3 C 33,8 km/h (5 Bft) 100,00 %
16.03.2016 12:53 3,8 C 84 % 1026,3 hPa 0,0 l/m 29,9 km/h (5 Bft) O-NO 78 1 min 0,000 mm 2,1 UV-I 740 W/m 1,4 C -8,0 C 33,8 km/h (5 Bft) 100,00 %
16.03.2016 12:54 3,8 C 84 % 1026,4 hPa 0,0 l/m 31,2 km/h (5 Bft) NO 36 1 min 0,000 mm 1,6 UV-I 740 W/m 1,4 C -8,4 C 40,2 km/h (6 Bft) 100,00 %
16.03.2016 12:55 3,8 C 84 % 1026,4 hPa 0,0 l/m 31,9 km/h (5 Bft) O-NO 68 1 min 0,000 mm 1,6 UV-I 740 W/m 1,4 C -8,6 C 40,2 km/h (6 Bft) 96,55 %
16.03.2016 12:56 3,7 C 84 % 1026,4 hPa 0,0 l/m 26,8 km/h (4 Bft) NO 55 1 min 0,000 mm 2,0 UV-I 740 W/m 1,3 C -7,3 C 33,8 km/h (5 Bft) 100,00 %
16.03.2016 12:57 3,7 C 84 % 1026,4 hPa 0,0 l/m 29,6 km/h (5 Bft) O-NO 69 1 min 0,000 mm 1,6 UV-I 791 W/m 1,3 C -8,1 C 37,0 km/h (5 Bft) 100,00 %
16.03.2016 12:58 3,7 C 85 % 1026,4 hPa 0,0 l/m 26,7 km/h (4 Bft) NO 41 1 min 0,000 mm 2,2 UV-I 782 W/m 1,4 C -7,2 C 35,4 km/h (5 Bft) 96,30 %
16.03.2016 12:59 3,7 C 85 % 1026,4 hPa 0,0 l/m 33,4 km/h (5 Bft) NO 40 1 min 0,000 mm 2,2 UV-I 749 W/m 1,4 C -9,1 C 41,8 km/h (6 Bft) 100,00 %
16.03.2016 13:00 3,8 C 84 % 1026,3 hPa 0,0 l/m 31,1 km/h (5 Bft) O-NO 72 1 min 0,203 mm 2,1 UV-I 708 W/m 1,4 C -8,4 C 38,6 km/h (5 Bft) 100,00 %
16.03.2016 13:01 3,8 C 84 % 1026,3 hPa 0,0 l/m 29,3 km/h (5 Bft) O-NO 71 1 min 0,000 mm 2,1 UV-I 658 W/m 1,4 C -7,9 C 38,6 km/h (5 Bft) 100,00 %
16.03.2016 13:02 3,8 C 84 % 1026,3 hPa 0,0 l/m 32,3 km/h (5 Bft) NO 39 1 min 0,000 mm 2,2 UV-I 615 W/m 1,4 C -8,7 C 41,8 km/h (6 Bft) 100,00 %
16.03.2016 13:03 3,9 C 85 % 1026,3 hPa 0,0 l/m 26,9 km/h (4 Bft) O-NO 58 1 min 0,000 mm 2,1 UV-I 668 W/m 1,6 C -7,0 C 33,8 km/h (5 Bft) 100,00 %
16.03.2016 13:04 3,9 C 84 % 1026,4 hPa 0,0 l/m 28,6 km/h (4 Bft) NO 53 1 min 0,000 mm 2,1 UV-I 656 W/m 1,4 C -7,5 C 37,0 km/h (5 Bft) 100,00 %
16.03.2016 13:05 4,0 C 84 % 1026,3 hPa 0,0 l/m 26,9 km/h (4 Bft) O-NO 61 1 min 0,000 mm 2,1 UV-I 649 W/m 1,5 C -6,9 C 33,8 km/h (5 Bft) 100,00 %
16.03.2016 13:06 4,1 C 84 % 1026,3 hPa 0,0 l/m 28,4 km/h (4 Bft) O-NO 63 1 min 0,000 mm 2,1 UV-I 656 W/m 1,6 C -7,2 C 37,0 km/h (5 Bft) 100,00 %
16.03.2016 13:07 4,2 C 84 % 1026,3 hPa 0,0 l/m 25,7 km/h (4 Bft) O-NO 74 1 min 0,000 mm 2,1 UV-I 636 W/m 1,7 C -6,3 C 33,8 km/h (5 Bft) 100,00 %
16.03.2016 13:08 4,2 C 84 % 1026,3 hPa 0,0 l/m 25,7 km/h (4 Bft) O-NO 67 1 min 0,000 mm 2,0 UV-I 638 W/m 1,7 C -6,3 C 37,0 km/h (5 Bft) 96,67 %
16.03.2016 13:09 4,3 C 85 % 1026,3 hPa 0,0 l/m 26,1 km/h (4 Bft) O-NO 76 1 min 0,000 mm 2,1 UV-I 643 W/m 2,0 C -6,2 C 32,2 km/h (5 Bft) 100,00 %
16.03.2016 13:10 4,3 C 85 % 1026,3 hPa 0,0 l/m 25,6 km/h (4 Bft) O-NO 69 1 min 0,000 mm 2,1 UV-I 633 W/m 2,0 C -6,1 C 30,6 km/h (5 Bft) 100,00 %
16.03.2016 13:11 4,4 C 85 % 1026,3 hPa 0,0 l/m 23,0 km/h (4 Bft) O-NO 76 1 min 0,000 mm 2,0 UV-I 629 W/m 2,1 C -5,1 C 29,0 km/h (5 Bft) 100,00 %
16.03.2016 13:12 4,6 C 85 % 1026,3 hPa 0,0 l/m 20,8 km/h (4 Bft) O-NO 60 1 min 0,000 mm 2,0 UV-I 636 W/m 2,3 C -4,0 C 25,7 km/h (4 Bft) 100,00 %
16.03.2016 13:13 4,7 C 86 % 1026,3 hPa 0,0 l/m 18,9 km/h (3 Bft) O-NO 67 1 min 0,000 mm 2,1 UV-I 642 W/m 2,6 C -3,1 C 37,0 km/h (5 Bft) 100,00 %
16.03.2016 13:14 4,7 C 84 % 1026,4 hPa 0,0 l/m 32,8 km/h (5 Bft) O-NO 62 1 min 0,000 mm 2,1 UV-I 643 W/m 2,2 C -7,5 C 53,1 km/h (7 Bft) 100,00 %
16.03.2016 13:15 4,7 C 81 % 1026,3 hPa 0,0 l/m 30,2 km/h (5 Bft) O-NO 69 1 min 0,000 mm 2,1 UV-I 642 W/m 1,7 C -6,8 C 40,2 km/h (6 Bft) 100,00 %
16.03.2016 13:16 4,7 C 81 % 1026,3 hPa 0,0 l/m 33,4 km/h (5 Bft) O-NO 63 1 min 0,000 mm 2,0 UV-I 636 W/m 1,7 C -7,6 C 46,7 km/h (6 Bft) 100,00 %
16.03.2016 13:17 4,7 C 81 % 1026,3 hPa 0,0 l/m 35,4 km/h (5 Bft) O-NO 68 1 min 0,000 mm 2,0 UV-I 634 W/m 1,7 C -8,1 C 41,8 km/h (6 Bft) 95,65 %
16.03.2016 13:18 4,7 C 81 % 1026,3 hPa 0,0 l/m 28,7 km/h (4 Bft) O-NO 65 1 min 0,000 mm 2,0 UV-I 629 W/m 1,7 C -6,4 C 38,6 km/h (5 Bft) 100,00 %
16.03.2016 13:19 4,7 C 82 % 1026,3 hPa 0,0 l/m 25,9 km/h (4 Bft) O 94 1 min 0,000 mm 2,0 UV-I 629 W/m 1,9 C -5,6 C 35,4 km/h (5 Bft) 100,00 %
16.03.2016 13:20 4,7 C 82 % 1026,3 hPa 0,0 l/m 30,1 km/h (5 Bft) NO 46 1 min 0,000 mm 2,0 UV-I 628 W/m 1,9 C -6,8 C 38,6 km/h (5 Bft) 96,15 %
16.03.2016 13:21 4,8 C 82 % 1026,3 hPa 0,0 l/m 27,8 km/h (4 Bft) O-NO 77 1 min 0,000 mm 2,0 UV-I 630 W/m 2,0 C -6,1 C 37,0 km/h (5 Bft) 100,00 %
16.03.2016 13:22 4,8 C 81 % 1026,3 hPa 0,0 l/m 23,8 km/h (4 Bft) O-NO 78 1 min 0,000 mm 2,0 UV-I 626 W/m 1,8 C -4,8 C 40,2 km/h (6 Bft) 100,00 %
16.03.2016 13:23 4,8 C 82 % 1026,3 hPa 0,0 l/m 26,6 km/h (4 Bft) O-NO 69 1 min 0,000 mm 2,0 UV-I 627 W/m 2,0 C -5,7 C 35,4 km/h (5 Bft) 93,33 %
16.03.2016 13:24 4,9 C 82 % 1026,3 hPa 0,0 l/m 24,7 km/h (4 Bft) O-NO 68 1 min 0,000 mm 2,0 UV-I 626 W/m 2,1 C -5,0 C 32,2 km/h (5 Bft) 100,00 %
16.03.2016 13:25 4,9 C 81 % 1026,3 hPa 0,0 l/m 31,6 km/h (5 Bft) O-NO 74 1 min 0,000 mm 2,0 UV-I 621 W/m 1,9 C -6,9 C 38,6 km/h (5 Bft) 100,00 %
16.03.2016 13:26 5,0 C 80 % 1026,2 hPa 0,0 l/m 27,8 km/h (4 Bft) O-NO 69 1 min 0,000 mm 1,9 UV-I 620 W/m 1,8 C -5,8 C 33,8 km/h (5 Bft) 100,00 %
16.03.2016 13:27 5,0 C 80 % 1026,3 hPa 0,0 l/m 25,9 km/h (4 Bft) NO 47 1 min 0,000 mm 1,9 UV-I 615 W/m 1,8 C -5,2 C 33,8 km/h (5 Bft) 100,00 %
16.03.2016 13:28 5,0 C 80 % 1026,3 hPa 0,0 l/m 25,0 km/h (4 Bft) O 88 1 min 0,000 mm 1,9 UV-I 620 W/m 1,8 C -4,9 C 30,6 km/h (5 Bft) 96,15 %
16.03.2016 13:29 5,1 C 81 % 1026,3 hPa 0,0 l/m 22,2 km/h (4 Bft) O-NO 76 1 min 0,000 mm 1,9 UV-I 617 W/m 2,1 C -3,9 C 37,0 km/h (5 Bft) 100,00 %
16.03.2016 13:30 5,1 C 81 % 1026,3 hPa 0,0 l/m 28,2 km/h (4 Bft) O-NO 57 1 min 0,000 mm 1,9 UV-I 607 W/m 2,1 C -5,8 C 38,6 km/h (5 Bft) 100,00 %
16.03.2016 13:31 5,1 C 79 % 1026,3 hPa 0,0 l/m 36,9 km/h (5 Bft) O-NO 58 1 min 0,000 mm 1,9 UV-I 600 W/m 1,8 C -7,8 C 43,5 km/h (6 Bft) 95,83 %
16.03.2016 13:32 5,1 C 79 % 1026,3 hPa 0,0 l/m 28,7 km/h (4 Bft) O-NO 63 1 min 0,000 mm 1,8 UV-I 563 W/m 1,8 C -5,9 C 35,4 km/h (5 Bft) 100,00 %
16.03.2016 13:33 5,1 C 79 % 1026,3 hPa 0,0 l/m 34,4 km/h (5 Bft) O-NO 60 1 min 0,000 mm 1,9 UV-I 604 W/m 1,8 C -7,3 C 49,9 km/h (6 Bft) 100,00 %
16.03.2016 13:34 5,1 C 77 % 1026,2 hPa 0,0 l/m 31,5 km/h (5 Bft) O-NO 61 1 min 0,000 mm 1,9 UV-I 612 W/m 1,4 C -6,6 C 37,0 km/h (5 Bft) 100,00 %
16.03.2016 13:35 5,1 C 78 % 1026,3 hPa 0,0 l/m 33,2 km/h (5 Bft) NO 49 1 min 0,000 mm 1,8 UV-I 602 W/m 1,6 C -7,0 C 41,8 km/h (6 Bft) 100,00 %
16.03.2016 13:36 5,1 C 78 % 1026,2 hPa 0,0 l/m 28,2 km/h (4 Bft) O-NO 67 1 min 0,000 mm 1,9 UV-I 605 W/m 1,6 C -5,8 C 35,4 km/h (5 Bft) 100,00 %
16.03.2016 13:37 5,1 C 79 % 1026,3 hPa 0,0 l/m 30,9 km/h (5 Bft) O-NO 76 1 min 0,000 mm 1,9 UV-I 607 W/m 1,8 C -6,5 C 38,6 km/h (5 Bft) 100,00 %
16.03.2016 13:38 5,2 C 79 % 1026,3 hPa 0,0 l/m 29,0 km/h (5 Bft) NO 55 1 min 0,000 mm 1,9 UV-I 606 W/m 1,9 C -5,8 C 40,2 km/h (6 Bft) 100,00 %
16.03.2016 13:39 5,2 C 79 % 1026,3 hPa 0,0 l/m 29,0 km/h (5 Bft) O-NO 67 1 min 0,000 mm 1,9 UV-I 608 W/m 1,9 C -5,8 C 37,0 km/h (5 Bft) 98,57 %
16.03.2016 13:40 5,2 C 78 % 1026,2 hPa 0,0 l/m 28,4 km/h (4 Bft) O-NO 69 1 min 0,000 mm 1,9 UV-I 606 W/m 1,7 C -5,7 C 38,6 km/h (5 Bft) 100,00 %
16.03.2016 13:41 5,2 C 78 % 1026,2 hPa 0,0 l/m 29,8 km/h (5 Bft) O 82 1 min 0,000 mm 1,9 UV-I 604 W/m 1,7 C -6,0 C 40,2 km/h (6 Bft) 100,00 %
16.03.2016 13:42 5,2 C 78 % 1026,2 hPa 0,0 l/m 32,3 km/h (5 Bft) O 94 1 min 0,000 mm 1,9 UV-I 609 W/m 1,7 C -6,7 C 38,6 km/h (5 Bft) 100,00 %
16.03.2016 13:43 5,3 C 78 % 1026,2 hPa 0,0 l/m 28,9 km/h (5 Bft) O-NO 78 1 min 0,000 mm 1,8 UV-I 608 W/m 1,8 C -5,7 C 37,0 km/h (5 Bft) 100,00 %
16.03.2016 13:44 5,3 C 78 % 1026,2 hPa 0,0 l/m 22,4 km/h (4 Bft) O-NO 65 1 min 0,000 mm 1,8 UV-I 602 W/m 1,8 C -3,7 C 30,6 km/h (5 Bft) 100,00 %
16.03.2016 13:45 5,4 C 78 % 1026,2 hPa 0,0 l/m 24,9 km/h (4 Bft) NO 53 1 min 0,000 mm 1,8 UV-I 602 W/m 1,9 C -4,4 C 30,6 km/h (5 Bft) 96,15 %
16.03.2016 13:46 5,4 C 79 % 1026,1 hPa 0,0 l/m 21,5 km/h (4 Bft) O-NO 63 1 min 0,000 mm 1,8 UV-I 600 W/m 2,1 C -3,2 C 29,0 km/h (5 Bft) 91,67 %
16.03.2016 13:47 5,6 C 79 % 1026,1 hPa 0,0 l/m 28,5 km/h (4 Bft) O-NO 62 1 min 0,000 mm 1,8 UV-I 596 W/m 2,3 C -5,1 C 33,8 km/h (5 Bft) 100,00 %
16.03.2016 13:48 5,7 C 78 % 1026,1 hPa 0,0 l/m 27,3 km/h (4 Bft) O-NO 60 1 min 0,000 mm 1,8 UV-I 593 W/m 2,2 C -4,7 C 33,8 km/h (5 Bft) 96,30 %
16.03.2016 13:49 5,7 C 78 % 1026,1 hPa 0,0 l/m 28,0 km/h (4 Bft) NO 54 1 min 0,000 mm 1,8 UV-I 594 W/m 2,2 C -4,9 C 35,4 km/h (5 Bft) 100,00 %
16.03.2016 13:50 5,7 C 78 % 1026,1 hPa 0,0 l/m 32,3 km/h (5 Bft) O-NO 57 1 min 0,000 mm 1,8 UV-I 593 W/m 2,2 C -5,9 C 41,8 km/h (6 Bft) 100,00 %
16.03.2016 13:51 5,7 C 78 % 1026,1 hPa 0,0 l/m 29,9 km/h (5 Bft) O-NO 61 1 min 0,000 mm 1,8 UV-I 592 W/m 2,2 C -5,4 C 33,8 km/h (5 Bft) 92,86 %
16.03.2016 13:52 5,8 C 75 % 1026,1 hPa 0,0 l/m 30,3 km/h (5 Bft) NO 51 1 min 0,000 mm 1,8 UV-I 590 W/m 1,7 C -5,3 C 38,6 km/h (5 Bft) 96,30 %
16.03.2016 13:53 5,8 C 76 % 1026,1 hPa 0,0 l/m 28,9 km/h (5 Bft) O-NO 73 1 min 0,000 mm 1,8 UV-I 591 W/m 1,9 C -5,0 C 37,0 km/h (5 Bft) 100,00 %
16.03.2016 13:54 5,8 C 77 % 1026,2 hPa 0,0 l/m 28,5 km/h (4 Bft) NO 50 1 min 0,000 mm 1,7 UV-I 587 W/m 2,1 C -4,9 C 38,6 km/h (5 Bft) 100,00 %
16.03.2016 13:55 5,8 C 76 % 1026,1 hPa 0,0 l/m 29,0 km/h (5 Bft) O-NO 59 1 min 0,000 mm 1,7 UV-I 585 W/m 1,9 C -5,0 C 41,8 km/h (6 Bft) 96,55 %
16.03.2016 13:56 5,8 C 75 % 1026,1 hPa 0,0 l/m 27,6 km/h (4 Bft) O-NO 61 1 min 0,000 mm 1,7 UV-I 581 W/m 1,7 C -4,6 C 33,8 km/h (5 Bft) 94,44 %
16.03.2016 13:57 5,9 C 77 % 1026,2 hPa 0,0 l/m 26,2 km/h (4 Bft) O 86 1 min 0,000 mm 1,7 UV-I 578 W/m 2,2 C -4,1 C 35,4 km/h (5 Bft) 100,00 %
16.03.2016 13:58 5,9 C 77 % 1026,0 hPa 0,0 l/m 29,4 km/h (5 Bft) O-NO 75 1 min 0,000 mm 1,7 UV-I 578 W/m 2,2 C -5,0 C 43,5 km/h (6 Bft) 93,33 %
16.03.2016 13:59 6,0 C 74 % 1026,2 hPa 0,0 l/m 32,1 km/h (5 Bft) O-NO 63 1 min 0,000 mm 1,7 UV-I 572 W/m 1,7 C -5,5 C 38,6 km/h (5 Bft) 100,00 %
16.03.2016 14:00 5,9 C 74 % 1026,1 hPa 0,0 l/m 27,8 km/h (4 Bft) O-NO 58 1 min 0,000 mm 1,7 UV-I 571 W/m 1,6 C -4,5 C 38,6 km/h (5 Bft) 97,37 %
16.03.2016 14:02 5,9 C 74 % 1026,1 hPa 0,0 l/m 26,3 km/h (4 Bft) O 94 2 min 0,280 mm 1,7 UV-I 573 W/m 1,6 C -4,1 C 38,6 km/h (5 Bft) 97,37 %
16.03.2016 14:03 5,9 C 75 % 1026,1 hPa 0,0 l/m 22,6 km/h (4 Bft) O 89 1 min 0,000 mm 1,7 UV-I 568 W/m 1,8 C -2,9 C 35,4 km/h (5 Bft) 100,00 %
16.03.2016 14:04 5,9 C 74 % 1026,1 hPa 0,0 l/m 30,1 km/h (5 Bft) NO 54 1 min 0,000 mm 1,7 UV-I 566 W/m 1,6 C -5,1 C 41,8 km/h (6 Bft) 96,15 %
16.03.2016 14:05 5,9 C 74 % 1026,1 hPa 0,0 l/m 27,8 km/h (4 Bft) O 80 1 min 0,000 mm 1,6 UV-I 566 W/m 1,6 C -4,5 C 35,4 km/h (5 Bft) 96,30 %
16.03.2016 14:06 5,9 C 75 % 1026,1 hPa 0,0 l/m 30,3 km/h (5 Bft) O-NO 68 1 min 0,000 mm 1,6 UV-I 562 W/m 1,8 C -5,2 C 38,6 km/h (5 Bft) 100,00 %
16.03.2016 14:07 5,9 C 74 % 1026,1 hPa 0,0 l/m 27,8 km/h (4 Bft) NO 46 1 min 0,000 mm 1,6 UV-I 558 W/m 1,6 C -4,5 C 37,0 km/h (5 Bft) 91,67 %
16.03.2016 14:08 5,9 C 76 % 1026,1 hPa 0,0 l/m 27,8 km/h (4 Bft) O-NO 71 1 min 0,000 mm 1,6 UV-I 558 W/m 2,0 C -4,5 C 37,0 km/h (5 Bft) 100,00 %
16.03.2016 14:09 5,9 C 76 % 1026,1 hPa 0,0 l/m 26,9 km/h (4 Bft) NO 36 1 min 0,000 mm 1,6 UV-I 558 W/m 2,0 C -4,3 C 33,8 km/h (5 Bft) 97,56 %
16.03.2016 14:10 5,9 C 74 % 1026,1 hPa 0,0 l/m 29,3 km/h (5 Bft) O-NO 57 1 min 0,000 mm 1,6 UV-I 560 W/m 1,6 C -4,9 C 35,4 km/h (5 Bft) 96,15 %
16.03.2016 14:11 6,0 C 75 % 1026,1 hPa 0,0 l/m 29,0 km/h (5 Bft) O-NO 59 1 min 0,000 mm 1,6 UV-I 559 W/m 1,9 C -4,7 C 40,2 km/h (6 Bft) 100,00 %
16.03.2016 14:12 6,0 C 74 % 1026,1 hPa 0,0 l/m 27,6 km/h (4 Bft) NO 45 1 min 0,000 mm 1,6 UV-I 561 W/m 1,7 C -4,3 C 37,0 km/h (5 Bft) 96,88 %
16.03.2016 14:13 6,0 C 75 % 1026,1 hPa 0,0 l/m 24,8 km/h (4 Bft) O-NO 69 1 min 0,000 mm 1,6 UV-I 567 W/m 1,9 C -3,5 C 32,2 km/h (5 Bft) 100,00 %
16.03.2016 14:14 6,1 C 76 % 1026,1 hPa 0,0 l/m 28,7 km/h (4 Bft) NO 55 1 min 0,000 mm 1,6 UV-I 572 W/m 2,2 C -4,5 C 38,6 km/h (5 Bft) 95,65 %
16.03.2016 14:15 6,1 C 74 % 1026,1 hPa 0,0 l/m 35,3 km/h (5 Bft) O-NO 61 1 min 0,000 mm 1,6 UV-I 526 W/m 1,8 C -6,0 C 48,3 km/h (6 Bft) 94,44 %
16.03.2016 14:16 6,0 C 74 % 1026,1 hPa 0,0 l/m 33,0 km/h (5 Bft) NO 49 1 min 0,000 mm 1,5 UV-I 552 W/m 1,7 C -5,7 C 41,8 km/h (6 Bft) 96,15 %
16.03.2016 14:17 6,0 C 74 % 1026,2 hPa 0,0 l/m 31,9 km/h (5 Bft) O-NO 73 1 min 0,000 mm 1,5 UV-I 561 W/m 1,7 C -5,4 C 40,2 km/h (6 Bft) 100,00 %
16.03.2016 14:18 6,0 C 74 % 1026,1 hPa 0,0 l/m 31,3 km/h (5 Bft) NO 46 1 min 0,000 mm 1,5 UV-I 556 W/m 1,7 C -5,3 C 37,0 km/h (5 Bft) 96,88 %
16.03.2016 14:19 6,0 C 74 % 1026,1 hPa 0,0 l/m 25,6 km/h (4 Bft) NO 54 1 min 0,000 mm 1,5 UV-I 546 W/m 1,7 C -3,8 C 32,2 km/h (5 Bft) 96,30 %
16.03.2016 14:20 6,0 C 75 % 1026,1 hPa 0,0 l/m 30,5 km/h (5 Bft) N-NO 31 1 min 0,000 mm 1,5 UV-I 547 W/m 1,9 C -5,1 C 38,6 km/h (5 Bft) 100,00 %
16.03.2016 14:21 6,1 C 74 % 1026,1 hPa 0,0 l/m 29,0 km/h (5 Bft) O-NO 78 1 min 0,000 mm 1,5 UV-I 552 W/m 1,8 C -4,6 C 35,4 km/h (5 Bft) 92,31 %
16.03.2016 14:22 6,1 C 76 % 1026,1 hPa 0,0 l/m 29,8 km/h (5 Bft) O-NO 61 1 min 0,000 mm 1,5 UV-I 555 W/m 2,2 C -4,8 C 38,6 km/h (5 Bft) 100,00 %
16.03.2016 14:23 6,1 C 74 % 1026,0 hPa 0,0 l/m 29,3 km/h (5 Bft) NO 53 1 min 0,000 mm 1,5 UV-I 548 W/m 1,8 C -4,7 C 35,4 km/h (5 Bft) 100,00 %
16.03.2016 14:24 6,2 C 75 % 1026,1 hPa 0,0 l/m 26,3 km/h (4 Bft) NO 43 1 min 0,000 mm 1,4 UV-I 548 W/m 2,1 C -3,7 C 32,2 km/h (5 Bft) 100,00 %
16.03.2016 14:25 6,2 C 73 % 1026,1 hPa 0,0 l/m 31,5 km/h (5 Bft) O-NO 65 1 min 0,000 mm 1,4 UV-I 503 W/m 1,7 C -5,0 C 40,2 km/h (6 Bft) 94,12 %
16.03.2016 14:26 6,2 C 73 % 1026,1 hPa 0,0 l/m 30,7 km/h (5 Bft) O-NO 63 1 min 0,000 mm 1,4 UV-I 548 W/m 1,7 C -4,9 C 41,8 km/h (6 Bft) 100,00 %
16.03.2016 14:27 6,2 C 73 % 1026,1 hPa 0,0 l/m 17,9 km/h (3 Bft) O 93 1 min 0,000 mm 1,4 UV-I 543 W/m 1,7 C -0,8 C 24,1 km/h (4 Bft) 100,00 %
16.03.2016 14:28 6,2 C 74 % 1026,1 hPa 0,0 l/m 21,5 km/h (4 Bft) O 95 1 min 0,000 mm 1,4 UV-I 488 W/m 1,9 C -2,2 C 29,0 km/h (5 Bft) 100,00 %
16.03.2016 14:29 6,2 C 73 % 1026,1 hPa 0,0 l/m 21,3 km/h (4 Bft) NO 36 1 min 0,000 mm 1,4 UV-I 528 W/m 1,7 C -2,1 C 33,8 km/h (5 Bft) 91,30 %
16.03.2016 14:30 6,2 C 73 % 1026,1 hPa 0,0 l/m 25,5 km/h (4 Bft) NO 46 1 min 0,000 mm 1,4 UV-I 520 W/m 1,7 C -3,5 C 35,4 km/h (5 Bft) 100,00 %
16.03.2016 14:31 6,2 C 73 % 1026,1 hPa 0,0 l/m 26,4 km/h (4 Bft) NO 44 1 min 0,000 mm 1,4 UV-I 521 W/m 1,7 C -3,7 C 32,2 km/h (5 Bft) 100,00 %
16.03.2016 14:32 6,2 C 73 % 1026,1 hPa 0,0 l/m 33,0 km/h (5 Bft) O-NO 57 1 min 0,000 mm 1,4 UV-I 520 W/m 1,7 C -5,4 C 45,1 km/h (6 Bft) 100,00 %
16.03.2016 14:33 6,3 C 72 % 1026,0 hPa 0,0 l/m 30,4 km/h (5 Bft) O-NO 69 1 min 0,000 mm 1,3 UV-I 518 W/m 1,6 C -4,6 C 38,6 km/h (5 Bft) 100,00 %
16.03.2016 14:34 6,3 C 72 % 1026,0 hPa 0,0 l/m 27,9 km/h (4 Bft) O-NO 69 1 min 0,000 mm 1,3 UV-I 517 W/m 1,6 C -4,0 C 37,0 km/h (5 Bft) 100,00 %
16.03.2016 14:35 6,3 C 73 % 1026,0 hPa 0,0 l/m 26,8 km/h (4 Bft) O-NO 59 1 min 0,000 mm 1,3 UV-I 516 W/m 1,8 C -3,7 C 35,4 km/h (5 Bft) 95,65 %
16.03.2016 14:36 6,3 C 72 % 1026,0 hPa 0,0 l/m 24,1 km/h (4 Bft) O-NO 65 1 min 0,000 mm 1,3 UV-I 512 W/m 1,6 C -2,9 C 33,8 km/h (5 Bft) 100,00 %
16.03.2016 14:37 6,3 C 72 % 1026,0 hPa 0,0 l/m 29,2 km/h (5 Bft) NO 50 1 min 0,000 mm 1,3 UV-I 517 W/m 1,6 C -4,3 C 43,5 km/h (6 Bft) 92,31 %
16.03.2016 14:38 6,4 C 71 % 1026,0 hPa 0,0 l/m 29,7 km/h (5 Bft) NO 49 1 min 0,000 mm 1,3 UV-I 514 W/m 1,5 C -4,3 C 35,4 km/h (5 Bft) 100,00 %
16.03.2016 14:39 6,3 C 71 % 1026,0 hPa 0,0 l/m 33,9 km/h (5 Bft) O-NO 66 1 min 0,000 mm 1,3 UV-I 506 W/m 1,4 C -5,4 C 45,1 km/h (6 Bft) 100,00 %
16.03.2016 14:40 6,3 C 70 % 1026,0 hPa 0,0 l/m 32,9 km/h (5 Bft) NO 56 1 min 0,000 mm 1,3 UV-I 504 W/m 1,2 C -5,2 C 41,8 km/h (6 Bft) 100,00 %
16.03.2016 14:41 6,3 C 71 % 1026,0 hPa 0,0 l/m 27,7 km/h (4 Bft) O-NO 59 1 min 0,000 mm 1,3 UV-I 513 W/m 1,4 C -4,0 C 37,0 km/h (5 Bft) 100,00 %
16.03.2016 14:42 6,3 C 70 % 1026,0 hPa 0,0 l/m 26,6 km/h (4 Bft) O-NO 69 1 min 0,000 mm 1,3 UV-I 517 W/m 1,2 C -3,6 C 37,0 km/h (5 Bft) 96,15 %
16.03.2016 14:43 6,3 C 72 % 1026,0 hPa 0,0 l/m 26,5 km/h (4 Bft) NO 44 1 min 0,000 mm 1,3 UV-I 506 W/m 1,6 C -3,6 C 37,0 km/h (5 Bft) 100,00 %
16.03.2016 14:44 6,4 C 71 % 1026,0 hPa 0,0 l/m 26,2 km/h (4 Bft) O-NO 70 1 min 0,000 mm 1,3 UV-I 500 W/m 1,5 C -3,4 C 37,0 km/h (5 Bft) 100,00 %
16.03.2016 14:45 6,4 C 70 % 1026,0 hPa 0,0 l/m 29,1 km/h (5 Bft) O-NO 61 1 min 0,000 mm 1,3 UV-I 500 W/m 1,3 C -4,2 C 37,0 km/h (5 Bft) 100,00 %
16.03.2016 14:46 6,4 C 70 % 1026,0 hPa 0,0 l/m 29,1 km/h (5 Bft) O-NO 59 1 min 0,000 mm 1,2 UV-I 496 W/m 1,3 C -4,2 C 35,4 km/h (5 Bft) 100,00 %
16.03.2016 14:47 6,4 C 70 % 1026,0 hPa 0,0 l/m 29,8 km/h (5 Bft) O-NO 71 1 min 0,000 mm 1,2 UV-I 497 W/m 1,3 C -4,4 C 38,6 km/h (5 Bft) 100,00 %
16.03.2016 14:48 6,4 C 70 % 1026,0 hPa 0,0 l/m 29,5 km/h (5 Bft) NO 43 1 min 0,000 mm 1,2 UV-I 496 W/m 1,3 C -4,3 C 41,8 km/h (6 Bft) 98,53 %
16.03.2016 14:49 6,4 C 71 % 1026,0 hPa 0,0 l/m 24,3 km/h (4 Bft) O-NO 74 1 min 0,000 mm 1,2 UV-I 493 W/m 1,5 C -2,8 C 33,8 km/h (5 Bft) 100,00 %
16.03.2016 14:50 6,4 C 70 % 1026,0 hPa 0,0 l/m 25,5 km/h (4 Bft) NO 54 1 min 0,000 mm 1,2 UV-I 491 W/m 1,3 C -3,2 C 32,2 km/h (5 Bft) 100,00 %
16.03.2016 14:51 6,5 C 71 % 1025,9 hPa 0,0 l/m 23,2 km/h (4 Bft) O-NO 71 1 min 0,000 mm 1,2 UV-I 490 W/m 1,6 C -2,3 C 32,2 km/h (5 Bft) 100,00 %
16.03.2016 14:52 6,6 C 70 % 1026,0 hPa 0,0 l/m 28,7 km/h (4 Bft) O-NO 76 1 min 0,000 mm 1,2 UV-I 487 W/m 1,5 C -3,8 C 37,0 km/h (5 Bft) 100,00 %
16.03.2016 14:53 6,6 C 69 % 1026,0 hPa 0,0 l/m 29,8 km/h (5 Bft) O-NO 63 1 min 0,000 mm 1,2 UV-I 485 W/m 1,3 C -4,1 C 38,6 km/h (5 Bft) 100,00 %
16.03.2016 14:54 6,5 C 68 % 1025,9 hPa 0,0 l/m 34,8 km/h (5 Bft) O 80 1 min 0,000 mm 1,2 UV-I 484 W/m 1,0 C -5,3 C 43,5 km/h (6 Bft) 100,00 %
16.03.2016 14:55 6,4 C 68 % 1026,0 hPa 0,0 l/m 32,0 km/h (5 Bft) O-NO 67 1 min 0,000 mm 1,2 UV-I 482 W/m 0,9 C -4,9 C 38,6 km/h (5 Bft) 100,00 %
16.03.2016 14:56 6,4 C 69 % 1025,9 hPa 0,0 l/m 35,6 km/h (5 Bft) O 81 1 min 0,000 mm 1,2 UV-I 482 W/m 1,1 C -5,6 C 41,8 km/h (6 Bft) 100,00 %
16.03.2016 14:57 6,4 C 70 % 1026,0 hPa 0,0 l/m 25,8 km/h (4 Bft) O-NO 58 1 min 0,000 mm 1,1 UV-I 480 W/m 1,3 C -3,3 C 32,2 km/h (5 Bft) 100,00 %
16.03.2016 14:58 6,4 C 71 % 1026,0 hPa 0,0 l/m 23,0 km/h (4 Bft) O-NO 70 1 min 0,000 mm 1,1 UV-I 478 W/m 1,5 C -2,4 C 33,8 km/h (5 Bft) 100,00 %
16.03.2016 14:59 6,4 C 70 % 1025,9 hPa 0,0 l/m 21,2 km/h (4 Bft) NO 51 1 min 0,000 mm 1,1 UV-I 476 W/m 1,3 C -1,8 C 29,0 km/h (5 Bft) 100,00 %
16.03.2016 15:00 6,4 C 70 % 1026,0 hPa 0,0 l/m 34,3 km/h (5 Bft) NO 49 1 min 0,000 mm 1,1 UV-I 473 W/m 1,3 C -5,4 C 38,6 km/h (5 Bft) 100,00 %
16.03.2016 15:01 6,4 C 67 % 1026,0 hPa 0,0 l/m 31,7 km/h (5 Bft) O 80 1 min 0,279 mm 1,1 UV-I 468 W/m 0,7 C -4,8 C 40,2 km/h (6 Bft) 95,65 %
16.03.2016 15:02 6,4 C 69 % 1026,0 hPa 0,0 l/m 30,1 km/h (5 Bft) O-NO 63 1 min 0,000 mm 1,1 UV-I 457 W/m 1,1 C -4,4 C 35,4 km/h (5 Bft) 100,00 %
16.03.2016 15:03 6,4 C 69 % 1026,0 hPa 0,0 l/m 28,7 km/h (4 Bft) NO 37 1 min 0,000 mm 1,0 UV-I 437 W/m 1,1 C -4,1 C 35,4 km/h (5 Bft) 100,00 %
16.03.2016 15:04 6,4 C 69 % 1025,9 hPa 0,0 l/m 25,3 km/h (4 Bft) O-NO 59 1 min 0,000 mm 1,0 UV-I 396 W/m 1,1 C -3,1 C 38,6 km/h (5 Bft) 100,00 %
16.03.2016 15:05 6,5 C 71 % 1026,0 hPa 0,0 l/m 26,8 km/h (4 Bft) NO 50 1 min 0,000 mm 1,0 UV-I 398 W/m 1,6 C -3,4 C 41,8 km/h (6 Bft) 100,00 %
16.03.2016 15:06 6,6 C 70 % 1025,9 hPa 0,0 l/m 24,9 km/h (4 Bft) NO 55 1 min 0,000 mm 1,0 UV-I 410 W/m 1,5 C -2,7 C 38,6 km/h (5 Bft) 100,00 %
16.03.2016 15:07 6,5 C 70 % 1026,0 hPa 0,0 l/m 32,1 km/h (5 Bft) O-NO 67 1 min 0,000 mm 1,0 UV-I 419 W/m 1,4 C -4,8 C 41,8 km/h (6 Bft) 96,15 %
16.03.2016 15:08 6,4 C 69 % 1025,9 hPa 0,0 l/m 32,8 km/h (5 Bft) NO 55 1 min 0,000 mm 1,0 UV-I 362 W/m 1,1 C -5,1 C 40,2 km/h (6 Bft) 100,00 %
16.03.2016 15:09 6,4 C 69 % 1026,0 hPa 0,0 l/m 29,7 km/h (5 Bft) NO 55 1 min 0,000 mm 0,9 UV-I 337 W/m 1,1 C -4,3 C 37,0 km/h (5 Bft) 100,00 %
16.03.2016 15:10 6,3 C 71 % 1025,9 hPa 0,0 l/m 27,9 km/h (4 Bft) O-NO 69 1 min 0,000 mm 0,9 UV-I 331 W/m 1,4 C -4,0 C 37,0 km/h (5 Bft) 100,00 %
16.03.2016 15:11 6,3 C 72 % 1026,0 hPa 0,0 l/m 22,8 km/h (4 Bft) NO 43 1 min 0,000 mm 0,9 UV-I 328 W/m 1,6 C -2,5 C 35,4 km/h (5 Bft) 96,15 %
16.03.2016 15:12 6,3 C 72 % 1025,9 hPa 0,0 l/m 28,5 km/h (4 Bft) O-NO 61 1 min 0,000 mm 0,9 UV-I 342 W/m 1,6 C -4,2 C 40,2 km/h (6 Bft) 100,00 %
16.03.2016 15:13 6,3 C 70 % 1025,9 hPa 0,0 l/m 31,2 km/h (5 Bft) O 80 1 min 0,000 mm 0,9 UV-I 387 W/m 1,2 C -4,8 C 37,0 km/h (5 Bft) 95,65 %
16.03.2016 15:14 6,3 C 72 % 1025,9 hPa 0,0 l/m 25,1 km/h (4 Bft) NO 55 1 min 0,000 mm 0,9 UV-I 364 W/m 1,6 C -3,2 C 33,8 km/h (5 Bft) 100,00 %
16.03.2016 15:15 6,3 C 73 % 1025,9 hPa 0,0 l/m 27,6 km/h (4 Bft) O-NO 69 1 min 0,000 mm 0,9 UV-I 346 W/m 1,8 C -3,9 C 40,2 km/h (6 Bft) 100,00 %
16.03.2016 15:16 6,3 C 71 % 1025,9 hPa 0,0 l/m 26,1 km/h (4 Bft) O-NO 71 1 min 0,000 mm 0,9 UV-I 369 W/m 1,4 C -3,5 C 35,4 km/h (5 Bft) 95,83 %
16.03.2016 15:17 6,3 C 71 % 1025,9 hPa 0,0 l/m 27,3 km/h (4 Bft) NO 54 1 min 0,000 mm 0,9 UV-I 385 W/m 1,4 C -3,8 C 35,4 km/h (5 Bft) 100,00 %
16.03.2016 15:18 6,3 C 72 % 1026,0 hPa 0,0 l/m 31,5 km/h (5 Bft) O-NO 78 1 min 0,000 mm 0,9 UV-I 411 W/m 1,6 C -4,9 C 40,2 km/h (6 Bft) 100,00 %
16.03.2016 15:19 6,4 C 70 % 1025,9 hPa 0,0 l/m 30,9 km/h (5 Bft) O 91 1 min 0,000 mm 0,9 UV-I 425 W/m 1,3 C -4,6 C 40,2 km/h (6 Bft) 96,15 %
16.03.2016 15:20 6,3 C 71 % 1025,9 hPa 0,0 l/m 30,0 km/h (5 Bft) NO 47 1 min 0,000 mm 0,9 UV-I 430 W/m 1,4 C -4,5 C 37,0 km/h (5 Bft) 100,00 %
16.03.2016 15:21 6,4 C 71 % 1026,0 hPa 0,0 l/m 23,8 km/h (4 Bft) O-NO 57 1 min 0,000 mm 0,9 UV-I 426 W/m 1,5 C -2,7 C 35,4 km/h (5 Bft) 100,00 %
16.03.2016 15:22 6,4 C 71 % 1025,9 hPa 0,0 l/m 27,7 km/h (4 Bft) NO 55 1 min 0,000 mm 0,9 UV-I 422 W/m 1,5 C -3,8 C 37,0 km/h (5 Bft) 100,00 %
16.03.2016 15:23 6,4 C 69 % 1025,9 hPa 0,0 l/m 27,1 km/h (4 Bft) O-NO 71 1 min 0,000 mm 0,9 UV-I 418 W/m 1,1 C -3,7 C 35,4 km/h (5 Bft) 100,00 %
16.03.2016 15:24 6,4 C 71 % 1025,9 hPa 0,0 l/m 24,9 km/h (4 Bft) O-NO 69 1 min 0,000 mm 0,9 UV-I 408 W/m 1,5 C -3,0 C 37,0 km/h (5 Bft) 100,00 %
16.03.2016 15:25 6,4 C 71 % 1025,9 hPa 0,0 l/m 31,2 km/h (5 Bft) NO 56 1 min 0,000 mm 0,8 UV-I 404 W/m 1,5 C -4,7 C 38,6 km/h (5 Bft) 100,00 %
16.03.2016 15:26 6,5 C 70 % 1025,9 hPa 0,0 l/m 28,5 km/h (4 Bft) O-NO 71 1 min 0,000 mm 0,8 UV-I 404 W/m 1,4 C -3,9 C 38,6 km/h (5 Bft) 92,86 %
16.03.2016 15:27 6,5 C 70 % 1025,9 hPa 0,0 l/m 27,8 km/h (4 Bft) O 80 1 min 0,000 mm 0,8 UV-I 396 W/m 1,4 C -3,7 C 37,0 km/h (5 Bft) 100,00 %
16.03.2016 15:28 6,4 C 69 % 1025,8 hPa 0,0 l/m 32,0 km/h (5 Bft) O 87 1 min 0,000 mm 0,8 UV-I 385 W/m 1,1 C -4,9 C 40,2 km/h (6 Bft) 100,00 %
16.03.2016 15:29 6,4 C 69 % 1025,9 hPa 0,0 l/m 26,6 km/h (4 Bft) O 88 1 min 0,000 mm 0,8 UV-I 374 W/m 1,1 C -3,5 C 35,4 km/h (5 Bft) 100,00 %
16.03.2016 15:30 6,4 C 69 % 1025,9 hPa 0,0 l/m 24,1 km/h (4 Bft) O-NO 73 1 min 0,000 mm 0,8 UV-I 392 W/m 1,1 C -2,8 C 27,4 km/h (4 Bft) 100,00 %
16.03.2016 15:31 6,4 C 70 % 1025,9 hPa 0,0 l/m 22,0 km/h (4 Bft) O-NO 76 1 min 0,000 mm 0,8 UV-I 402 W/m 1,3 C -2,1 C 32,2 km/h (5 Bft) 100,00 %
16.03.2016 15:32 6,5 C 70 % 1025,9 hPa 0,0 l/m 28,0 km/h (4 Bft) O-NO 58 1 min 0,000 mm 0,8 UV-I 400 W/m 1,4 C -3,8 C 32,2 km/h (5 Bft) 94,12 %
16.03.2016 15:33 6,5 C 71 % 1025,9 hPa 0,0 l/m 29,4 km/h (5 Bft) O-NO 61 1 min 0,000 mm 0,8 UV-I 397 W/m 1,6 C -4,1 C 37,0 km/h (5 Bft) 100,00 %
16.03.2016 15:34 6,5 C 70 % 1025,9 hPa 0,0 l/m 24,6 km/h (4 Bft) NO 50 1 min 0,000 mm 0,8 UV-I 396 W/m 1,4 C -2,8 C 33,8 km/h (5 Bft) 100,00 %
16.03.2016 15:35 6,6 C 71 % 1025,9 hPa 0,0 l/m 31,3 km/h (5 Bft) O-NO 57 1 min 0,000 mm 0,8 UV-I 390 W/m 1,7 C -4,4 C 37,0 km/h (5 Bft) 100,00 %
16.03.2016 15:36 6,5 C 70 % 1025,9 hPa 0,0 l/m 34,4 km/h (5 Bft) O-NO 69 1 min 0,000 mm 0,7 UV-I 376 W/m 1,4 C -5,3 C 38,6 km/h (5 Bft) 100,00 %
16.03.2016 15:37 6,5 C 69 % 1025,9 hPa 0,0 l/m 32,6 km/h (5 Bft) O-NO 74 1 min 0,000 mm 0,7 UV-I 369 W/m 1,2 C -4,9 C 41,8 km/h (6 Bft) 100,00 %
16.03.2016 15:38 6,4 C 70 % 1025,9 hPa 0,0 l/m 29,6 km/h (5 Bft) NO 55 1 min 0,000 mm 0,7 UV-I 372 W/m 1,3 C -4,3 C 35,4 km/h (5 Bft) 86,96 %
16.03.2016 15:39 6,4 C 71 % 1025,9 hPa 0,0 l/m 31,9 km/h (5 Bft) NO 50 1 min 0,000 mm 0,7 UV-I 374 W/m 1,5 C -4,9 C 37,0 km/h (5 Bft) 100,00 %
16.03.2016 15:40 6,5 C 71 % 1025,9 hPa 0,0 l/m 28,9 km/h (5 Bft) O 80 1 min 0,000 mm 0,7 UV-I 380 W/m 1,6 C -4,0 C 37,0 km/h (5 Bft) 94,44 %
16.03.2016 15:41 6,5 C 70 % 1025,9 hPa 0,0 l/m 28,2 km/h (4 Bft) O-NO 74 1 min 0,000 mm 0,7 UV-I 381 W/m 1,4 C -3,8 C 35,4 km/h (5 Bft) 96,15 %
16.03.2016 15:42 6,6 C 70 % 1025,9 hPa 0,0 l/m 24,8 km/h (4 Bft) O-NO 76 1 min 0,000 mm 0,7 UV-I 382 W/m 1,5 C -2,7 C 35,4 km/h (5 Bft) 96,15 %
16.03.2016 15:43 6,6 C 68 % 1025,9 hPa 0,0 l/m 28,5 km/h (4 Bft) O 87 1 min 0,000 mm 0,7 UV-I 382 W/m 1,1 C -3,7 C 35,4 km/h (5 Bft) 100,00 %
16.03.2016 15:44 6,6 C 69 % 1025,9 hPa 0,0 l/m 29,3 km/h (5 Bft) O-NO 75 1 min 0,000 mm 0,7 UV-I 380 W/m 1,3 C -4,0 C 38,6 km/h (5 Bft) 93,33 %
16.03.2016 15:45 6,5 C 69 % 1025,9 hPa 0,0 l/m 25,0 km/h (4 Bft) O 82 1 min 0,000 mm 0,7 UV-I 376 W/m 1,2 C -2,9 C 33,8 km/h (5 Bft) 96,55 %
16.03.2016 15:46 6,5 C 69 % 1025,9 hPa 0,0 l/m 28,2 km/h (4 Bft) O-NO 59 1 min 0,000 mm 0,7 UV-I 373 W/m 1,2 C -3,8 C 38,6 km/h (5 Bft) 98,55 %
16.03.2016 15:47 6,5 C 69 % 1025,8 hPa 0,0 l/m 25,6 km/h (4 Bft) O-NO 67 1 min 0,000 mm 0,7 UV-I 370 W/m 1,2 C -3,1 C 33,8 km/h (5 Bft) 97,56 %
16.03.2016 15:48 6,5 C 69 % 1025,8 hPa 0,0 l/m 33,3 km/h (5 Bft) O-NO 67 1 min 0,000 mm 0,7 UV-I 368 W/m 1,2 C -5,0 C 48,3 km/h (6 Bft) 100,00 %
16.03.2016 15:49 6,5 C 69 % 1025,8 hPa 0,0 l/m 31,0 km/h (5 Bft) O-NO 57 1 min 0,000 mm 0,6 UV-I 358 W/m 1,2 C -4,5 C 41,8 km/h (6 Bft) 95,65 %
16.03.2016 15:50 6,4 C 70 % 1025,9 hPa 0,0 l/m 29,6 km/h (5 Bft) O-NO 62 1 min 0,000 mm 0,6 UV-I 348 W/m 1,3 C -4,3 C 37,0 km/h (5 Bft) 100,00 %
16.03.2016 15:51 6,4 C 70 % 1025,8 hPa 0,0 l/m 31,0 km/h (5 Bft) NO 55 1 min 0,000 mm 0,6 UV-I 346 W/m 1,3 C -4,6 C 38,6 km/h (5 Bft) 91,30 %
16.03.2016 15:52 6,4 C 70 % 1025,8 hPa 0,0 l/m 34,0 km/h (5 Bft) NO 49 1 min 0,000 mm 0,6 UV-I 338 W/m 1,3 C -5,3 C 40,2 km/h (6 Bft) 100,00 %
16.03.2016 15:53 6,4 C 69 % 1025,8 hPa 0,0 l/m 29,6 km/h (5 Bft) O-NO 71 1 min 0,000 mm 0,6 UV-I 337 W/m 1,1 C -4,3 C 38,6 km/h (5 Bft) 96,55 %
16.03.2016 15:54 6,4 C 70 % 1025,8 hPa 0,0 l/m 30,0 km/h (5 Bft) O-NO 66 1 min 0,000 mm 0,6 UV-I 335 W/m 1,3 C -4,4 C 43,5 km/h (6 Bft) 100,00 %
16.03.2016 15:55 6,3 C 69 % 1025,8 hPa 0,0 l/m 34,0 km/h (5 Bft) O-NO 60 1 min 0,000 mm 0,6 UV-I 334 W/m 1,0 C -5,5 C 43,5 km/h (6 Bft) 96,15 %
16.03.2016 15:56 6,3 C 70 % 1025,7 hPa 0,0 l/m 27,9 km/h (4 Bft) O-NO 62 1 min 0,000 mm 0,6 UV-I 334 W/m 1,2 C -4,0 C 32,2 km/h (5 Bft) 93,33 %
16.03.2016 15:57 6,3 C 70 % 1025,8 hPa 0,0 l/m 27,1 km/h (4 Bft) O-NO 57 1 min 0,000 mm 0,6 UV-I 334 W/m 1,2 C -3,8 C 38,6 km/h (5 Bft) 95,65 %
16.03.2016 15:58 6,3 C 69 % 1025,8 hPa 0,0 l/m 31,0 km/h (5 Bft) NO 55 1 min 0,000 mm 0,6 UV-I 329 W/m 1,0 C -4,8 C 43,5 km/h (6 Bft) 95,83 %
16.03.2016 15:59 6,3 C 69 % 1025,8 hPa 0,0 l/m 29,1 km/h (5 Bft) NO 44 1 min 0,000 mm 0,5 UV-I 323 W/m 1,0 C -4,3 C 37,0 km/h (5 Bft) 100,00 %
16.03.2016 16:00 6,3 C 70 % 1025,8 hPa 0,0 l/m 25,5 km/h (4 Bft) NO 56 1 min 0,000 mm 0,5 UV-I 310 W/m 1,2 C -3,3 C 30,6 km/h (5 Bft) 95,00 %
16.03.2016 16:01 6,3 C 70 % 1025,9 hPa 0,0 l/m 28,8 km/h (4 Bft) O-NO 67 1 min 0,229 mm 0,5 UV-I 299 W/m 1,2 C -4,2 C 37,0 km/h (5 Bft) 100,00 %
16.03.2016 16:02 6,3 C 70 % 1025,9 hPa 0,0 l/m 26,0 km/h (4 Bft) O 80 1 min 0,000 mm 0,5 UV-I 295 W/m 1,2 C -3,5 C 33,8 km/h (5 Bft) 95,65 %
16.03.2016 16:03 6,3 C 71 % 1025,9 hPa 0,0 l/m 21,3 km/h (4 Bft) O 92 1 min 0,000 mm 0,5 UV-I 290 W/m 1,4 C -2,0 C 32,2 km/h (5 Bft) 100,00 %
16.03.2016 16:04 6,3 C 70 % 1025,8 hPa 0,0 l/m 26,6 km/h (4 Bft) O 97 1 min 0,000 mm 0,5 UV-I 290 W/m 1,2 C -3,6 C 33,8 km/h (5 Bft) 96,55 %
16.03.2016 16:05 6,3 C 69 % 1025,8 hPa 0,0 l/m 29,7 km/h (5 Bft) O-NO 72 1 min 0,000 mm 0,5 UV-I 286 W/m 1,0 C -4,5 C 37,0 km/h (5 Bft) 100,00 %
16.03.2016 16:06 6,2 C 69 % 1025,8 hPa 0,0 l/m 27,8 km/h (4 Bft) O-NO 63 1 min 0,000 mm 0,5 UV-I 283 W/m 0,9 C -4,1 C 33,8 km/h (5 Bft) 94,12 %
16.03.2016 16:07 6,2 C 70 % 1025,8 hPa 0,0 l/m 29,8 km/h (5 Bft) NO 47 1 min 0,000 mm 0,5 UV-I 276 W/m 1,1 C -4,6 C 35,4 km/h (5 Bft) 97,62 %
16.03.2016 16:08 6,2 C 69 % 1025,8 hPa 0,0 l/m 29,7 km/h (5 Bft) O-NO 60 1 min 0,000 mm 0,5 UV-I 275 W/m 0,9 C -4,6 C 37,0 km/h (5 Bft) 100,00 %
16.03.2016 16:09 6,2 C 69 % 1025,8 hPa 0,0 l/m 27,0 km/h (4 Bft) O-NO 69 1 min 0,000 mm 0,5 UV-I 274 W/m 0,9 C -3,9 C 35,4 km/h (5 Bft) 100,00 %
16.03.2016 16:10 6,2 C 69 % 1025,8 hPa 0,0 l/m 24,9 km/h (4 Bft) O-NO 57 1 min 0,000 mm 0,4 UV-I 273 W/m 0,9 C -3,3 C 33,8 km/h (5 Bft) 97,56 %
16.03.2016 16:11 6,2 C 70 % 1025,9 hPa 0,0 l/m 23,8 km/h (4 Bft) O-NO 76 1 min 0,000 mm 0,0 UV-I 273 W/m 1,1 C -2,9 C 33,8 km/h (5 Bft) 100,00 %
16.03.2016 16:12 6,2 C 71 % 1025,8 hPa 0,0 l/m 25,1 km/h (4 Bft) O-NO 78 1 min 0,000 mm 0,0 UV-I 272 W/m 1,3 C -3,3 C 30,6 km/h (5 Bft) 96,88 %
16.03.2016 16:13 6,2 C 72 % 1025,9 hPa 0,0 l/m 22,8 km/h (4 Bft) O-NO 70 1 min 0,000 mm 0,0 UV-I 271 W/m 1,5 C -2,6 C 30,6 km/h (5 Bft) 100,00 %
16.03.2016 16:14 6,3 C 71 % 1025,8 hPa 0,0 l/m 16,8 km/h (3 Bft) NO 55 1 min 0,000 mm 0,0 UV-I 271 W/m 1,4 C -0,2 C 22,5 km/h (4 Bft) 100,00 %
16.03.2016 16:15 6,3 C 71 % 1025,9 hPa 0,0 l/m 22,5 km/h (4 Bft) O-NO 69 1 min 0,000 mm 0,0 UV-I 272 W/m 1,4 C -2,4 C 27,4 km/h (4 Bft) 100,00 %
16.03.2016 16:16 6,3 C 71 % 1025,9 hPa 0,0 l/m 27,2 km/h (4 Bft) O-NO 63 1 min 0,000 mm 0,0 UV-I 271 W/m 1,4 C -3,8 C 38,6 km/h (5 Bft) 100,00 %
16.03.2016 16:17 6,3 C 70 % 1025,8 hPa 0,0 l/m 27,0 km/h (4 Bft) O-NO 74 1 min 0,000 mm 0,0 UV-I 270 W/m 1,2 C -3,8 C 37,0 km/h (5 Bft) 100,00 %
16.03.2016 16:18 6,3 C 71 % 1025,9 hPa 0,0 l/m 24,6 km/h (4 Bft) O-NO 66 1 min 0,000 mm 0,0 UV-I 269 W/m 1,4 C -3,1 C 29,0 km/h (5 Bft) 100,00 %
16.03.2016 16:19 6,3 C 71 % 1025,9 hPa 0,0 l/m 28,5 km/h (4 Bft) O-NO 65 1 min 0,000 mm 0,0 UV-I 266 W/m 1,4 C -4,2 C 37,0 km/h (5 Bft) 100,00 %
16.03.2016 16:20 6,3 C 71 % 1025,9 hPa 0,0 l/m 26,5 km/h (4 Bft) O-NO 67 1 min 0,000 mm 0,0 UV-I 265 W/m 1,4 C -3,6 C 33,8 km/h (5 Bft) 100,00 %
16.03.2016 16:21 6,2 C 70 % 1025,9 hPa 0,0 l/m 28,2 km/h (4 Bft) O-NO 73 1 min 0,000 mm 0,0 UV-I 261 W/m 1,1 C -4,2 C 35,4 km/h (5 Bft) 95,83 %
16.03.2016 16:22 6,2 C 70 % 1025,9 hPa 0,0 l/m 32,2 km/h (5 Bft) O-NO 59 1 min 0,000 mm 0,0 UV-I 258 W/m 1,1 C -5,2 C 32,2 km/h (5 Bft) 98,52 %
16.03.2016 16:25 6,2 C 70 % 1025,9 hPa 0,0 l/m 27,7 km/h (4 Bft) O-NO 67 3 min 0,000 mm 0,0 UV-I 246 W/m 1,1 C -4,1 C 37,0 km/h (5 Bft) 100,00 %
16.03.2016 16:26 6,1 C 70 % 1025,9 hPa 0,0 l/m 32,0 km/h (5 Bft) O-NO 78 1 min 0,000 mm 0,0 UV-I 235 W/m 1,0 C -5,3 C 38,6 km/h (5 Bft) 96,30 %
16.03.2016 16:27 6,1 C 69 % 1025,9 hPa 0,0 l/m 32,3 km/h (5 Bft) NO 53 1 min 0,000 mm 0,0 UV-I 228 W/m 0,8 C -5,4 C 38,6 km/h (5 Bft) 100,00 %
16.03.2016 16:28 6,1 C 70 % 1025,9 hPa 0,0 l/m 33,7 km/h (5 Bft) O-NO 60 1 min 0,000 mm 0,0 UV-I 224 W/m 1,0 C -5,7 C 40,2 km/h (6 Bft) 100,00 %
16.03.2016 16:29 6,1 C 69 % 1025,9 hPa 0,0 l/m 29,9 km/h (5 Bft) O-NO 57 1 min 0,000 mm 0,0 UV-I 223 W/m 0,8 C -4,8 C 40,2 km/h (6 Bft) 100,00 %
16.03.2016 16:30 6,1 C 69 % 1026,0 hPa 0,0 l/m 34,8 km/h (5 Bft) O 85 1 min 0,000 mm 0,0 UV-I 220 W/m 0,8 C -5,9 C 45,1 km/h (6 Bft) 100,00 %
16.03.2016 16:31 6,1 C 70 % 1025,9 hPa 0,0 l/m 33,7 km/h (5 Bft) NO 46 1 min 0,000 mm 0,0 UV-I 218 W/m 1,0 C -5,7 C 43,5 km/h (6 Bft) 100,00 %
16.03.2016 16:32 6,1 C 70 % 1025,9 hPa 0,0 l/m 32,3 km/h (5 Bft) O-NO 61 1 min 0,000 mm 0,0 UV-I 216 W/m 1,0 C -5,4 C 38,6 km/h (5 Bft) 100,00 %
16.03.2016 16:33 6,1 C 70 % 1026,0 hPa 0,0 l/m 26,5 km/h (4 Bft) NO 51 1 min 0,000 mm 0,0 UV-I 214 W/m 1,0 C -3,9 C 33,8 km/h (5 Bft) 95,65 %
16.03.2016 16:34 6,1 C 71 % 1026,0 hPa 0,0 l/m 34,4 km/h (5 Bft) O-NO 69 1 min 0,000 mm 0,0 UV-I 208 W/m 1,2 C -5,8 C 45,1 km/h (6 Bft) 100,00 %
16.03.2016 16:35 6,1 C 69 % 1025,9 hPa 0,0 l/m 28,7 km/h (4 Bft) NO 54 1 min 0,000 mm 0,0 UV-I 204 W/m 0,8 C -4,5 C 35,4 km/h (5 Bft) 100,00 %
16.03.2016 16:36 6,1 C 70 % 1025,9 hPa 0,0 l/m 28,2 km/h (4 Bft) O-NO 71 1 min 0,000 mm 0,0 UV-I 195 W/m 1,0 C -4,4 C 40,2 km/h (6 Bft) 100,00 %
16.03.2016 16:37 6,1 C 71 % 1025,9 hPa 0,0 l/m 26,4 km/h (4 Bft) O-NO 63 1 min 0,000 mm 0,0 UV-I 193 W/m 1,2 C -3,9 C 38,6 km/h (5 Bft) 100,00 %
16.03.2016 16:38 6,1 C 71 % 1025,9 hPa 0,0 l/m 25,3 km/h (4 Bft) NO 47 1 min 0,000 mm 0,0 UV-I 193 W/m 1,2 C -3,5 C 38,6 km/h (5 Bft) 100,00 %
16.03.2016 16:39 6,1 C 70 % 1025,9 hPa 0,0 l/m 32,9 km/h (5 Bft) O-NO 57 1 min 0,000 mm 0,0 UV-I 189 W/m 1,0 C -5,5 C 43,5 km/h (6 Bft) 100,00 %
16.03.2016 16:40 6,0 C 70 % 1025,9 hPa 0,0 l/m 35,8 km/h (5 Bft) NO 52 1 min 0,000 mm 0,0 UV-I 186 W/m 1,0 C -6,3 C 45,1 km/h (6 Bft) 100,00 %
16.03.2016 16:41 6,0 C 70 % 1025,9 hPa 0,0 l/m 32,0 km/h (5 Bft) NO 52 1 min 0,000 mm 0,0 UV-I 186 W/m 1,0 C -5,4 C 43,5 km/h (6 Bft) 100,00 %
16.03.2016 16:42 6,0 C 70 % 1025,9 hPa 0,0 l/m 31,4 km/h (5 Bft) O-NO 62 1 min 0,000 mm 0,0 UV-I 186 W/m 1,0 C -5,3 C 45,1 km/h (6 Bft) 100,00 %
16.03.2016 16:43 6,0 C 71 % 1026,0 hPa 0,0 l/m 30,5 km/h (5 Bft) N-NO 26 1 min 0,000 mm 0,0 UV-I 182 W/m 1,1 C -5,1 C 40,2 km/h (6 Bft) 100,00 %
16.03.2016 16:44 5,9 C 70 % 1025,9 hPa 0,0 l/m 33,7 km/h (5 Bft) O-NO 61 1 min 0,000 mm 0,0 UV-I 178 W/m 0,9 C -6,0 C 46,7 km/h (6 Bft) 100,00 %
16.03.2016 16:45 5,9 C 70 % 1025,9 hPa 0,0 l/m 33,4 km/h (5 Bft) O 90 1 min 0,000 mm 0,0 UV-I 177 W/m 0,9 C -5,9 C 48,3 km/h (6 Bft) 100,00 %
16.03.2016 16:46 5,9 C 71 % 1025,9 hPa 0,0 l/m 37,5 km/h (5 Bft) O-NO 69 1 min 0,000 mm 0,0 UV-I 171 W/m 1,1 C -6,7 C 46,7 km/h (6 Bft) 100,00 %
16.03.2016 16:47 5,9 C 71 % 1025,9 hPa 0,0 l/m 31,6 km/h (5 Bft) NO 48 1 min 0,000 mm 0,0 UV-I 158 W/m 1,1 C -5,5 C 43,5 km/h (6 Bft) 96,30 %
16.03.2016 16:48 5,9 C 71 % 1025,9 hPa 0,0 l/m 30,3 km/h (5 Bft) O 81 1 min 0,000 mm 0,0 UV-I 140 W/m 1,1 C -5,2 C 45,1 km/h (6 Bft) 100,00 %
16.03.2016 16:49 5,9 C 71 % 1025,9 hPa 0,0 l/m 29,9 km/h (5 Bft) NO 53 1 min 0,000 mm 0,0 UV-I 128 W/m 1,1 C -5,1 C 37,0 km/h (5 Bft) 93,33 %
16.03.2016 16:50 5,8 C 71 % 1025,9 hPa 0,0 l/m 33,0 km/h (5 Bft) O-NO 74 1 min 0,000 mm 0,0 UV-I 120 W/m 1,0 C -6,0 C 41,8 km/h (6 Bft) 100,00 %
16.03.2016 16:51 5,8 C 71 % 1025,9 hPa 0,0 l/m 30,7 km/h (5 Bft) NO 45 1 min 0,000 mm 0,0 UV-I 121 W/m 1,0 C -5,4 C 38,6 km/h (5 Bft) 100,00 %
16.03.2016 16:52 5,8 C 71 % 1025,9 hPa 0,0 l/m 23,9 km/h (4 Bft) NO 55 1 min 0,000 mm 0,0 UV-I 124 W/m 1,0 C -3,5 C 30,6 km/h (5 Bft) 100,00 %
16.03.2016 16:53 5,8 C 71 % 1025,9 hPa 0,0 l/m 25,7 km/h (4 Bft) NO 48 1 min 0,000 mm 0,0 UV-I 127 W/m 1,0 C -4,1 C 35,4 km/h (5 Bft) 100,00 %
16.03.2016 16:54 5,8 C 71 % 1025,8 hPa 0,0 l/m 29,9 km/h (5 Bft) O 83 1 min 0,000 mm 0,0 UV-I 130 W/m 1,0 C -5,2 C 37,0 km/h (5 Bft) 100,00 %
16.03.2016 16:55 5,8 C 72 % 1025,9 hPa 0,0 l/m 25,1 km/h (4 Bft) O-NO 76 1 min 0,000 mm 0,0 UV-I 128 W/m 1,2 C -3,9 C 35,4 km/h (5 Bft) 100,00 %
16.03.2016 16:56 5,8 C 72 % 1025,8 hPa 0,0 l/m 34,0 km/h (5 Bft) NO 52 1 min 0,000 mm 0,0 UV-I 130 W/m 1,2 C -6,2 C 43,5 km/h (6 Bft) 100,00 %
16.03.2016 16:57 5,7 C 71 % 1025,9 hPa 0,0 l/m 35,1 km/h (5 Bft) O-NO 58 1 min 0,000 mm 0,0 UV-I 129 W/m 0,9 C -6,6 C 46,7 km/h (6 Bft) 95,83 %
16.03.2016 16:58 5,8 C 71 % 1025,9 hPa 0,0 l/m 30,9 km/h (5 Bft) O 81 1 min 0,000 mm 0,0 UV-I 127 W/m 1,0 C -5,5 C 38,6 km/h (5 Bft) 100,00 %
16.03.2016 16:59 5,7 C 72 % 1025,9 hPa 0,0 l/m 26,8 km/h (4 Bft) O-NO 60 1 min 0,000 mm 0,0 UV-I 125 W/m 1,1 C -4,5 C 37,0 km/h (5 Bft) 100,00 %
16.03.2016 17:00 5,7 C 72 % 1025,9 hPa 0,0 l/m 24,0 km/h (4 Bft) O-NO 65 1 min 0,000 mm 0,0 UV-I 122 W/m 1,1 C -3,7 C 37,0 km/h (5 Bft) 100,00 %
16.03.2016 17:01 5,7 C 72 % 1025,9 hPa 0,0 l/m 20,8 km/h (4 Bft) O 82 1 min 0,152 mm 0,0 UV-I 120 W/m 1,1 C -2,6 C 27,4 km/h (4 Bft) 100,00 %
16.03.2016 17:02 5,7 C 72 % 1025,9 hPa 0,0 l/m 23,3 km/h (4 Bft) O-NO 64 1 min 0,000 mm 0,0 UV-I 118 W/m 1,1 C -3,4 C 35,4 km/h (5 Bft) 96,30 %
16.03.2016 17:03 5,7 C 73 % 1025,9 hPa 0,0 l/m 19,2 km/h (3 Bft) O-NO 61 1 min 0,000 mm 0,0 UV-I 115 W/m 1,2 C -2,0 C 24,1 km/h (4 Bft) 95,65 %
16.03.2016 17:04 5,6 C 73 % 1025,9 hPa 0,0 l/m 25,8 km/h (4 Bft) NO 53 1 min 0,000 mm 0,0 UV-I 112 W/m 1,2 C -4,4 C 32,2 km/h (5 Bft) 100,00 %
16.03.2016 17:05 5,6 C 73 % 1025,9 hPa 0,0 l/m 23,1 km/h (4 Bft) O-NO 58 1 min 0,000 mm 0,0 UV-I 109 W/m 1,2 C -3,5 C 32,2 km/h (5 Bft) 100,00 %
16.03.2016 17:06 5,6 C 73 % 1026,0 hPa 0,0 l/m 24,1 km/h (4 Bft) O-NO 65 1 min 0,000 mm 0,0 UV-I 106 W/m 1,2 C -3,8 C 30,6 km/h (5 Bft) 100,00 %
16.03.2016 17:07 5,6 C 73 % 1026,0 hPa 0,0 l/m 26,0 km/h (4 Bft) NO 46 1 min 0,000 mm 0,0 UV-I 104 W/m 1,2 C -4,4 C 32,2 km/h (5 Bft) 100,00 %
16.03.2016 17:08 5,6 C 73 % 1026,0 hPa 0,0 l/m 31,7 km/h (5 Bft) NO 51 1 min 0,000 mm 0,0 UV-I 99 W/m 1,2 C -5,9 C 46,7 km/h (6 Bft) 100,00 %
16.03.2016 17:09 5,6 C 72 % 1025,9 hPa 0,0 l/m 32,1 km/h (5 Bft) O-NO 68 1 min 0,000 mm 0,0 UV-I 96 W/m 1,0 C -6,0 C 38,6 km/h (5 Bft) 100,00 %
16.03.2016 17:10 5,5 C 72 % 1025,9 hPa 0,0 l/m 30,3 km/h (5 Bft) NO 42 1 min 0,000 mm 0,0 UV-I 94 W/m 0,9 C -5,7 C 38,6 km/h (5 Bft) 95,45 %
16.03.2016 17:11 5,5 C 73 % 1025,9 hPa 0,0 l/m 31,9 km/h (5 Bft) O-NO 57 1 min 0,000 mm 0,0 UV-I 92 W/m 1,1 C -6,1 C 40,2 km/h (6 Bft) 92,86 %
16.03.2016 17:12 5,5 C 72 % 1025,9 hPa 0,0 l/m 29,6 km/h (5 Bft) O-NO 64 1 min 0,000 mm 0,0 UV-I 91 W/m 0,9 C -5,6 C 33,8 km/h (5 Bft) 100,00 %
16.03.2016 17:13 5,5 C 73 % 1025,9 hPa 0,0 l/m 24,4 km/h (4 Bft) O-NO 65 1 min 0,000 mm 0,0 UV-I 88 W/m 1,1 C -4,1 C 33,8 km/h (5 Bft) 100,00 %
16.03.2016 17:14 5,4 C 74 % 1025,9 hPa 0,0 l/m 24,9 km/h (4 Bft) NO 35 1 min 0,000 mm 0,0 UV-I 86 W/m 1,1 C -4,4 C 38,6 km/h (5 Bft) 100,00 %
16.03.2016 17:15 5,4 C 73 % 1026,0 hPa 0,0 l/m 31,0 km/h (5 Bft) NO 50 1 min 0,000 mm 0,0 UV-I 83 W/m 1,0 C -6,1 C 35,4 km/h (5 Bft) 100,00 %
16.03.2016 17:16 5,4 C 73 % 1025,9 hPa 0,0 l/m 29,5 km/h (5 Bft) O-NO 57 1 min 0,000 mm 0,0 UV-I 80 W/m 1,0 C -5,7 C 40,2 km/h (6 Bft) 100,00 %
16.03.2016 17:17 5,4 C 73 % 1026,0 hPa 0,0 l/m 35,3 km/h (5 Bft) O-NO 67 1 min 0,000 mm 0,0 UV-I 78 W/m 1,0 C -7,0 C 45,1 km/h (6 Bft) 100,00 %
16.03.2016 17:18 5,4 C 73 % 1025,9 hPa 0,0 l/m 30,2 km/h (5 Bft) NO 45 0 min 0,000 mm 0,0 UV-I 74 W/m 1,0 C -5,9 C 38,6 km/h (5 Bft) 100,00 %
16.03.2016 17:19 5,3 C 73 % 1025,9 hPa 0,0 l/m 27,8 km/h (4 Bft) O-NO 70 0 min 0,000 mm 0,0 UV-I 72 W/m 0,9 C -5,4 C 37,0 km/h (5 Bft) 100,00 %
16.03.2016 17:20 5,3 C 73 % 1026,0 hPa 0,0 l/m 26,2 km/h (4 Bft) O-NO 69 0 min 0,000 mm 0,0 UV-I 68 W/m 0,9 C -4,9 C 38,6 km/h (5 Bft) 100,00 %
16.03.2016 17:21 5,3 C 73 % 1026,0 hPa 0,0 l/m 26,1 km/h (4 Bft) O-NO 67 0 min 0,000 mm 0,0 UV-I 65 W/m 0,9 C -4,9 C 33,8 km/h (5 Bft) 96,30 %
16.03.2016 17:22 5,3 C 73 % 1026,0 hPa 0,0 l/m 23,2 km/h (4 Bft) O-NO 60 0 min 0,000 mm 0,0 UV-I 62 W/m 0,9 C -4,0 C 33,8 km/h (5 Bft) 100,00 %
16.03.2016 17:23 5,3 C 73 % 1025,9 hPa 0,0 l/m 30,6 km/h (5 Bft) O 79 0 min 0,000 mm 0,0 UV-I 61 W/m 0,9 C -6,1 C 40,2 km/h (6 Bft) 100,00 %
16.03.2016 17:24 5,2 C 73 % 1025,9 hPa 0,0 l/m 33,8 km/h (5 Bft) O 83 0 min 0,000 mm 0,0 UV-I 58 W/m 0,8 C -7,0 C 43,5 km/h (6 Bft) 100,00 %
16.03.2016 17:25 5,2 C 73 % 1025,9 hPa 0,0 l/m 28,8 km/h (4 Bft) O-NO 62 0 min 0,000 mm 0,0 UV-I 56 W/m 0,8 C -5,8 C 33,8 km/h (5 Bft) 100,00 %
16.03.2016 17:26 5,2 C 73 % 1026,0 hPa 0,0 l/m 24,5 km/h (4 Bft) O-NO 57 0 min 0,000 mm 0,0 UV-I 52 W/m 0,8 C -4,5 C 37,0 km/h (5 Bft) 100,00 %
16.03.2016 17:27 5,2 C 73 % 1025,9 hPa 0,0 l/m 27,3 km/h (4 Bft) O-NO 62 0 min 0,000 mm 0,0 UV-I 50 W/m 0,8 C -5,4 C 37,0 km/h (5 Bft) 100,00 %
16.03.2016 17:28 5,2 C 73 % 1025,9 hPa 0,0 l/m 25,5 km/h (4 Bft) O 84 0 min 0,000 mm 0,0 UV-I 47 W/m 0,8 C -4,8 C 33,8 km/h (5 Bft) 96,15 %
16.03.2016 17:29 5,2 C 73 % 1025,9 hPa 0,0 l/m 23,3 km/h (4 Bft) NO 55 0 min 0,000 mm 0,0 UV-I 44 W/m 0,8 C -4,1 C 33,8 km/h (5 Bft) 100,00 %
16.03.2016 17:30 5,2 C 73 % 1026,0 hPa 0,0 l/m 30,3 km/h (5 Bft) NO 46 0 min 0,000 mm 0,0 UV-I 42 W/m 0,8 C -6,2 C 40,2 km/h (6 Bft) 100,00 %
16.03.2016 17:31 5,2 C 73 % 1025,9 hPa 0,0 l/m 21,9 km/h (4 Bft) O-NO 76 0 min 0,000 mm 0,0 UV-I 38 W/m 0,8 C -3,6 C 30,6 km/h (5 Bft) 95,83 %
16.03.2016 17:32 5,2 C 74 % 1026,0 hPa 0,0 l/m 21,8 km/h (4 Bft) NO 43 0 min 0,000 mm 0,0 UV-I 30 W/m 1,0 C -3,6 C 25,7 km/h (4 Bft) 100,00 %
16.03.2016 17:33 5,2 C 74 % 1026,0 hPa 0,0 l/m 19,2 km/h (3 Bft) O-NO 60 0 min 0,000 mm 0,0 UV-I 25 W/m 1,0 C -2,6 C 27,4 km/h (4 Bft) 96,77 %
16.03.2016 17:34 5,2 C 74 % 1026,0 hPa 0,0 l/m 24,6 km/h (4 Bft) O-NO 63 0 min 0,000 mm 0,0 UV-I 23 W/m 1,0 C -4,5 C 37,0 km/h (5 Bft) 100,00 %
16.03.2016 17:35 5,1 C 74 % 1025,9 hPa 0,0 l/m 26,1 km/h (4 Bft) NO 52 0 min 0,000 mm 0,0 UV-I 22 W/m 0,9 C -5,1 C 30,6 km/h (5 Bft) 93,33 %
16.03.2016 17:36 5,1 C 74 % 1026,0 hPa 0,0 l/m 25,4 km/h (4 Bft) N-NO 33 0 min 0,000 mm 0,0 UV-I 21 W/m 0,9 C -4,9 C 30,6 km/h (5 Bft) 96,30 %
16.03.2016 17:37 5,1 C 74 % 1026,0 hPa 0,0 l/m 26,4 km/h (4 Bft) O-NO 68 0 min 0,000 mm 0,0 UV-I 21 W/m 0,9 C -5,2 C 32,2 km/h (5 Bft) 94,12 %
16.03.2016 17:38 5,1 C 74 % 1026,0 hPa 0,0 l/m 23,7 km/h (4 Bft) NO 51 0 min 0,000 mm 0,0 UV-I 21 W/m 0,9 C -4,4 C 32,2 km/h (5 Bft) 100,00 %
16.03.2016 17:39 5,1 C 74 % 1026,0 hPa 0,0 l/m 21,7 km/h (4 Bft) NO 43 0 min 0,000 mm 0,0 UV-I 21 W/m 0,9 C -3,7 C 25,7 km/h (4 Bft) 96,55 %
16.03.2016 17:40 5,1 C 75 % 1026,1 hPa 0,0 l/m 25,2 km/h (4 Bft) O-NO 67 0 min 0,000 mm 0,0 UV-I 20 W/m 1,0 C -4,9 C 32,2 km/h (5 Bft) 96,30 %
16.03.2016 17:41 5,0 C 74 % 1026,1 hPa 0,0 l/m 25,7 km/h (4 Bft) O-NO 65 0 min 0,000 mm 0,0 UV-I 19 W/m 0,8 C -5,2 C 33,8 km/h (5 Bft) 95,65 %
16.03.2016 17:42 5,1 C 75 % 1026,1 hPa 0,0 l/m 27,7 km/h (4 Bft) NO 44 0 min 0,000 mm 0,0 UV-I 19 W/m 1,0 C -5,6 C 37,0 km/h (5 Bft) 96,30 %
16.03.2016 17:43 5,0 C 74 % 1026,0 hPa 0,0 l/m 27,0 km/h (4 Bft) NO 53 0 min 0,000 mm 0,0 UV-I 19 W/m 0,8 C -5,6 C 32,2 km/h (5 Bft) 100,00 %
16.03.2016 17:44 4,9 C 75 % 1026,1 hPa 0,0 l/m 31,6 km/h (5 Bft) NO 40 0 min 0,000 mm 0,0 UV-I 19 W/m 0,8 C -6,9 C 40,2 km/h (6 Bft) 96,97 %
16.03.2016 17:45 4,9 C 75 % 1026,0 hPa 0,0 l/m 29,0 km/h (5 Bft) O-NO 74 0 min 0,000 mm 0,0 UV-I 19 W/m 0,8 C -6,3 C 41,8 km/h (6 Bft) 100,00 %
16.03.2016 17:46 4,9 C 75 % 1026,0 hPa 0,0 l/m 25,6 km/h (4 Bft) O-NO 61 0 min 0,000 mm 0,0 UV-I 18 W/m 0,8 C -5,3 C 32,2 km/h (5 Bft) 91,67 %
16.03.2016 17:47 4,9 C 75 % 1026,0 hPa 0,0 l/m 25,1 km/h (4 Bft) O 79 0 min 0,000 mm 0,0 UV-I 18 W/m 0,8 C -5,1 C 32,2 km/h (5 Bft) 100,00 %
16.03.2016 17:48 4,9 C 75 % 1026,0 hPa 0,0 l/m 27,1 km/h (4 Bft) O-NO 59 0 min 0,000 mm 0,0 UV-I 18 W/m 0,8 C -5,7 C 37,0 km/h (5 Bft) 96,30 %
16.03.2016 17:49 4,9 C 75 % 1026,0 hPa 0,0 l/m 21,7 km/h (4 Bft) NO 50 0 min 0,000 mm 0,0 UV-I 18 W/m 0,8 C -4,0 C 27,4 km/h (4 Bft) 95,65 %
16.03.2016 17:50 4,9 C 75 % 1026,0 hPa 0,0 l/m 25,4 km/h (4 Bft) NO 45 0 min 0,000 mm 0,0 UV-I 16 W/m 0,8 C -5,2 C 33,8 km/h (5 Bft) 100,00 %
16.03.2016 17:51 4,9 C 75 % 1026,0 hPa 0,0 l/m 27,4 km/h (4 Bft) NO 43 0 min 0,000 mm 0,0 UV-I 16 W/m 0,8 C -5,8 C 35,4 km/h (5 Bft) 95,65 %
16.03.2016 17:52 4,8 C 76 % 1026,0 hPa 0,0 l/m 22,8 km/h (4 Bft) NO 42 0 min 0,000 mm 0,0 UV-I 16 W/m 0,9 C -4,5 C 30,6 km/h (5 Bft) 100,00 %
16.03.2016 17:53 4,8 C 76 % 1026,1 hPa 0,0 l/m 22,1 km/h (4 Bft) O-NO 64 0 min 0,000 mm 0,0 UV-I 16 W/m 0,9 C -4,2 C 32,2 km/h (5 Bft) 96,55 %
16.03.2016 17:54 4,8 C 76 % 1026,1 hPa 0,0 l/m 23,1 km/h (4 Bft) NO 42 0 min 0,000 mm 0,0 UV-I 14 W/m 0,9 C -4,6 C 33,8 km/h (5 Bft) 96,30 %
16.03.2016 17:55 4,8 C 76 % 1026,1 hPa 0,0 l/m 21,2 km/h (4 Bft) O-NO 67 0 min 0,000 mm 0,0 UV-I 14 W/m 0,9 C -3,9 C 29,0 km/h (5 Bft) 100,00 %
16.03.2016 17:56 4,8 C 76 % 1026,1 hPa 0,0 l/m 30,4 km/h (5 Bft) O-NO 59 0 min 0,000 mm 0,0 UV-I 14 W/m 0,9 C -6,8 C 38,6 km/h (5 Bft) 100,00 %
16.03.2016 17:57 4,7 C 76 % 1026,1 hPa 0,0 l/m 28,8 km/h (4 Bft) NO 55 0 min 0,000 mm 0,0 UV-I 13 W/m 0,8 C -6,5 C 35,4 km/h (5 Bft) 95,83 %
16.03.2016 17:58 4,7 C 76 % 1026,1 hPa 0,0 l/m 22,4 km/h (4 Bft) NO 52 0 min 0,000 mm 0,0 UV-I 12 W/m 0,8 C -4,5 C 25,7 km/h (4 Bft) 96,55 %
16.03.2016 17:59 4,7 C 77 % 1026,2 hPa 0,0 l/m 16,7 km/h (3 Bft) O-NO 65 1 min 0,000 mm 0,0 UV-I 12 W/m 1,0 C -2,1 C 20,9 km/h (4 Bft) 100,00 %
16.03.2016 18:00 4,7 C 77 % 1026,2 hPa 0,0 l/m 17,1 km/h (3 Bft) O-NO 71 1 min 0,000 mm 0,0 UV-I 12 W/m 1,0 C -2,3 C 20,9 km/h (4 Bft) 96,55 %
16.03.2016 18:02 4,6 C 77 % 1026,1 hPa 0,0 l/m 20,9 km/h (4 Bft) O 94 0 min 0,076 mm 0,0 UV-I 11 W/m 0,9 C -4,0 C 35,4 km/h (5 Bft) 98,00 %
16.03.2016 18:03 4,6 C 77 % 1026,2 hPa 0,0 l/m 24,4 km/h (4 Bft) NO 51 0 min 0,000 mm 0,0 UV-I 11 W/m 0,9 C -5,3 C 30,6 km/h (5 Bft) 95,83 %
16.03.2016 18:04 4,6 C 77 % 1026,1 hPa 0,0 l/m 20,0 km/h (4 Bft) O-NO 69 0 min 0,000 mm 0,0 UV-I 10 W/m 0,9 C -3,7 C 25,7 km/h (4 Bft) 100,00 %
16.03.2016 18:05 4,6 C 77 % 1026,1 hPa 0,0 l/m 24,3 km/h (4 Bft) NO 55 0 min 0,000 mm 0,0 UV-I 9 W/m 0,9 C -5,3 C 33,8 km/h (5 Bft) 96,67 %
16.03.2016 18:06 4,6 C 78 % 1026,1 hPa 0,0 l/m 24,3 km/h (4 Bft) O-NO 69 0 min 0,000 mm 0,0 UV-I 9 W/m 1,1 C -5,3 C 35,4 km/h (5 Bft) 100,00 %
16.03.2016 18:07 4,5 C 78 % 1026,1 hPa 0,0 l/m 20,9 km/h (4 Bft) NO 38 0 min 0,000 mm 0,0 UV-I 7 W/m 1,0 C -4,2 C 27,4 km/h (4 Bft) 96,30 %
16.03.2016 18:08 4,5 C 78 % 1026,1 hPa 0,0 l/m 24,6 km/h (4 Bft) O-NO 61 0 min 0,000 mm 0,0 UV-I 7 W/m 1,0 C -5,5 C 40,2 km/h (6 Bft) 100,00 %
16.03.2016 18:09 4,4 C 78 % 1026,1 hPa 0,0 l/m 30,6 km/h (5 Bft) O-NO 74 0 min 0,000 mm 0,0 UV-I 7 W/m 0,9 C -7,4 C 41,8 km/h (6 Bft) 96,30 %
16.03.2016 18:10 4,4 C 78 % 1026,2 hPa 0,0 l/m 27,3 km/h (4 Bft) O-NO 72 0 min 0,000 mm 0,0 UV-I 6 W/m 0,9 C -6,5 C 33,8 km/h (5 Bft) 100,00 %
16.03.2016 18:11 4,4 C 78 % 1026,1 hPa 0,0 l/m 21,3 km/h (4 Bft) NO 49 0 min 0,000 mm 0,0 UV-I 5 W/m 0,9 C -4,5 C 33,8 km/h (5 Bft) 93,33 %
16.03.2016 18:12 4,4 C 78 % 1026,1 hPa 0,0 l/m 26,9 km/h (4 Bft) NO 49 0 min 0,000 mm 0,0 UV-I 5 W/m 0,9 C -6,3 C 35,4 km/h (5 Bft) 95,65 %
16.03.2016 18:13 4,4 C 78 % 1026,1 hPa 0,0 l/m 22,4 km/h (4 Bft) O-NO 57 0 min 0,000 mm 0,0 UV-I 5 W/m 0,9 C -4,9 C 29,0 km/h (5 Bft) 100,00 %
16.03.2016 18:14 4,4 C 78 % 1026,2 hPa 0,0 l/m 23,1 km/h (4 Bft) N-NO 20 0 min 0,000 mm 0,0 UV-I 5 W/m 0,9 C -5,1 C 32,2 km/h (5 Bft) 100,00 %
16.03.2016 18:15 4,3 C 79 % 1026,2 hPa 0,0 l/m 20,4 km/h (4 Bft) O-NO 57 0 min 0,000 mm 0,0 UV-I 2 W/m 1,0 C -4,2 C 25,7 km/h (4 Bft) 96,30 %
16.03.2016 18:16 4,3 C 79 % 1026,2 hPa 0,0 l/m 24,4 km/h (4 Bft) N-NO 31 0 min 0,000 mm 0,0 UV-I 0 W/m 1,0 C -5,7 C 32,2 km/h (5 Bft) 100,00 %
16.03.2016 18:17 4,3 C 79 % 1026,2 hPa 0,0 l/m 23,7 km/h (4 Bft) NO 49 0 min 0,000 mm 0,0 UV-I 0 W/m 1,0 C -5,5 C 29,0 km/h (5 Bft) 100,00 %
16.03.2016 18:18 4,3 C 79 % 1026,2 hPa 0,0 l/m 20,1 km/h (4 Bft) NO 56 0 min 0,000 mm 0,0 UV-I 0 W/m 1,0 C -4,1 C 27,4 km/h (4 Bft) 93,33 %
16.03.2016 18:19 4,3 C 79 % 1026,2 hPa 0,0 l/m 16,7 km/h (3 Bft) O-NO 62 0 min 0,000 mm 0,0 UV-I 0 W/m 1,0 C -2,6 C 19,3 km/h (3 Bft) 100,00 %
16.03.2016 18:20 4,3 C 79 % 1026,2 hPa 0,0 l/m 21,3 km/h (4 Bft) O-NO 59 0 min 0,000 mm 0,0 UV-I 0 W/m 1,0 C -4,6 C 29,0 km/h (5 Bft) 100,00 %
16.03.2016 18:21 4,2 C 79 % 1026,2 hPa 0,0 l/m 20,6 km/h (4 Bft) NO 49 0 min 0,000 mm 0,0 UV-I 0 W/m 0,9 C -4,4 C 29,0 km/h (5 Bft) 100,00 %
16.03.2016 18:24 4,2 C 79 % 1026,2 hPa 0,0 l/m 22,1 km/h (4 Bft) O-NO 61 0 min 0,000 mm 0,0 UV-I 0 W/m 0,9 C -5,0 C 27,4 km/h (4 Bft) 100,00 %
16.03.2016 18:25 4,2 C 80 % 1026,2 hPa 0,0 l/m 25,9 km/h (4 Bft) O 90 0 min 0,000 mm 0,0 UV-I 0 W/m 1,1 C -6,3 C 30,6 km/h (5 Bft) 100,00 %
16.03.2016 18:26 4,2 C 79 % 1026,2 hPa 0,0 l/m 22,2 km/h (4 Bft) O-NO 76 0 min 0,000 mm 0,0 UV-I 0 W/m 0,9 C -5,1 C 27,4 km/h (4 Bft) 100,00 %
16.03.2016 18:27 4,2 C 80 % 1026,2 hPa 0,0 l/m 20,8 km/h (4 Bft) NO 54 0 min 0,000 mm 0,0 UV-I 0 W/m 1,1 C -4,5 C 27,4 km/h (4 Bft) 90,91 %
16.03.2016 18:28 4,1 C 80 % 1026,2 hPa 0,0 l/m 26,4 km/h (4 Bft) O-NO 59 0 min 0,000 mm 0,0 UV-I 0 W/m 1,0 C -6,6 C 35,4 km/h (5 Bft) 100,00 %
16.03.2016 18:29 4,1 C 80 % 1026,2 hPa 0,0 l/m 26,1 km/h (4 Bft) NO 47 0 min 0,000 mm 0,0 UV-I 0 W/m 1,0 C -6,5 C 35,4 km/h (5 Bft) 100,00 %
16.03.2016 18:30 4,1 C 80 % 1026,2 hPa 0,0 l/m 25,5 km/h (4 Bft) O-NO 71 0 min 0,000 mm 0,0 UV-I 0 W/m 1,0 C -6,3 C 32,2 km/h (5 Bft) 100,00 %
16.03.2016 18:31 4,1 C 80 % 1026,2 hPa 0,0 l/m 25,8 km/h (4 Bft) NO 52 0 min 0,000 mm 0,0 UV-I 0 W/m 1,0 C -6,4 C 35,4 km/h (5 Bft) 96,55 %
16.03.2016 18:32 4,1 C 80 % 1026,2 hPa 0,0 l/m 28,4 km/h (4 Bft) O-NO 57 0 min 0,000 mm 0,0 UV-I 0 W/m 1,0 C -7,2 C 41,8 km/h (6 Bft) 100,00 %
16.03.2016 18:33 4,1 C 80 % 1026,2 hPa 0,0 l/m 31,0 km/h (5 Bft) O-NO 69 0 min 0,000 mm 0,0 UV-I 0 W/m 1,0 C -7,9 C 38,6 km/h (5 Bft) 100,00 %
16.03.2016 18:34 4,1 C 80 % 1026,2 hPa 0,0 l/m 25,0 km/h (4 Bft) O-NO 60 0 min 0,000 mm 0,0 UV-I 0 W/m 1,0 C -6,2 C 32,2 km/h (5 Bft) 100,00 %
16.03.2016 18:35 4,1 C 80 % 1026,2 hPa 0,0 l/m 21,3 km/h (4 Bft) NO 53 0 min 0,000 mm 0,0 UV-I 0 W/m 1,0 C -4,9 C 29,0 km/h (5 Bft) 100,00 %
16.03.2016 18:36 4,1 C 80 % 1026,2 hPa 0,0 l/m 28,1 km/h (4 Bft) O-NO 57 0 min 0,000 mm 0,0 UV-I 0 W/m 1,0 C -7,1 C 37,0 km/h (5 Bft) 100,00 %
16.03.2016 18:37 4,1 C 80 % 1026,2 hPa 0,0 l/m 26,4 km/h (4 Bft) O-NO 75 0 min 0,000 mm 0,0 UV-I 0 W/m 1,0 C -6,6 C 41,8 km/h (6 Bft) 100,00 %
16.03.2016 18:38 4,1 C 80 % 1026,3 hPa 0,0 l/m 23,7 km/h (4 Bft) NO 45 0 min 0,000 mm 0,0 UV-I 0 W/m 1,0 C -5,7 C 32,2 km/h (5 Bft) 100,00 %
16.03.2016 18:39 4,1 C 80 % 1026,2 hPa 0,0 l/m 23,7 km/h (4 Bft) NO 52 0 min 0,000 mm 0,0 UV-I 0 W/m 1,0 C -5,7 C 33,8 km/h (5 Bft) 100,00 %
16.03.2016 18:40 4,1 C 80 % 1026,2 hPa 0,0 l/m 30,7 km/h (5 Bft) O-NO 65 0 min 0,000 mm 0,0 UV-I 0 W/m 1,0 C -7,8 C 37,0 km/h (5 Bft) 100,00 %
16.03.2016 18:41 4,1 C 80 % 1026,2 hPa 0,0 l/m 22,5 km/h (4 Bft) O-NO 65 0 min 0,000 mm 0,0 UV-I 0 W/m 1,0 C -5,3 C 30,6 km/h (5 Bft) 100,00 %
16.03.2016 18:42 4,1 C 80 % 1026,3 hPa 0,0 l/m 25,6 km/h (4 Bft) NO 38 0 min 0,000 mm 0,0 UV-I 0 W/m 1,0 C -6,4 C 33,8 km/h (5 Bft) 100,00 %
16.03.2016 18:43 4,0 C 80 % 1026,3 hPa 0,0 l/m 29,2 km/h (5 Bft) NO 51 0 min 0,000 mm 0,0 UV-I 0 W/m 0,9 C -7,6 C 35,4 km/h (5 Bft) 100,00 %
16.03.2016 18:44 4,0 C 80 % 1026,3 hPa 0,0 l/m 28,7 km/h (4 Bft) O-NO 63 0 min 0,000 mm 0,0 UV-I 0 W/m 0,9 C -7,4 C 33,8 km/h (5 Bft) 100,00 %
16.03.2016 18:45 4,0 C 80 % 1026,3 hPa 0,0 l/m 24,5 km/h (4 Bft) NO 50 0 min 0,000 mm 0,0 UV-I 0 W/m 0,9 C -6,1 C 30,6 km/h (5 Bft) 100,00 %
16.03.2016 18:46 4,0 C 80 % 1026,4 hPa 0,0 l/m 26,2 km/h (4 Bft) NO 44 0 min 0,000 mm 0,0 UV-I 0 W/m 0,9 C -6,7 C 33,8 km/h (5 Bft) 97,56 %
16.03.2016 18:47 4,0 C 80 % 1026,4 hPa 0,0 l/m 21,0 km/h (4 Bft) O-NO 67 0 min 0,000 mm 0,0 UV-I 0 W/m 0,9 C -4,9 C 35,4 km/h (5 Bft) 100,00 %
16.03.2016 18:48 3,9 C 80 % 1026,4 hPa 0,0 l/m 25,1 km/h (4 Bft) NO 53 0 min 0,000 mm 0,0 UV-I 0 W/m 0,8 C -6,5 C 37,0 km/h (5 Bft) 98,55 %
16.03.2016 18:49 3,9 C 80 % 1026,4 hPa 0,0 l/m 21,2 km/h (4 Bft) O-NO 59 0 min 0,000 mm 0,0 UV-I 0 W/m 0,8 C -5,1 C 29,0 km/h (5 Bft) 100,00 %
16.03.2016 18:50 3,9 C 81 % 1026,5 hPa 0,0 l/m 24,6 km/h (4 Bft) O-NO 73 0 min 0,000 mm 0,0 UV-I 0 W/m 0,9 C -6,3 C 32,2 km/h (5 Bft) 100,00 %
16.03.2016 18:51 3,9 C 80 % 1026,4 hPa 0,0 l/m 26,1 km/h (4 Bft) O-NO 69 0 min 0,000 mm 0,0 UV-I 0 W/m 0,8 C -6,8 C 30,6 km/h (5 Bft) 100,00 %
16.03.2016 18:52 3,8 C 80 % 1026,4 hPa 0,0 l/m 28,2 km/h (4 Bft) O-NO 57 0 min 0,000 mm 0,0 UV-I 0 W/m 0,7 C -7,6 C 33,8 km/h (5 Bft) 100,00 %
16.03.2016 18:53 3,8 C 80 % 1026,4 hPa 0,0 l/m 20,6 km/h (4 Bft) O-NO 60 0 min 0,000 mm 0,0 UV-I 0 W/m 0,7 C -5,0 C 29,0 km/h (5 Bft) 92,59 %
16.03.2016 18:54 3,8 C 81 % 1026,4 hPa 0,0 l/m 26,4 km/h (4 Bft) O-NO 59 0 min 0,000 mm 0,0 UV-I 0 W/m 0,8 C -7,0 C 35,4 km/h (5 Bft) 100,00 %
16.03.2016 18:55 3,8 C 81 % 1026,4 hPa 0,0 l/m 21,4 km/h (4 Bft) NO 47 0 min 0,000 mm 0,0 UV-I 0 W/m 0,8 C -5,3 C 27,4 km/h (4 Bft) 100,00 %
16.03.2016 18:56 3,8 C 81 % 1026,5 hPa 0,0 l/m 23,3 km/h (4 Bft) O 92 0 min 0,000 mm 0,0 UV-I 0 W/m 0,8 C -6,0 C 30,6 km/h (5 Bft) 100,00 %
16.03.2016 18:57 3,8 C 81 % 1026,5 hPa 0,0 l/m 25,6 km/h (4 Bft) O-NO 58 0 min 0,000 mm 0,0 UV-I 0 W/m 0,8 C -6,8 C 30,6 km/h (5 Bft) 100,00 %
16.03.2016 18:58 3,8 C 81 % 1026,5 hPa 0,0 l/m 23,5 km/h (4 Bft) NO 35 0 min 0,000 mm 0,0 UV-I 0 W/m 0,8 C -6,1 C 30,6 km/h (5 Bft) 100,00 %
16.03.2016 18:59 3,8 C 81 % 1026,4 hPa 0,0 l/m 21,9 km/h (4 Bft) O-NO 61 0 min 0,000 mm 0,0 UV-I 0 W/m 0,8 C -5,5 C 27,4 km/h (4 Bft) 100,00 %
16.03.2016 19:00 3,7 C 81 % 1026,5 hPa 0,0 l/m 22,8 km/h (4 Bft) O-NO 58 0 min 0,051 mm 0,0 UV-I 0 W/m 0,7 C -5,9 C 30,6 km/h (5 Bft) 100,00 %
16.03.2016 19:01 3,7 C 81 % 1026,5 hPa 0,0 l/m 27,4 km/h (4 Bft) O-NO 76 0 min 0,000 mm 0,0 UV-I 0 W/m 0,7 C -7,5 C 35,4 km/h (5 Bft) 93,33 %
16.03.2016 19:02 3,7 C 82 % 1026,4 hPa 0,0 l/m 24,1 km/h (4 Bft) O 89 0 min 0,000 mm 0,0 UV-I 0 W/m 0,9 C -6,4 C 32,2 km/h (5 Bft) 100,00 %
16.03.2016 19:03 3,7 C 81 % 1026,4 hPa 0,0 l/m 22,5 km/h (4 Bft) NO 55 0 min 0,000 mm 0,0 UV-I 0 W/m 0,7 C -5,8 C 29,0 km/h (5 Bft) 100,00 %
16.03.2016 19:04 3,7 C 82 % 1026,4 hPa 0,0 l/m 22,2 km/h (4 Bft) O 84 0 min 0,000 mm 0,0 UV-I 0 W/m 0,9 C -5,7 C 30,6 km/h (5 Bft) 100,00 %
16.03.2016 19:05 3,7 C 82 % 1026,5 hPa 0,0 l/m 24,0 km/h (4 Bft) O 80 0 min 0,000 mm 0,0 UV-I 0 W/m 0,9 C -6,4 C 29,0 km/h (5 Bft) 100,00 %
16.03.2016 19:06 3,6 C 82 % 1026,5 hPa 0,0 l/m 21,5 km/h (4 Bft) O-NO 57 0 min 0,000 mm 0,0 UV-I 0 W/m 0,8 C -5,6 C 29,0 km/h (5 Bft) 96,30 %
16.03.2016 19:07 3,6 C 82 % 1026,5 hPa 0,0 l/m 24,8 km/h (4 Bft) O-NO 76 0 min 0,000 mm 0,0 UV-I 0 W/m 0,8 C -6,8 C 30,6 km/h (5 Bft) 100,00 %
16.03.2016 19:08 3,6 C 82 % 1026,4 hPa 0,0 l/m 25,9 km/h (4 Bft) O-NO 59 0 min 0,000 mm 0,0 UV-I 0 W/m 0,8 C -7,1 C 35,4 km/h (5 Bft) 100,00 %
16.03.2016 19:09 3,6 C 82 % 1026,4 hPa 0,0 l/m 29,5 km/h (5 Bft) O-NO 78 0 min 0,000 mm 0,0 UV-I 0 W/m 0,8 C -8,2 C 35,4 km/h (5 Bft) 100,00 %
16.03.2016 19:10 3,5 C 82 % 1026,4 hPa 0,0 l/m 24,2 km/h (4 Bft) NO 55 0 min 0,000 mm 0,0 UV-I 0 W/m 0,7 C -6,7 C 33,8 km/h (5 Bft) 100,00 %
16.03.2016 19:11 3,5 C 82 % 1026,4 hPa 0,0 l/m 23,3 km/h (4 Bft) O 80 0 min 0,000 mm 0,0 UV-I 0 W/m 0,7 C -6,4 C 29,0 km/h (5 Bft) 100,00 %
16.03.2016 19:12 3,5 C 83 % 1026,5 hPa 0,0 l/m 27,9 km/h (4 Bft) O-NO 58 0 min 0,000 mm 0,0 UV-I 0 W/m 0,9 C -7,9 C 37,0 km/h (5 Bft) 100,00 %
16.03.2016 19:13 3,5 C 82 % 1026,5 hPa 0,0 l/m 27,4 km/h (4 Bft) O-NO 57 0 min 0,000 mm 0,0 UV-I 0 W/m 0,7 C -7,7 C 41,8 km/h (6 Bft) 100,00 %
16.03.2016 19:14 3,5 C 83 % 1026,5 hPa 0,0 l/m 25,6 km/h (4 Bft) O-NO 59 0 min 0,000 mm 0,0 UV-I 0 W/m 0,9 C -7,2 C 30,6 km/h (5 Bft) 100,00 %
16.03.2016 19:15 3,4 C 83 % 1026,5 hPa 0,0 l/m 33,2 km/h (5 Bft) O-NO 61 0 min 0,000 mm 0,0 UV-I 0 W/m 0,8 C -9,4 C 43,5 km/h (6 Bft) 100,00 %
16.03.2016 19:16 3,4 C 83 % 1026,5 hPa 0,0 l/m 30,0 km/h (5 Bft) NO 55 0 min 0,000 mm 0,0 UV-I 0 W/m 0,8 C -8,6 C 38,6 km/h (5 Bft) 100,00 %
16.03.2016 19:17 3,4 C 83 % 1026,5 hPa 0,0 l/m 26,7 km/h (4 Bft) O-NO 59 0 min 0,000 mm 0,0 UV-I 0 W/m 0,8 C -7,7 C 35,4 km/h (5 Bft) 100,00 %
16.03.2016 19:18 3,4 C 83 % 1026,6 hPa 0,0 l/m 25,5 km/h (4 Bft) NO 51 0 min 0,000 mm 0,0 UV-I 0 W/m 0,8 C -7,3 C 37,0 km/h (5 Bft) 100,00 %
16.03.2016 19:19 3,4 C 83 % 1026,6 hPa 0,0 l/m 27,6 km/h (4 Bft) NO 37 0 min 0,000 mm 0,0 UV-I 0 W/m 0,8 C -7,9 C 32,2 km/h (5 Bft) 96,15 %
16.03.2016 19:20 3,4 C 83 % 1026,5 hPa 0,0 l/m 24,4 km/h (4 Bft) O-NO 58 0 min 0,000 mm 0,0 UV-I 0 W/m 0,8 C -6,9 C 30,6 km/h (5 Bft) 100,00 %
16.03.2016 19:21 3,4 C 83 % 1026,6 hPa 0,0 l/m 22,0 km/h (4 Bft) NO 34 0 min 0,000 mm 0,0 UV-I 0 W/m 0,8 C -6,0 C 25,7 km/h (4 Bft) 100,00 %
16.03.2016 19:22 3,4 C 83 % 1026,7 hPa 0,0 l/m 23,5 km/h (4 Bft) NO 40 0 min 0,000 mm 0,0 UV-I 0 W/m 0,8 C -6,6 C 33,8 km/h (5 Bft) 100,00 %
16.03.2016 19:23 3,4 C 83 % 1026,6 hPa 0,0 l/m 25,8 km/h (4 Bft) NO 38 0 min 0,000 mm 0,0 UV-I 0 W/m 0,8 C -7,4 C 35,4 km/h (5 Bft) 100,00 %
16.03.2016 19:24 3,3 C 83 % 1026,7 hPa 0,0 l/m 24,0 km/h (4 Bft) NO 34 0 min 0,000 mm 0,0 UV-I 0 W/m 0,7 C -6,9 C 30,6 km/h (5 Bft) 100,00 %
16.03.2016 19:25 3,3 C 83 % 1026,7 hPa 0,0 l/m 24,7 km/h (4 Bft) NO 42 0 min 0,000 mm 0,0 UV-I 0 W/m 0,7 C -7,1 C 32,2 km/h (5 Bft) 100,00 %
16.03.2016 19:26 3,3 C 83 % 1026,6 hPa 0,0 l/m 28,6 km/h (4 Bft) O-NO 67 0 min 0,000 mm 0,0 UV-I 0 W/m 0,7 C -8,4 C 35,4 km/h (5 Bft) 100,00 %
16.03.2016 19:27 3,3 C 83 % 1026,7 hPa 0,0 l/m 30,4 km/h (5 Bft) NO 48 0 min 0,000 mm 0,0 UV-I 0 W/m 0,7 C -8,9 C 43,5 km/h (6 Bft) 100,00 %
16.03.2016 19:28 3,3 C 83 % 1026,7 hPa 0,0 l/m 27,7 km/h (4 Bft) NO 49 0 min 0,000 mm 0,0 UV-I 0 W/m 0,7 C -8,1 C 37,0 km/h (5 Bft) 100,00 %
16.03.2016 19:29 3,3 C 83 % 1026,7 hPa 0,0 l/m 28,5 km/h (4 Bft) NO 56 0 min 0,000 mm 0,0 UV-I 0 W/m 0,7 C -8,3 C 35,4 km/h (5 Bft) 100,00 %
16.03.2016 19:30 3,3 C 84 % 1026,7 hPa 0,0 l/m 27,8 km/h (4 Bft) NO 53 0 min 0,000 mm 0,0 UV-I 0 W/m 0,9 C -8,1 C 35,4 km/h (5 Bft) 100,00 %
16.03.2016 19:31 3,3 C 84 % 1026,7 hPa 0,0 l/m 26,1 km/h (4 Bft) NO 54 0 min 0,000 mm 0,0 UV-I 0 W/m 0,9 C -7,6 C 33,8 km/h (5 Bft) 100,00 %
16.03.2016 19:32 3,3 C 84 % 1026,8 hPa 0,0 l/m 23,5 km/h (4 Bft) O-NO 69 0 min 0,000 mm 0,0 UV-I 0 W/m 0,9 C -6,7 C 32,2 km/h (5 Bft) 100,00 %
16.03.2016 19:33 3,3 C 84 % 1026,8 hPa 0,0 l/m 25,2 km/h (4 Bft) NO 38 0 min 0,000 mm 0,0 UV-I 0 W/m 0,9 C -7,3 C 33,8 km/h (5 Bft) 100,00 %
16.03.2016 19:34 3,3 C 84 % 1026,7 hPa 0,0 l/m 27,3 km/h (4 Bft) O-NO 63 0 min 0,000 mm 0,0 UV-I 0 W/m 0,9 C -8,0 C 33,8 km/h (5 Bft) 100,00 %
16.03.2016 19:35 3,3 C 84 % 1026,7 hPa 0,0 l/m 29,2 km/h (5 Bft) NO 55 0 min 0,000 mm 0,0 UV-I 0 W/m 0,9 C -8,5 C 38,6 km/h (5 Bft) 93,33 %
16.03.2016 19:36 3,3 C 84 % 1026,8 hPa 0,0 l/m 26,5 km/h (4 Bft) O-NO 67 0 min 0,000 mm 0,0 UV-I 0 W/m 0,9 C -7,7 C 40,2 km/h (6 Bft) 100,00 %
16.03.2016 19:37 3,3 C 84 % 1026,7 hPa 0,0 l/m 27,0 km/h (4 Bft) NO 53 0 min 0,000 mm 0,0 UV-I 0 W/m 0,9 C -7,9 C 33,8 km/h (5 Bft) 93,10 %
16.03.2016 19:38 3,3 C 84 % 1026,8 hPa 0,0 l/m 25,4 km/h (4 Bft) NO 44 0 min 0,000 mm 0,0 UV-I 0 W/m 0,9 C -7,4 C 32,2 km/h (5 Bft) 100,00 %
16.03.2016 19:39 3,3 C 84 % 1026,8 hPa 0,0 l/m 26,2 km/h (4 Bft) O-NO 69 0 min 0,000 mm 0,0 UV-I 0 W/m 0,9 C -7,6 C 30,6 km/h (5 Bft) 100,00 %
16.03.2016 19:40 3,3 C 84 % 1026,8 hPa 0,0 l/m 24,9 km/h (4 Bft) O-NO 67 0 min 0,000 mm 0,0 UV-I 0 W/m 0,9 C -7,2 C 33,8 km/h (5 Bft) 100,00 %
16.03.2016 19:41 3,3 C 84 % 1026,9 hPa 0,0 l/m 20,7 km/h (4 Bft) O-NO 77 0 min 0,000 mm 0,0 UV-I 0 W/m 0,9 C -5,7 C 24,1 km/h (4 Bft) 96,55 %
16.03.2016 19:42 3,2 C 84 % 1026,9 hPa 0,0 l/m 23,1 km/h (4 Bft) O-NO 59 0 min 0,000 mm 0,0 UV-I 0 W/m 0,8 C -6,7 C 32,2 km/h (5 Bft) 95,83 %
16.03.2016 19:43 3,2 C 84 % 1026,9 hPa 0,0 l/m 24,8 km/h (4 Bft) NO 51 0 min 0,000 mm 0,0 UV-I 0 W/m 0,8 C -7,3 C 35,4 km/h (5 Bft) 100,00 %
16.03.2016 19:44 3,2 C 84 % 1026,9 hPa 0,0 l/m 22,9 km/h (4 Bft) O-NO 68 0 min 0,000 mm 0,0 UV-I 0 W/m 0,8 C -6,6 C 29,0 km/h (5 Bft) 96,30 %
16.03.2016 19:45 3,2 C 84 % 1026,9 hPa 0,0 l/m 24,6 km/h (4 Bft) NO 43 0 min 0,000 mm 0,0 UV-I 0 W/m 0,8 C -7,2 C 33,8 km/h (5 Bft) 100,00 %
16.03.2016 19:46 3,2 C 84 % 1026,8 hPa 0,0 l/m 22,2 km/h (4 Bft) O-NO 63 0 min 0,000 mm 0,0 UV-I 0 W/m 0,8 C -6,4 C 29,0 km/h (5 Bft) 96,30 %
16.03.2016 19:47 3,2 C 84 % 1026,8 hPa 0,0 l/m 22,5 km/h (4 Bft) O-NO 64 0 min 0,000 mm 0,0 UV-I 0 W/m 0,8 C -6,5 C 25,7 km/h (4 Bft) 100,00 %
16.03.2016 19:48 3,2 C 84 % 1026,8 hPa 0,0 l/m 26,3 km/h (4 Bft) O 82 0 min 0,000 mm 0,0 UV-I 0 W/m 0,8 C -7,8 C 32,2 km/h (5 Bft) 96,67 %
16.03.2016 19:49 3,1 C 84 % 1026,8 hPa 0,0 l/m 23,9 km/h (4 Bft) O-NO 61 0 min 0,000 mm 0,0 UV-I 0 W/m 0,7 C -7,1 C 30,6 km/h (5 Bft) 96,55 %
16.03.2016 19:50 3,1 C 84 % 1026,8 hPa 0,0 l/m 24,9 km/h (4 Bft) O-NO 62 0 min 0,000 mm 0,0 UV-I 0 W/m 0,7 C -7,5 C 30,6 km/h (5 Bft) 98,59 %
16.03.2016 19:51 3,1 C 84 % 1026,8 hPa 0,0 l/m 21,7 km/h (4 Bft) O 82 0 min 0,000 mm 0,0 UV-I 0 W/m 0,7 C -6,3 C 35,4 km/h (5 Bft) 97,37 %
16.03.2016 19:52 3,1 C 84 % 1026,8 hPa 0,0 l/m 25,1 km/h (4 Bft) O-NO 57 0 min 0,000 mm 0,0 UV-I 0 W/m 0,7 C -7,6 C 32,2 km/h (5 Bft) 100,00 %
16.03.2016 19:53 3,1 C 84 % 1026,8 hPa 0,0 l/m 19,5 km/h (3 Bft) O-NO 67 0 min 0,000 mm 0,0 UV-I 0 W/m 0,7 C -5,4 C 27,4 km/h (4 Bft) 95,65 %
16.03.2016 19:54 3,1 C 84 % 1026,8 hPa 0,0 l/m 21,8 km/h (4 Bft) O-NO 66 0 min 0,000 mm 0,0 UV-I 0 W/m 0,7 C -6,4 C 27,4 km/h (4 Bft) 100,00 %
16.03.2016 19:55 3,1 C 84 % 1026,8 hPa 0,0 l/m 28,0 km/h (4 Bft) O-NO 73 0 min 0,000 mm 0,0 UV-I 0 W/m 0,7 C -8,5 C 38,6 km/h (5 Bft) 93,33 %
16.03.2016 19:56 3,1 C 84 % 1026,8 hPa 0,0 l/m 27,1 km/h (4 Bft) O-NO 63 0 min 0,000 mm 0,0 UV-I 0 W/m 0,7 C -8,2 C 35,4 km/h (5 Bft) 100,00 %
16.03.2016 19:57 3,1 C 84 % 1026,8 hPa 0,0 l/m 20,6 km/h (4 Bft) O-NO 73 0 min 0,000 mm 0,0 UV-I 0 W/m 0,7 C -5,9 C 29,0 km/h (5 Bft) 96,55 %
16.03.2016 19:58 3,1 C 84 % 1026,8 hPa 0,0 l/m 20,9 km/h (4 Bft) O-NO 67 0 min 0,000 mm 0,0 UV-I 0 W/m 0,7 C -6,0 C 30,6 km/h (5 Bft) 100,00 %
16.03.2016 19:59 3,1 C 84 % 1026,8 hPa 0,0 l/m 21,8 km/h (4 Bft) O-NO 78 0 min 0,000 mm 0,0 UV-I 0 W/m 0,7 C -6,4 C 32,2 km/h (5 Bft) 96,30 %
16.03.2016 20:00 3,0 C 84 % 1026,8 hPa 0,0 l/m 18,9 km/h (3 Bft) O-NO 59 0 min 0,000 mm 0,0 UV-I 0 W/m 0,6 C -5,3 C 32,2 km/h (5 Bft) 91,30 %
16.03.2016 20:01 3,0 C 84 % 1026,8 hPa 0,0 l/m 25,3 km/h (4 Bft) O-NO 70 0 min 0,026 mm 0,0 UV-I 0 W/m 0,6 C -7,8 C 33,8 km/h (5 Bft) 100,00 %
16.03.2016 20:02 3,0 C 84 % 1026,8 hPa 0,0 l/m 22,3 km/h (4 Bft) O-NO 60 0 min 0,000 mm 0,0 UV-I 0 W/m 0,6 C -6,7 C 27,4 km/h (4 Bft) 95,65 %
16.03.2016 20:03 3,0 C 84 % 1026,8 hPa 0,0 l/m 22,3 km/h (4 Bft) O-NO 60 0 min 0,000 mm 0,0 UV-I 0 W/m 0,6 C -6,7 C 32,2 km/h (5 Bft) 96,30 %
16.03.2016 20:04 3,0 C 84 % 1026,7 hPa 0,0 l/m 20,4 km/h (4 Bft) O-NO 60 0 min 0,000 mm 0,0 UV-I 0 W/m 0,6 C -5,9 C 29,0 km/h (5 Bft) 100,00 %
16.03.2016 20:05 3,0 C 84 % 1026,7 hPa 0,0 l/m 21,6 km/h (4 Bft) O-NO 73 0 min 0,000 mm 0,0 UV-I 0 W/m 0,6 C -6,4 C 29,0 km/h (5 Bft) 95,83 %
16.03.2016 20:06 3,0 C 84 % 1026,8 hPa 0,0 l/m 21,9 km/h (4 Bft) O-NO 70 0 min 0,000 mm 0,0 UV-I 0 W/m 0,6 C -6,5 C 25,7 km/h (4 Bft) 100,00 %
16.03.2016 20:07 3,0 C 84 % 1026,8 hPa 0,0 l/m 24,9 km/h (4 Bft) NO 39 0 min 0,000 mm 0,0 UV-I 0 W/m 0,6 C -7,6 C 30,6 km/h (5 Bft) 96,30 %
16.03.2016 20:08 3,0 C 84 % 1026,8 hPa 0,0 l/m 23,5 km/h (4 Bft) O-NO 78 0 min 0,000 mm 0,0 UV-I 0 W/m 0,6 C -7,1 C 29,0 km/h (5 Bft) 100,00 %
16.03.2016 20:09 2,9 C 84 % 1026,8 hPa 0,0 l/m 18,9 km/h (3 Bft) O 82 0 min 0,000 mm 0,0 UV-I 0 W/m 0,5 C -5,4 C 24,1 km/h (4 Bft) 95,83 %
16.03.2016 20:10 2,9 C 84 % 1026,8 hPa 0,0 l/m 22,5 km/h (4 Bft) NO 44 0 min 0,000 mm 0,0 UV-I 0 W/m 0,5 C -6,9 C 27,4 km/h (4 Bft) 100,00 %
16.03.2016 20:11 2,9 C 84 % 1026,8 hPa 0,0 l/m 18,5 km/h (3 Bft) NO 45 0 min 0,000 mm 0,0 UV-I 0 W/m 0,5 C -5,2 C 30,6 km/h (5 Bft) 96,55 %
16.03.2016 20:12 2,9 C 84 % 1026,8 hPa 0,0 l/m 18,1 km/h (3 Bft) NO 48 0 min 0,000 mm 0,0 UV-I 0 W/m 0,5 C -5,0 C 22,5 km/h (4 Bft) 100,00 %
16.03.2016 20:13 2,9 C 84 % 1026,8 hPa 0,0 l/m 18,6 km/h (3 Bft) O-NO 57 0 min 0,000 mm 0,0 UV-I 0 W/m 0,5 C -5,3 C 20,9 km/h (4 Bft) 96,67 %
16.03.2016 20:14 2,9 C 84 % 1026,8 hPa 0,0 l/m 19,1 km/h (3 Bft) NO 50 0 min 0,000 mm 0,0 UV-I 0 W/m 0,5 C -5,5 C 22,5 km/h (4 Bft) 100,00 %
16.03.2016 20:15 2,9 C 84 % 1026,8 hPa 0,0 l/m 17,9 km/h (3 Bft) NO 38 0 min 0,000 mm 0,0 UV-I 0 W/m 0,5 C -4,9 C 20,9 km/h (4 Bft) 96,88 %
16.03.2016 20:16 2,9 C 84 % 1026,9 hPa 0,0 l/m 20,0 km/h (4 Bft) O-NO 62 0 min 0,000 mm 0,0 UV-I 0 W/m 0,5 C -5,9 C 25,7 km/h (4 Bft) 100,00 %
16.03.2016 20:17 2,9 C 85 % 1026,8 hPa 0,0 l/m 21,8 km/h (4 Bft) NO 55 0 min 0,000 mm 0,0 UV-I 0 W/m 0,6 C -6,6 C 25,7 km/h (4 Bft) 100,00 %
16.03.2016 20:18 2,8 C 85 % 1026,9 hPa 0,0 l/m 19,7 km/h (3 Bft) NO 44 0 min 0,000 mm 0,0 UV-I 0 W/m 0,5 C -5,9 C 24,1 km/h (4 Bft) 100,00 %
16.03.2016 20:19 2,8 C 85 % 1026,9 hPa 0,0 l/m 18,3 km/h (3 Bft) NO 56 0 min 0,000 mm 0,0 UV-I 0 W/m 0,5 C -5,3 C 22,5 km/h (4 Bft) 100,00 %
16.03.2016 20:20 2,8 C 85 % 1026,9 hPa 0,0 l/m 19,9 km/h (4 Bft) O-NO 73 0 min 0,000 mm 0,0 UV-I 0 W/m 0,5 C -6,0 C 27,4 km/h (4 Bft) 96,15 %
16.03.2016 20:21 2,8 C 85 % 1026,9 hPa 0,0 l/m 21,3 km/h (4 Bft) O-NO 66 0 min 0,000 mm 0,0 UV-I 0 W/m 0,5 C -6,6 C 30,6 km/h (5 Bft) 100,00 %
16.03.2016 20:22 2,8 C 85 % 1026,9 hPa 0,0 l/m 20,5 km/h (4 Bft) O-NO 64 0 min 0,000 mm 0,0 UV-I 0 W/m 0,5 C -6,2 C 24,1 km/h (4 Bft) 100,00 %
16.03.2016 20:23 2,8 C 85 % 1026,9 hPa 0,0 l/m 20,5 km/h (4 Bft) NO 51 0 min 0,000 mm 0,0 UV-I 0 W/m 0,5 C -6,2 C 27,4 km/h (4 Bft) 96,15 %
16.03.2016 20:24 2,7 C 85 % 1027,0 hPa 0,0 l/m 19,8 km/h (3 Bft) NO 54 0 min 0,000 mm 0,0 UV-I 0 W/m 0,4 C -6,1 C 24,1 km/h (4 Bft) 98,56 %
16.03.2016 20:25 2,8 C 85 % 1027,0 hPa 0,0 l/m 18,2 km/h (3 Bft) NO 39 0 min 0,000 mm 0,0 UV-I 0 W/m 0,5 C -5,2 C 20,9 km/h (4 Bft) 100,00 %
16.03.2016 20:26 2,7 C 85 % 1026,9 hPa 0,0 l/m 21,7 km/h (4 Bft) O-NO 67 0 min 0,000 mm 0,0 UV-I 0 W/m 0,4 C -6,8 C 27,4 km/h (4 Bft) 100,00 %
16.03.2016 20:27 2,7 C 85 % 1026,9 hPa 0,0 l/m 17,1 km/h (3 Bft) O-NO 75 0 min 0,000 mm 0,0 UV-I 0 W/m 0,4 C -4,8 C 20,9 km/h (4 Bft) 100,00 %
16.03.2016 20:28 2,7 C 85 % 1027,0 hPa 0,0 l/m 19,0 km/h (3 Bft) NO 56 0 min 0,000 mm 0,0 UV-I 0 W/m 0,4 C -5,7 C 30,6 km/h (5 Bft) 100,00 %
16.03.2016 20:29 2,7 C 85 % 1027,0 hPa 0,0 l/m 20,7 km/h (4 Bft) NO 49 0 min 0,000 mm 0,0 UV-I 0 W/m 0,4 C -6,4 C 32,2 km/h (5 Bft) 100,00 %
16.03.2016 20:30 2,7 C 85 % 1026,9 hPa 0,0 l/m 21,5 km/h (4 Bft) O-NO 69 0 min 0,000 mm 0,0 UV-I 0 W/m 0,4 C -6,8 C 27,4 km/h (4 Bft) 100,00 %
16.03.2016 20:31 2,7 C 85 % 1027,0 hPa 0,0 l/m 25,1 km/h (4 Bft) O 84 0 min 0,000 mm 0,0 UV-I 0 W/m 0,4 C -8,1 C 32,2 km/h (5 Bft) 100,00 %
16.03.2016 20:32 2,7 C 85 % 1026,9 hPa 0,0 l/m 21,5 km/h (4 Bft) O-NO 63 0 min 0,000 mm 0,0 UV-I 0 W/m 0,4 C -6,8 C 27,4 km/h (4 Bft) 100,00 %
16.03.2016 20:33 2,7 C 85 % 1026,9 hPa 0,0 l/m 21,0 km/h (4 Bft) NO 41 0 min 0,000 mm 0,0 UV-I 0 W/m 0,4 C -6,6 C 24,1 km/h (4 Bft) 100,00 %
16.03.2016 20:34 2,7 C 85 % 1027,0 hPa 0,0 l/m 21,2 km/h (4 Bft) NO 48 0 min 0,000 mm 0,0 UV-I 0 W/m 0,4 C -6,6 C 27,4 km/h (4 Bft) 100,00 %
16.03.2016 20:35 2,7 C 85 % 1026,9 hPa 0,0 l/m 19,7 km/h (3 Bft) O-NO 73 0 min 0,000 mm 0,0 UV-I 0 W/m 0,4 C -6,0 C 27,4 km/h (4 Bft) 100,00 %
16.03.2016 20:36 2,7 C 85 % 1026,9 hPa 0,0 l/m 19,8 km/h (3 Bft) O-NO 68 0 min 0,000 mm 0,0 UV-I 0 W/m 0,4 C -6,1 C 24,1 km/h (4 Bft) 100,00 %
16.03.2016 20:37 2,7 C 85 % 1026,9 hPa 0,0 l/m 18,4 km/h (3 Bft) NO 44 0 min 0,000 mm 0,0 UV-I 0 W/m 0,4 C -5,4 C 25,7 km/h (4 Bft) 100,00 %
16.03.2016 20:38 2,7 C 85 % 1026,9 hPa 0,0 l/m 17,9 km/h (3 Bft) O-NO 74 0 min 0,000 mm 0,0 UV-I 0 W/m 0,4 C -5,2 C 22,5 km/h (4 Bft) 100,00 %
16.03.2016 20:39 2,7 C 85 % 1027,0 hPa 0,0 l/m 20,6 km/h (4 Bft) O-NO 67 0 min 0,000 mm 0,0 UV-I 0 W/m 0,4 C -6,4 C 25,7 km/h (4 Bft) 95,65 %
16.03.2016 20:40 2,6 C 85 % 1026,9 hPa 0,0 l/m 25,9 km/h (4 Bft) O 84 0 min 0,000 mm 0,0 UV-I 0 W/m 0,3 C -8,5 C 33,8 km/h (5 Bft) 100,00 %
16.03.2016 20:41 2,6 C 85 % 1027,0 hPa 0,0 l/m 21,0 km/h (4 Bft) NO 54 0 min 0,000 mm 0,0 UV-I 0 W/m 0,3 C -6,7 C 30,6 km/h (5 Bft) 100,00 %
16.03.2016 20:42 2,6 C 85 % 1026,9 hPa 0,0 l/m 19,3 km/h (3 Bft) NO 47 0 min 0,000 mm 0,0 UV-I 0 W/m 0,3 C -6,0 C 22,5 km/h (4 Bft) 100,00 %
16.03.2016 20:43 2,6 C 86 % 1027,0 hPa 0,0 l/m 19,9 km/h (4 Bft) O-NO 65 0 min 0,000 mm 0,0 UV-I 0 W/m 0,5 C -6,2 C 24,1 km/h (4 Bft) 100,00 %
16.03.2016 20:44 2,6 C 86 % 1026,9 hPa 0,0 l/m 16,5 km/h (3 Bft) NO 41 0 min 0,000 mm 0,0 UV-I 0 W/m 0,5 C -4,6 C 20,9 km/h (4 Bft) 100,00 %
16.03.2016 20:45 2,6 C 85 % 1026,9 hPa 0,0 l/m 23,2 km/h (4 Bft) O-NO 59 0 min 0,000 mm 0,0 UV-I 0 W/m 0,3 C -7,6 C 30,6 km/h (5 Bft) 100,00 %
16.03.2016 20:46 2,6 C 86 % 1026,8 hPa 0,0 l/m 23,2 km/h (4 Bft) O-NO 59 0 min 0,000 mm 0,0 UV-I 0 W/m 0,5 C -7,6 C 29,0 km/h (5 Bft) 100,00 %
16.03.2016 20:47 2,6 C 86 % 1026,9 hPa 0,0 l/m 22,0 km/h (4 Bft) O-NO 69 0 min 0,000 mm 0,0 UV-I 0 W/m 0,5 C -7,1 C 29,0 km/h (5 Bft) 100,00 %
16.03.2016 20:48 2,6 C 85 % 1026,9 hPa 0,0 l/m 21,8 km/h (4 Bft) N-NO 32 0 min 0,000 mm 0,0 UV-I 0 W/m 0,3 C -7,0 C 29,0 km/h (5 Bft) 100,00 %
16.03.2016 20:49 2,6 C 85 % 1026,9 hPa 0,0 l/m 21,5 km/h (4 Bft) O-NO 71 0 min 0,000 mm 0,0 UV-I 0 W/m 0,3 C -6,9 C 25,7 km/h (4 Bft) 100,00 %
16.03.2016 20:50 2,6 C 85 % 1026,9 hPa 0,0 l/m 19,6 km/h (3 Bft) NO 48 0 min 0,000 mm 0,0 UV-I 0 W/m 0,3 C -6,1 C 24,1 km/h (4 Bft) 100,00 %
16.03.2016 20:51 2,6 C 85 % 1026,9 hPa 0,0 l/m 21,8 km/h (4 Bft) NO 40 0 min 0,000 mm 0,0 UV-I 0 W/m 0,3 C -7,0 C 29,0 km/h (5 Bft) 100,00 %
16.03.2016 20:52 2,6 C 85 % 1026,9 hPa 0,0 l/m 23,5 km/h (4 Bft) O-NO 60 0 min 0,000 mm 0,0 UV-I 0 W/m 0,3 C -7,7 C 27,4 km/h (4 Bft) 100,00 %
16.03.2016 20:53 2,6 C 85 % 1026,9 hPa 0,0 l/m 23,0 km/h (4 Bft) O-NO 63 0 min 0,000 mm 0,0 UV-I 0 W/m 0,3 C -7,5 C 29,0 km/h (5 Bft) 100,00 %
16.03.2016 20:54 2,6 C 85 % 1026,9 hPa 0,0 l/m 21,1 km/h (4 Bft) NO 36 0 min 0,000 mm 0,0 UV-I 0 W/m 0,3 C -6,7 C 27,4 km/h (4 Bft) 100,00 %
16.03.2016 20:55 2,6 C 85 % 1026,9 hPa 0,0 l/m 22,0 km/h (4 Bft) O-NO 57 0 min 0,000 mm 0,0 UV-I 0 W/m 0,3 C -7,1 C 29,0 km/h (5 Bft) 100,00 %
16.03.2016 20:56 2,5 C 85 % 1026,9 hPa 0,0 l/m 21,6 km/h (4 Bft) O 95 0 min 0,000 mm 0,0 UV-I 0 W/m 0,2 C -7,1 C 29,0 km/h (5 Bft) 100,00 %
16.03.2016 20:57 2,5 C 86 % 1026,9 hPa 0,0 l/m 22,0 km/h (4 Bft) O-NO 65 0 min 0,000 mm 0,0 UV-I 0 W/m 0,4 C -7,2 C 27,4 km/h (4 Bft) 100,00 %
16.03.2016 20:58 2,5 C 86 % 1026,9 hPa 0,0 l/m 21,6 km/h (4 Bft) NO 46 0 min 0,000 mm 0,0 UV-I 0 W/m 0,4 C -7,1 C 25,7 km/h (4 Bft) 100,00 %
16.03.2016 20:59 2,5 C 86 % 1026,9 hPa 0,0 l/m 23,3 km/h (4 Bft) NO 52 0 min 0,000 mm 0,0 UV-I 0 W/m 0,4 C -7,7 C 30,6 km/h (5 Bft) 100,00 %
16.03.2016 21:00 2,5 C 86 % 1026,9 hPa 0,0 l/m 24,9 km/h (4 Bft) O-NO 65 0 min 0,000 mm 0,0 UV-I 0 W/m 0,4 C -8,3 C 32,2 km/h (5 Bft) 100,00 %
16.03.2016 21:01 2,5 C 86 % 1026,8 hPa 0,0 l/m 26,0 km/h (4 Bft) O-NO 64 0 min 0,025 mm 0,0 UV-I 0 W/m 0,4 C -8,7 C 32,2 km/h (5 Bft) 100,00 %
16.03.2016 21:02 2,5 C 86 % 1026,9 hPa 0,0 l/m 23,1 km/h (4 Bft) O-NO 61 0 min 0,000 mm 0,0 UV-I 0 W/m 0,4 C -7,6 C 32,2 km/h (5 Bft) 100,00 %
16.03.2016 21:03 2,5 C 86 % 1026,9 hPa 0,0 l/m 23,6 km/h (4 Bft) N-NO 24 0 min 0,000 mm 0,0 UV-I 0 W/m 0,4 C -7,8 C 35,4 km/h (5 Bft) 100,00 %
16.03.2016 21:04 2,5 C 86 % 1026,9 hPa 0,0 l/m 21,3 km/h (4 Bft) O-NO 59 0 min 0,000 mm 0,0 UV-I 0 W/m 0,4 C -6,9 C 25,7 km/h (4 Bft) 100,00 %
16.03.2016 21:05 2,5 C 86 % 1026,9 hPa 0,0 l/m 24,7 km/h (4 Bft) NO 56 0 min 0,000 mm 0,0 UV-I 0 W/m 0,4 C -8,2 C 29,0 km/h (5 Bft) 100,00 %
16.03.2016 21:06 2,5 C 86 % 1026,9 hPa 0,0 l/m 23,0 km/h (4 Bft) O-NO 61 0 min 0,000 mm 0,0 UV-I 0 W/m 0,4 C -7,6 C 32,2 km/h (5 Bft) 100,00 %
16.03.2016 21:07 2,5 C 85 % 1026,9 hPa 0,0 l/m 20,8 km/h (4 Bft) O-NO 74 0 min 0,000 mm 0,0 UV-I 0 W/m 0,2 C -6,7 C 27,4 km/h (4 Bft) 100,00 %
16.03.2016 21:08 2,5 C 85 % 1026,9 hPa 0,0 l/m 19,7 km/h (3 Bft) O-NO 69 0 min 0,000 mm 0,0 UV-I 0 W/m 0,2 C -6,3 C 29,0 km/h (5 Bft) 100,00 %
16.03.2016 21:09 2,5 C 85 % 1026,9 hPa 0,0 l/m 16,0 km/h (3 Bft) O-NO 64 0 min 0,000 mm 0,0 UV-I 0 W/m 0,2 C -4,5 C 20,9 km/h (4 Bft) 100,00 %
16.03.2016 21:10 2,5 C 85 % 1026,8 hPa 0,0 l/m 18,6 km/h (3 Bft) O 79 0 min 0,000 mm 0,0 UV-I 0 W/m 0,2 C -5,8 C 25,7 km/h (4 Bft) 100,00 %
16.03.2016 21:11 2,5 C 85 % 1026,8 hPa 0,0 l/m 22,0 km/h (4 Bft) O-NO 61 0 min 0,000 mm 0,0 UV-I 0 W/m 0,2 C -7,2 C 29,0 km/h (5 Bft) 100,00 %
16.03.2016 21:12 2,5 C 85 % 1026,9 hPa 0,0 l/m 20,9 km/h (4 Bft) NO 42 0 min 0,000 mm 0,0 UV-I 0 W/m 0,2 C -6,8 C 27,4 km/h (4 Bft) 95,83 %
16.03.2016 21:13 2,4 C 86 % 1026,8 hPa 0,0 l/m 19,3 km/h (3 Bft) NO 44 0 min 0,000 mm 0,0 UV-I 0 W/m 0,3 C -6,2 C 27,4 km/h (4 Bft) 100,00 %
16.03.2016 21:14 2,4 C 86 % 1026,8 hPa 0,0 l/m 21,3 km/h (4 Bft) O-NO 66 0 min 0,000 mm 0,0 UV-I 0 W/m 0,3 C -7,1 C 29,0 km/h (5 Bft) 100,00 %
16.03.2016 21:15 2,4 C 86 % 1026,8 hPa 0,0 l/m 23,7 km/h (4 Bft) O-NO 58 0 min 0,000 mm 0,0 UV-I 0 W/m 0,3 C -8,0 C 27,4 km/h (4 Bft) 100,00 %
16.03.2016 21:16 2,4 C 86 % 1026,8 hPa 0,0 l/m 22,8 km/h (4 Bft) NO 47 0 min 0,000 mm 0,0 UV-I 0 W/m 0,3 C -7,7 C 29,0 km/h (5 Bft) 100,00 %
16.03.2016 21:17 2,4 C 86 % 1026,8 hPa 0,0 l/m 23,6 km/h (4 Bft) NO 55 0 min 0,000 mm 0,0 UV-I 0 W/m 0,3 C -8,0 C 29,0 km/h (5 Bft) 100,00 %
16.03.2016 21:18 2,4 C 86 % 1026,9 hPa 0,0 l/m 19,4 km/h (3 Bft) O-NO 78 0 min 0,000 mm 0,0 UV-I 0 W/m 0,3 C -6,3 C 27,4 km/h (4 Bft) 100,00 %
16.03.2016 21:19 2,4 C 86 % 1026,9 hPa 0,0 l/m 20,8 km/h (4 Bft) O-NO 71 0 min 0,000 mm 0,0 UV-I 0 W/m 0,3 C -6,9 C 29,0 km/h (5 Bft) 100,00 %
16.03.2016 21:20 2,4 C 86 % 1026,8 hPa 0,0 l/m 21,5 km/h (4 Bft) NO 36 0 min 0,000 mm 0,0 UV-I 0 W/m 0,3 C -7,2 C 30,6 km/h (5 Bft) 100,00 %
16.03.2016 21:21 2,4 C 86 % 1026,9 hPa 0,0 l/m 21,7 km/h (4 Bft) O-NO 65 0 min 0,000 mm 0,0 UV-I 0 W/m 0,3 C -7,2 C 30,6 km/h (5 Bft) 100,00 %
16.03.2016 21:22 2,4 C 86 % 1026,8 hPa 0,0 l/m 19,0 km/h (3 Bft) NO 50 0 min 0,000 mm 0,0 UV-I 0 W/m 0,3 C -6,1 C 24,1 km/h (4 Bft) 97,56 %
16.03.2016 21:23 2,4 C 86 % 1026,8 hPa 0,0 l/m 25,7 km/h (4 Bft) O-NO 63 0 min 0,000 mm 0,0 UV-I 0 W/m 0,3 C -8,7 C 32,2 km/h (5 Bft) 100,00 %
16.03.2016 21:24 2,4 C 86 % 1026,8 hPa 0,0 l/m 23,8 km/h (4 Bft) O-NO 66 0 min 0,000 mm 0,0 UV-I 0 W/m 0,3 C -8,0 C 32,2 km/h (5 Bft) 100,00 %
16.03.2016 21:25 2,4 C 86 % 1026,8 hPa 0,0 l/m 24,5 km/h (4 Bft) NO 53 0 min 0,000 mm 0,0 UV-I 0 W/m 0,3 C -8,3 C 32,2 km/h (5 Bft) 100,00 %
16.03.2016 21:26 2,3 C 86 % 1026,9 hPa 0,0 l/m 22,5 km/h (4 Bft) NO 51 0 min 0,000 mm 0,0 UV-I 0 W/m 0,2 C -7,7 C 30,6 km/h (5 Bft) 95,65 %
16.03.2016 21:27 2,4 C 86 % 1026,9 hPa 0,0 l/m 20,5 km/h (4 Bft) O-NO 64 0 min 0,000 mm 0,0 UV-I 0 W/m 0,3 C -6,7 C 27,4 km/h (4 Bft) 100,00 %
16.03.2016 21:28 2,4 C 86 % 1026,9 hPa 0,0 l/m 23,5 km/h (4 Bft) O-NO 78 0 min 0,000 mm 0,0 UV-I 0 W/m 0,3 C -7,9 C 29,0 km/h (5 Bft) 100,00 %
16.03.2016 21:29 2,3 C 86 % 1026,9 hPa 0,0 l/m 20,8 km/h (4 Bft) O-NO 76 0 min 0,000 mm 0,0 UV-I 0 W/m 0,2 C -7,0 C 32,2 km/h (5 Bft) 100,00 %
16.03.2016 21:30 2,3 C 86 % 1027,0 hPa 0,0 l/m 18,5 km/h (3 Bft) NO 53 0 min 0,000 mm 0,0 UV-I 0 W/m 0,2 C -6,0 C 25,7 km/h (4 Bft) 100,00 %
16.03.2016 21:31 2,3 C 86 % 1026,9 hPa 0,0 l/m 20,6 km/h (4 Bft) NO 53 0 min 0,000 mm 0,0 UV-I 0 W/m 0,2 C -6,9 C 30,6 km/h (5 Bft) 100,00 %
16.03.2016 21:32 2,3 C 86 % 1026,9 hPa 0,0 l/m 23,9 km/h (4 Bft) O 93 0 min 0,000 mm 0,0 UV-I 0 W/m 0,2 C -8,2 C 29,0 km/h (5 Bft) 100,00 %
16.03.2016 21:33 2,3 C 86 % 1027,0 hPa 0,0 l/m 22,1 km/h (4 Bft) O 91 0 min 0,000 mm 0,0 UV-I 0 W/m 0,2 C -7,5 C 32,2 km/h (5 Bft) 100,00 %
16.03.2016 21:34 2,3 C 86 % 1027,0 hPa 0,0 l/m 20,9 km/h (4 Bft) NO 55 0 min 0,000 mm 0,0 UV-I 0 W/m 0,2 C -7,0 C 25,7 km/h (4 Bft) 96,15 %
16.03.2016 21:35 2,3 C 86 % 1027,0 hPa 0,0 l/m 25,7 km/h (4 Bft) O-NO 57 0 min 0,000 mm 0,0 UV-I 0 W/m 0,2 C -8,8 C 30,6 km/h (5 Bft) 100,00 %
16.03.2016 21:36 2,3 C 86 % 1027,0 hPa 0,0 l/m 25,0 km/h (4 Bft) NO 44 0 min 0,000 mm 0,0 UV-I 0 W/m 0,2 C -8,6 C 32,2 km/h (5 Bft) 100,00 %
16.03.2016 21:37 2,3 C 86 % 1027,0 hPa 0,0 l/m 21,3 km/h (4 Bft) NO 44 0 min 0,000 mm 0,0 UV-I 0 W/m 0,2 C -7,2 C 29,0 km/h (5 Bft) 100,00 %
16.03.2016 21:38 2,3 C 86 % 1027,0 hPa 0,0 l/m 21,1 km/h (4 Bft) NO 37 0 min 0,000 mm 0,0 UV-I 0 W/m 0,2 C -7,1 C 27,4 km/h (4 Bft) 100,00 %
16.03.2016 21:39 2,3 C 86 % 1027,0 hPa 0,0 l/m 24,1 km/h (4 Bft) NO 49 0 min 0,000 mm 0,0 UV-I 0 W/m 0,2 C -8,3 C 30,6 km/h (5 Bft) 100,00 %
16.03.2016 21:40 2,3 C 86 % 1027,0 hPa 0,0 l/m 27,7 km/h (4 Bft) O-NO 57 0 min 0,000 mm 0,0 UV-I 0 W/m 0,2 C -9,5 C 33,8 km/h (5 Bft) 100,00 %
16.03.2016 21:41 2,3 C 86 % 1027,0 hPa 0,0 l/m 26,3 km/h (4 Bft) NO 48 0 min 0,000 mm 0,0 UV-I 0 W/m 0,2 C -9,0 C 33,8 km/h (5 Bft) 100,00 %
16.03.2016 21:42 2,3 C 86 % 1027,0 hPa 0,0 l/m 26,6 km/h (4 Bft) O-NO 57 0 min 0,000 mm 0,0 UV-I 0 W/m 0,2 C -9,1 C 33,8 km/h (5 Bft) 96,77 %
16.03.2016 21:43 2,3 C 86 % 1026,9 hPa 0,0 l/m 29,9 km/h (5 Bft) O 84 0 min 0,000 mm 0,0 UV-I 0 W/m 0,2 C -10,1 C 38,6 km/h (5 Bft) 100,00 %
16.03.2016 21:44 2,3 C 86 % 1027,0 hPa 0,0 l/m 24,4 km/h (4 Bft) O-NO 59 0 min 0,000 mm 0,0 UV-I 0 W/m 0,2 C -8,4 C 30,6 km/h (5 Bft) 96,30 %
16.03.2016 21:45 2,3 C 86 % 1027,0 hPa 0,0 l/m 22,5 km/h (4 Bft) O-NO 63 0 min 0,000 mm 0,0 UV-I 0 W/m 0,2 C -7,7 C 30,6 km/h (5 Bft) 100,00 %
16.03.2016 21:46 2,3 C 86 % 1027,0 hPa 0,0 l/m 24,9 km/h (4 Bft) O-NO 59 0 min 0,000 mm 0,0 UV-I 0 W/m 0,2 C -8,6 C 35,4 km/h (5 Bft) 96,67 %
16.03.2016 21:47 2,3 C 86 % 1027,0 hPa 0,0 l/m 25,0 km/h (4 Bft) O-NO 67 0 min 0,000 mm 0,0 UV-I 0 W/m 0,2 C -8,6 C 35,4 km/h (5 Bft) 100,00 %
16.03.2016 21:48 2,3 C 86 % 1027,0 hPa 0,0 l/m 23,0 km/h (4 Bft) O-NO 58 0 min 0,000 mm 0,0 UV-I 0 W/m 0,2 C -7,9 C 27,4 km/h (4 Bft) 96,30 %
16.03.2016 21:49 2,3 C 86 % 1027,0 hPa 0,0 l/m 21,8 km/h (4 Bft) O-NO 65 0 min 0,000 mm 0,0 UV-I 0 W/m 0,2 C -7,4 C 29,0 km/h (5 Bft) 98,64 %
16.03.2016 21:50 2,3 C 86 % 1027,0 hPa 0,0 l/m 23,0 km/h (4 Bft) NO 43 0 min 0,000 mm 0,0 UV-I 0 W/m 0,2 C -7,9 C 33,8 km/h (5 Bft) 97,14 %
16.03.2016 21:51 2,3 C 86 % 1027,0 hPa 0,0 l/m 27,5 km/h (4 Bft) NO 40 0 min 0,000 mm 0,0 UV-I 0 W/m 0,2 C -9,4 C 33,8 km/h (5 Bft) 95,12 %
16.03.2016 21:52 2,3 C 86 % 1027,0 hPa 0,0 l/m 24,1 km/h (4 Bft) NO 56 0 min 0,000 mm 0,0 UV-I 0 W/m 0,2 C -8,3 C 30,6 km/h (5 Bft) 100,00 %
16.03.2016 21:53 2,3 C 86 % 1026,9 hPa 0,0 l/m 22,4 km/h (4 Bft) O-NO 61 0 min 0,000 mm 0,0 UV-I 0 W/m 0,2 C -7,6 C 30,6 km/h (5 Bft) 95,65 %
16.03.2016 21:54 2,3 C 86 % 1027,0 hPa 0,0 l/m 22,1 km/h (4 Bft) NO 49 0 min 0,000 mm 0,0 UV-I 0 W/m 0,2 C -7,5 C 25,7 km/h (4 Bft) 100,00 %
16.03.2016 21:55 2,3 C 86 % 1027,0 hPa 0,0 l/m 25,7 km/h (4 Bft) O-NO 67 0 min 0,000 mm 0,0 UV-I 0 W/m 0,2 C -8,8 C 33,8 km/h (5 Bft) 96,15 %
16.03.2016 21:56 2,3 C 86 % 1027,0 hPa 0,0 l/m 23,7 km/h (4 Bft) O 82 0 min 0,000 mm 0,0 UV-I 0 W/m 0,2 C -8,1 C 29,0 km/h (5 Bft) 98,63 %
16.03.2016 21:57 2,3 C 86 % 1027,0 hPa 0,0 l/m 21,9 km/h (4 Bft) O-NO 77 0 min 0,000 mm 0,0 UV-I 0 W/m 0,2 C -7,4 C 27,4 km/h (4 Bft) 97,87 %
16.03.2016 21:58 2,2 C 86 % 1027,0 hPa 0,0 l/m 22,2 km/h (4 Bft) O-NO 77 0 min 0,000 mm 0,0 UV-I 0 W/m 0,1 C -7,7 C 30,6 km/h (5 Bft) 100,00 %
16.03.2016 21:59 2,2 C 86 % 1027,0 hPa 0,0 l/m 26,3 km/h (4 Bft) O-NO 62 0 min 0,000 mm 0,0 UV-I 0 W/m 0,1 C -9,2 C 30,6 km/h (5 Bft) 96,30 %
16.03.2016 22:00 2,2 C 86 % 1027,0 hPa 0,0 l/m 24,5 km/h (4 Bft) O-NO 71 0 min 0,000 mm 0,0 UV-I 0 W/m 0,1 C -8,6 C 33,8 km/h (5 Bft) 96,15 %
16.03.2016 22:02 2,2 C 86 % 1027,0 hPa 0,0 l/m 23,0 km/h (4 Bft) O-NO 69 0 min 0,025 mm 0,0 UV-I 0 W/m 0,1 C -8,0 C 30,6 km/h (5 Bft) 95,12 %
16.03.2016 22:03 2,2 C 86 % 1027,0 hPa 0,0 l/m 20,6 km/h (4 Bft) O-NO 57 0 min 0,000 mm 0,0 UV-I 0 W/m 0,1 C -7,0 C 27,4 km/h (4 Bft) 100,00 %
16.03.2016 22:04 2,2 C 86 % 1027,0 hPa 0,0 l/m 21,7 km/h (4 Bft) NO 46 0 min 0,000 mm 0,0 UV-I 0 W/m 0,1 C -7,5 C 30,6 km/h (5 Bft) 95,65 %
16.03.2016 22:05 2,2 C 86 % 1027,0 hPa 0,0 l/m 26,2 km/h (4 Bft) O-NO 59 0 min 0,000 mm 0,0 UV-I 0 W/m 0,1 C -9,1 C 30,6 km/h (5 Bft) 100,00 %
16.03.2016 22:06 2,2 C 86 % 1027,0 hPa 0,0 l/m 27,0 km/h (4 Bft) O-NO 63 0 min 0,000 mm 0,0 UV-I 0 W/m 0,1 C -9,4 C 33,8 km/h (5 Bft) 92,86 %
16.03.2016 22:07 2,3 C 85 % 1027,0 hPa 0,0 l/m 24,0 km/h (4 Bft) O-NO 78 0 min 0,000 mm 0,0 UV-I 0 W/m 0,0 C -8,2 C 29,0 km/h (5 Bft) 100,00 %
16.03.2016 22:08 2,3 C 86 % 1027,0 hPa 0,0 l/m 23,1 km/h (4 Bft) NO 52 0 min 0,000 mm 0,0 UV-I 0 W/m 0,2 C -7,9 C 29,0 km/h (5 Bft) 96,55 %
16.03.2016 22:09 2,3 C 86 % 1027,0 hPa 0,0 l/m 23,6 km/h (4 Bft) O-NO 70 0 min 0,000 mm 0,0 UV-I 0 W/m 0,2 C -8,1 C 29,0 km/h (5 Bft) 95,83 %
16.03.2016 22:10 2,3 C 86 % 1027,1 hPa 0,0 l/m 18,9 km/h (3 Bft) NO 41 0 min 0,000 mm 0,0 UV-I 0 W/m 0,2 C -6,2 C 24,1 km/h (4 Bft) 100,00 %
16.03.2016 22:11 2,3 C 86 % 1027,0 hPa 0,0 l/m 22,4 km/h (4 Bft) O-NO 68 0 min 0,000 mm 0,0 UV-I 0 W/m 0,2 C -7,6 C 29,0 km/h (5 Bft) 88,89 %
16.03.2016 22:12 2,3 C 86 % 1027,1 hPa 0,0 l/m 27,5 km/h (4 Bft) O-NO 78 0 min 0,000 mm 0,0 UV-I 0 W/m 0,2 C -9,4 C 37,0 km/h (5 Bft) 100,00 %
16.03.2016 22:13 2,3 C 86 % 1027,0 hPa 0,0 l/m 22,0 km/h (4 Bft) O-NO 61 0 min 0,000 mm 0,0 UV-I 0 W/m 0,2 C -7,5 C 30,6 km/h (5 Bft) 96,15 %
16.03.2016 22:14 2,3 C 86 % 1027,0 hPa 0,0 l/m 19,7 km/h (3 Bft) O-NO 67 0 min 0,000 mm 0,0 UV-I 0 W/m 0,2 C -6,5 C 29,0 km/h (5 Bft) 100,00 %
16.03.2016 22:15 2,3 C 86 % 1027,0 hPa 0,0 l/m 22,5 km/h (4 Bft) NO 55 0 min 0,000 mm 0,0 UV-I 0 W/m 0,2 C -7,7 C 27,4 km/h (4 Bft) 92,59 %
16.03.2016 22:16 2,3 C 86 % 1027,0 hPa 0,0 l/m 21,2 km/h (4 Bft) O 98 0 min 0,000 mm 0,0 UV-I 0 W/m 0,2 C -7,2 C 25,7 km/h (4 Bft) 100,00 %
16.03.2016 22:17 2,3 C 86 % 1027,1 hPa 0,0 l/m 21,7 km/h (4 Bft) O 84 0 min 0,000 mm 0,0 UV-I 0 W/m 0,2 C -7,4 C 27,4 km/h (4 Bft) 100,00 %
16.03.2016 22:18 2,3 C 86 % 1027,1 hPa 0,0 l/m 24,3 km/h (4 Bft) O-NO 75 0 min 0,000 mm 0,0 UV-I 0 W/m 0,2 C -8,4 C 30,6 km/h (5 Bft) 100,00 %
16.03.2016 22:19 2,3 C 86 % 1027,1 hPa 0,0 l/m 23,5 km/h (4 Bft) O 89 0 min 0,000 mm 0,0 UV-I 0 W/m 0,2 C -8,1 C 32,2 km/h (5 Bft) 100,00 %
16.03.2016 22:20 2,3 C 86 % 1027,1 hPa 0,0 l/m 22,0 km/h (4 Bft) NO 41 0 min 0,000 mm 0,0 UV-I 0 W/m 0,2 C -7,5 C 27,4 km/h (4 Bft) 98,60 %
16.03.2016 22:21 2,3 C 85 % 1027,1 hPa 0,0 l/m 23,4 km/h (4 Bft) O-NO 65 0 min 0,000 mm 0,0 UV-I 0 W/m 0,0 C -8,0 C 32,2 km/h (5 Bft) 97,73 %
16.03.2016 22:22 2,3 C 85 % 1027,1 hPa 0,0 l/m 25,3 km/h (4 Bft) O-NO 63 0 min 0,000 mm 0,0 UV-I 0 W/m 0,0 C -8,7 C 32,2 km/h (5 Bft) 100,00 %
16.03.2016 22:23 2,3 C 85 % 1027,1 hPa 0,0 l/m 24,8 km/h (4 Bft) O 80 0 min 0,000 mm 0,0 UV-I 0 W/m 0,0 C -8,5 C 29,0 km/h (5 Bft) 100,00 %
16.03.2016 22:24 2,3 C 85 % 1027,1 hPa 0,0 l/m 19,9 km/h (4 Bft) NO 48 0 min 0,000 mm 0,0 UV-I 0 W/m 0,0 C -6,6 C 25,7 km/h (4 Bft) 100,00 %
16.03.2016 22:25 2,3 C 85 % 1027,1 hPa 0,0 l/m 22,7 km/h (4 Bft) O-NO 69 0 min 0,000 mm 0,0 UV-I 0 W/m 0,0 C -7,8 C 29,0 km/h (5 Bft) 100,00 %
16.03.2016 22:26 2,3 C 85 % 1027,1 hPa 0,0 l/m 19,1 km/h (3 Bft) O-NO 66 0 min 0,000 mm 0,0 UV-I 0 W/m 0,0 C -6,3 C 25,7 km/h (4 Bft) 96,67 %
16.03.2016 22:27 2,3 C 85 % 1027,1 hPa 0,0 l/m 23,2 km/h (4 Bft) NO 51 0 min 0,000 mm 0,0 UV-I 0 W/m 0,0 C -8,0 C 32,2 km/h (5 Bft) 100,00 %
16.03.2016 22:28 2,3 C 85 % 1027,1 hPa 0,0 l/m 23,1 km/h (4 Bft) O-NO 73 0 min 0,000 mm 0,0 UV-I 0 W/m 0,0 C -7,9 C 32,2 km/h (5 Bft) 100,00 %
16.03.2016 22:29 2,3 C 85 % 1027,2 hPa 0,0 l/m 16,2 km/h (3 Bft) NO 45 0 min 0,000 mm 0,0 UV-I 0 W/m 0,0 C -4,8 C 22,5 km/h (4 Bft) 95,65 %
16.03.2016 22:30 2,3 C 85 % 1027,1 hPa 0,0 l/m 19,5 km/h (3 Bft) O-NO 59 0 min 0,000 mm 0,0 UV-I 0 W/m 0,0 C -6,4 C 25,7 km/h (4 Bft) 100,00 %
16.03.2016 22:31 2,3 C 85 % 1027,1 hPa 0,0 l/m 18,8 km/h (3 Bft) NO 37 0 min 0,000 mm 0,0 UV-I 0 W/m 0,0 C -6,1 C 22,5 km/h (4 Bft) 100,00 %
16.03.2016 22:32 2,3 C 86 % 1027,1 hPa 0,0 l/m 16,2 km/h (3 Bft) NO 44 0 min 0,000 mm 0,0 UV-I 0 W/m 0,2 C -4,8 C 20,9 km/h (4 Bft) 100,00 %
16.03.2016 22:33 2,3 C 86 % 1027,2 hPa 0,0 l/m 21,2 km/h (4 Bft) NO 49 0 min 0,000 mm 0,0 UV-I 0 W/m 0,2 C -7,2 C 27,4 km/h (4 Bft) 96,15 %
16.03.2016 22:34 2,2 C 85 % 1027,2 hPa 0,0 l/m 19,8 km/h (3 Bft) NO 55 0 min 0,000 mm 0,0 UV-I 0 W/m -0,1 C -6,7 C 25,7 km/h (4 Bft) 100,00 %
16.03.2016 22:35 2,2 C 86 % 1027,2 hPa 0,0 l/m 22,4 km/h (4 Bft) O-NO 70 0 min 0,000 mm 0,0 UV-I 0 W/m 0,1 C -7,8 C 29,0 km/h (5 Bft) 100,00 %
16.03.2016 22:36 2,2 C 86 % 1027,2 hPa 0,0 l/m 22,7 km/h (4 Bft) O-NO 67 0 min 0,000 mm 0,0 UV-I 0 W/m 0,1 C -7,9 C 33,8 km/h (5 Bft) 100,00 %
16.03.2016 22:37 2,2 C 86 % 1027,2 hPa 0,0 l/m 21,3 km/h (4 Bft) O-NO 62 0 min 0,000 mm 0,0 UV-I 0 W/m 0,1 C -7,3 C 29,0 km/h (5 Bft) 100,00 %
16.03.2016 22:38 2,2 C 86 % 1027,2 hPa 0,0 l/m 17,1 km/h (3 Bft) O-NO 68 0 min 0,000 mm 0,0 UV-I 0 W/m 0,1 C -5,4 C 20,9 km/h (4 Bft) 96,15 %
16.03.2016 22:39 2,2 C 86 % 1027,3 hPa 0,0 l/m 19,6 km/h (3 Bft) O-NO 60 0 min 0,000 mm 0,0 UV-I 0 W/m 0,1 C -6,6 C 25,7 km/h (4 Bft) 95,83 %
16.03.2016 22:40 2,2 C 86 % 1027,2 hPa 0,0 l/m 22,3 km/h (4 Bft) O-NO 63 0 min 0,000 mm 0,0 UV-I 0 W/m 0,1 C -7,7 C 27,4 km/h (4 Bft) 100,00 %
16.03.2016 22:41 2,2 C 86 % 1027,2 hPa 0,0 l/m 20,2 km/h (4 Bft) NO 48 0 min 0,000 mm 0,0 UV-I 0 W/m 0,1 C -6,9 C 27,4 km/h (4 Bft) 100,00 %
16.03.2016 22:42 2,2 C 86 % 1027,3 hPa 0,0 l/m 21,0 km/h (4 Bft) NO 44 0 min 0,000 mm 0,0 UV-I 0 W/m 0,1 C -7,2 C 24,1 km/h (4 Bft) 100,00 %
16.03.2016 22:43 2,2 C 86 % 1027,2 hPa 0,0 l/m 18,4 km/h (3 Bft) NO 51 0 min 0,000 mm 0,0 UV-I 0 W/m 0,1 C -6,1 C 24,1 km/h (4 Bft) 100,00 %
16.03.2016 22:44 2,2 C 86 % 1027,2 hPa 0,0 l/m 18,9 km/h (3 Bft) O-NO 66 0 min 0,000 mm 0,0 UV-I 0 W/m 0,1 C -6,3 C 22,5 km/h (4 Bft) 100,00 %
16.03.2016 22:45 2,2 C 86 % 1027,2 hPa 0,0 l/m 17,9 km/h (3 Bft) N-NO 24 0 min 0,000 mm 0,0 UV-I 0 W/m 0,1 C -5,8 C 22,5 km/h (4 Bft) 100,00 %
16.03.2016 22:46 2,2 C 86 % 1027,2 hPa 0,0 l/m 18,2 km/h (3 Bft) O-NO 69 0 min 0,000 mm 0,0 UV-I 0 W/m 0,1 C -6,0 C 25,7 km/h (4 Bft) 94,12 %
16.03.2016 22:47 2,2 C 86 % 1027,2 hPa 0,0 l/m 18,1 km/h (3 Bft) O 84 0 min 0,000 mm 0,0 UV-I 0 W/m 0,1 C -5,9 C 22,5 km/h (4 Bft) 100,00 %
16.03.2016 22:48 2,2 C 86 % 1027,2 hPa 0,0 l/m 23,6 km/h (4 Bft) O-NO 65 0 min 0,000 mm 0,0 UV-I 0 W/m 0,1 C -8,2 C 32,2 km/h (5 Bft) 100,00 %
16.03.2016 22:49 2,1 C 86 % 1027,2 hPa 0,0 l/m 20,3 km/h (4 Bft) O-NO 60 0 min 0,000 mm 0,0 UV-I 0 W/m 0,0 C -7,0 C 27,4 km/h (4 Bft) 100,00 %
16.03.2016 22:50 2,1 C 86 % 1027,2 hPa 0,0 l/m 17,5 km/h (3 Bft) O-NO 67 0 min 0,000 mm 0,0 UV-I 0 W/m 0,0 C -5,8 C 20,9 km/h (4 Bft) 100,00 %
16.03.2016 22:51 2,1 C 86 % 1027,2 hPa 0,0 l/m 19,3 km/h (3 Bft) NO 54 0 min 0,000 mm 0,0 UV-I 0 W/m 0,0 C -6,6 C 27,4 km/h (4 Bft) 100,00 %
16.03.2016 22:52 2,1 C 86 % 1027,1 hPa 0,0 l/m 24,1 km/h (4 Bft) O-NO 77 0 min 0,000 mm 0,0 UV-I 0 W/m 0,0 C -8,6 C 29,0 km/h (5 Bft) 95,65 %
16.03.2016 22:53 2,1 C 86 % 1027,1 hPa 0,0 l/m 18,7 km/h (3 Bft) O 79 0 min 0,000 mm 0,0 UV-I 0 W/m 0,0 C -6,3 C 27,4 km/h (4 Bft) 100,00 %
16.03.2016 22:54 2,1 C 86 % 1027,1 hPa 0,0 l/m 16,0 km/h (3 Bft) NO 34 0 min 0,000 mm 0,0 UV-I 0 W/m 0,0 C -5,0 C 20,9 km/h (4 Bft) 98,61 %
16.03.2016 22:55 2,1 C 86 % 1027,1 hPa 0,0 l/m 20,0 km/h (4 Bft) NO 44 0 min 0,000 mm 0,0 UV-I 0 W/m 0,0 C -6,9 C 24,1 km/h (4 Bft) 100,00 %
16.03.2016 22:56 2,1 C 86 % 1027,2 hPa 0,0 l/m 18,5 km/h (3 Bft) O-NO 61 0 min 0,000 mm 0,0 UV-I 0 W/m 0,0 C -6,2 C 24,1 km/h (4 Bft) 96,15 %
16.03.2016 22:57 2,1 C 86 % 1027,2 hPa 0,0 l/m 19,8 km/h (3 Bft) O-NO 71 0 min 0,000 mm 0,0 UV-I 0 W/m 0,0 C -6,8 C 24,1 km/h (4 Bft) 98,61 %
16.03.2016 22:58 2,1 C 86 % 1027,2 hPa 0,0 l/m 19,7 km/h (3 Bft) O 95 0 min 0,000 mm 0,0 UV-I 0 W/m 0,0 C -6,8 C 29,0 km/h (5 Bft) 100,00 %
16.03.2016 22:59 2,1 C 86 % 1027,2 hPa 0,0 l/m 15,9 km/h (3 Bft) O 86 0 min 0,000 mm 0,0 UV-I 0 W/m 0,0 C -4,9 C 20,9 km/h (4 Bft) 100,00 %
16.03.2016 23:00 2,1 C 86 % 1027,2 hPa 0,0 l/m 16,8 km/h (3 Bft) O-NO 61 0 min 0,000 mm 0,0 UV-I 0 W/m 0,0 C -5,4 C 20,9 km/h (4 Bft) 100,00 %
16.03.2016 23:01 2,1 C 86 % 1027,2 hPa 0,0 l/m 18,9 km/h (3 Bft) O-NO 61 0 min 0,026 mm 0,0 UV-I 0 W/m 0,0 C -6,4 C 24,1 km/h (4 Bft) 100,00 %
16.03.2016 23:02 2,1 C 86 % 1027,2 hPa 0,0 l/m 21,9 km/h (4 Bft) O-NO 61 0 min 0,000 mm 0,0 UV-I 0 W/m 0,0 C -7,7 C 29,0 km/h (5 Bft) 100,00 %
16.03.2016 23:03 2,1 C 86 % 1027,2 hPa 0,0 l/m 18,1 km/h (3 Bft) O-NO 65 0 min 0,000 mm 0,0 UV-I 0 W/m 0,0 C -6,0 C 22,5 km/h (4 Bft) 100,00 %
16.03.2016 23:04 2,1 C 86 % 1027,2 hPa 0,0 l/m 19,7 km/h (3 Bft) O 80 0 min 0,000 mm 0,0 UV-I 0 W/m 0,0 C -6,8 C 25,7 km/h (4 Bft) 92,59 %
16.03.2016 23:05 2,0 C 86 % 1027,2 hPa 0,0 l/m 23,0 km/h (4 Bft) O-NO 64 0 min 0,000 mm 0,0 UV-I 0 W/m -0,1 C -8,3 C 27,4 km/h (4 Bft) 100,00 %
16.03.2016 23:06 2,0 C 86 % 1027,2 hPa 0,0 l/m 18,8 km/h (3 Bft) O-NO 74 0 min 0,000 mm 0,0 UV-I 0 W/m -0,1 C -6,5 C 24,1 km/h (4 Bft) 100,00 %
16.03.2016 23:07 2,0 C 86 % 1027,2 hPa 0,0 l/m 19,2 km/h (3 Bft) O 84 0 min 0,000 mm 0,0 UV-I 0 W/m -0,1 C -6,7 C 24,1 km/h (4 Bft) 100,00 %
16.03.2016 23:08 2,0 C 86 % 1027,2 hPa 0,0 l/m 19,4 km/h (3 Bft) O 100 0 min 0,000 mm 0,0 UV-I 0 W/m -0,1 C -6,8 C 25,7 km/h (4 Bft) 100,00 %
16.03.2016 23:09 2,0 C 86 % 1027,2 hPa 0,0 l/m 17,6 km/h (3 Bft) NO 46 0 min 0,000 mm 0,0 UV-I 0 W/m -0,1 C -5,9 C 20,9 km/h (4 Bft) 100,00 %
16.03.2016 23:10 2,0 C 86 % 1027,2 hPa 0,0 l/m 18,7 km/h (3 Bft) O-NO 66 0 min 0,000 mm 0,0 UV-I 0 W/m -0,1 C -6,5 C 24,1 km/h (4 Bft) 100,00 %
16.03.2016 23:11 2,0 C 86 % 1027,2 hPa 0,0 l/m 17,4 km/h (3 Bft) NO 52 0 min 0,000 mm 0,0 UV-I 0 W/m -0,1 C -5,8 C 24,1 km/h (4 Bft) 100,00 %
16.03.2016 23:12 2,0 C 86 % 1027,2 hPa 0,0 l/m 17,7 km/h (3 Bft) O-NO 61 0 min 0,000 mm 0,0 UV-I 0 W/m -0,1 C -6,0 C 20,9 km/h (4 Bft) 100,00 %
16.03.2016 23:13 2,0 C 86 % 1027,2 hPa 0,0 l/m 18,2 km/h (3 Bft) O-NO 60 0 min 0,000 mm 0,0 UV-I 0 W/m -0,1 C -6,2 C 20,9 km/h (4 Bft) 100,00 %
16.03.2016 23:14 2,0 C 86 % 1027,2 hPa 0,0 l/m 16,3 km/h (3 Bft) O-NO 76 0 min 0,000 mm 0,0 UV-I 0 W/m -0,1 C -5,3 C 22,5 km/h (4 Bft) 100,00 %
16.03.2016 23:15 2,0 C 86 % 1027,3 hPa 0,0 l/m 19,6 km/h (3 Bft) O-NO 71 0 min 0,000 mm 0,0 UV-I 0 W/m -0,1 C -6,9 C 27,4 km/h (4 Bft) 96,55 %
16.03.2016 23:16 2,0 C 86 % 1027,3 hPa 0,0 l/m 13,7 km/h (3 Bft) NO 50 0 min 0,000 mm 0,0 UV-I 0 W/m -0,1 C -3,8 C 19,3 km/h (3 Bft) 100,00 %
16.03.2016 23:17 2,0 C 86 % 1027,3 hPa 0,0 l/m 13,9 km/h (3 Bft) O-NO 66 0 min 0,000 mm 0,0 UV-I 0 W/m -0,1 C -3,9 C 19,3 km/h (3 Bft) 100,00 %
16.03.2016 23:18 2,0 C 86 % 1027,3 hPa 0,0 l/m 15,8 km/h (3 Bft) O 82 0 min 0,000 mm 0,0 UV-I 0 W/m -0,1 C -5,0 C 19,3 km/h (3 Bft) 96,88 %
16.03.2016 23:19 1,9 C 86 % 1027,3 hPa 0,0 l/m 19,2 km/h (3 Bft) O 90 0 min 0,000 mm 0,0 UV-I 0 W/m -0,2 C -6,8 C 25,7 km/h (4 Bft) 100,00 %
16.03.2016 23:20 1,9 C 86 % 1027,2 hPa 0,0 l/m 18,6 km/h (3 Bft) O-NO 70 0 min 0,000 mm 0,0 UV-I 0 W/m -0,2 C -6,5 C 24,1 km/h (4 Bft) 100,00 %
16.03.2016 23:21 1,9 C 86 % 1027,2 hPa 0,0 l/m 16,2 km/h (3 Bft) NO 47 0 min 0,000 mm 0,0 UV-I 0 W/m -0,2 C -5,3 C 20,9 km/h (4 Bft) 100,00 %
16.03.2016 23:22 1,9 C 86 % 1027,2 hPa 0,0 l/m 16,1 km/h (3 Bft) O-NO 64 0 min 0,000 mm 0,0 UV-I 0 W/m -0,2 C -5,3 C 20,9 km/h (4 Bft) 100,00 %
16.03.2016 23:23 1,9 C 86 % 1027,2 hPa 0,0 l/m 18,3 km/h (3 Bft) O-NO 74 0 min 0,000 mm 0,0 UV-I 0 W/m -0,2 C -6,4 C 22,5 km/h (4 Bft) 100,00 %
16.03.2016 23:24 1,9 C 86 % 1027,2 hPa 0,0 l/m 21,3 km/h (4 Bft) O-NO 60 0 min 0,000 mm 0,0 UV-I 0 W/m -0,2 C -7,7 C 29,0 km/h (5 Bft) 100,00 %
16.03.2016 23:25 1,9 C 86 % 1027,2 hPa 0,0 l/m 18,1 km/h (3 Bft) O-NO 57 0 min 0,000 mm 0,0 UV-I 0 W/m -0,2 C -6,3 C 22,5 km/h (4 Bft) 100,00 %
16.03.2016 23:26 1,9 C 86 % 1027,2 hPa 0,0 l/m 18,8 km/h (3 Bft) O-NO 66 0 min 0,000 mm 0,0 UV-I 0 W/m -0,2 C -6,6 C 24,1 km/h (4 Bft) 92,86 %
16.03.2016 23:27 1,9 C 86 % 1027,2 hPa 0,0 l/m 19,2 km/h (3 Bft) O-NO 69 0 min 0,000 mm 0,0 UV-I 0 W/m -0,2 C -6,8 C 22,5 km/h (4 Bft) 96,30 %
16.03.2016 23:28 1,9 C 86 % 1027,2 hPa 0,0 l/m 22,3 km/h (4 Bft) O-NO 66 0 min 0,000 mm 0,0 UV-I 0 W/m -0,2 C -8,1 C 30,6 km/h (5 Bft) 100,00 %
16.03.2016 23:29 1,9 C 86 % 1027,2 hPa 0,0 l/m 19,1 km/h (3 Bft) O-NO 71 0 min 0,000 mm 0,0 UV-I 0 W/m -0,2 C -6,8 C 25,7 km/h (4 Bft) 100,00 %
16.03.2016 23:30 1,9 C 86 % 1027,2 hPa 0,0 l/m 20,9 km/h (4 Bft) NO 51 0 min 0,000 mm 0,0 UV-I 0 W/m -0,2 C -7,6 C 27,4 km/h (4 Bft) 96,15 %
16.03.2016 23:31 1,9 C 86 % 1027,2 hPa 0,0 l/m 22,4 km/h (4 Bft) O-NO 63 0 min 0,000 mm 0,0 UV-I 0 W/m -0,2 C -8,2 C 27,4 km/h (4 Bft) 100,00 %
16.03.2016 23:32 1,9 C 86 % 1027,2 hPa 0,0 l/m 18,3 km/h (3 Bft) O-NO 65 0 min 0,000 mm 0,0 UV-I 0 W/m -0,2 C -6,4 C 24,1 km/h (4 Bft) 100,00 %
16.03.2016 23:33 1,9 C 86 % 1027,2 hPa 0,0 l/m 20,1 km/h (4 Bft) O-NO 61 0 min 0,000 mm 0,0 UV-I 0 W/m -0,2 C -7,2 C 25,7 km/h (4 Bft) 100,00 %
16.03.2016 23:34 1,9 C 86 % 1027,2 hPa 0,0 l/m 17,3 km/h (3 Bft) O-NO 57 0 min 0,000 mm 0,0 UV-I 0 W/m -0,2 C -5,9 C 20,9 km/h (4 Bft) 100,00 %
16.03.2016 23:35 1,9 C 86 % 1027,2 hPa 0,0 l/m 20,3 km/h (4 Bft) O-NO 69 0 min 0,000 mm 0,0 UV-I 0 W/m -0,2 C -7,3 C 24,1 km/h (4 Bft) 100,00 %
16.03.2016 23:36 1,9 C 86 % 1027,2 hPa 0,0 l/m 19,0 km/h (3 Bft) O 82 0 min 0,000 mm 0,0 UV-I 0 W/m -0,2 C -6,7 C 29,0 km/h (5 Bft) 100,00 %
16.03.2016 23:37 1,9 C 86 % 1027,2 hPa 0,0 l/m 17,4 km/h (3 Bft) O-NO 74 0 min 0,000 mm 0,0 UV-I 0 W/m -0,2 C -6,0 C 25,7 km/h (4 Bft) 95,65 %
16.03.2016 23:38 1,9 C 86 % 1027,2 hPa 0,0 l/m 16,9 km/h (3 Bft) O-NO 71 0 min 0,000 mm 0,0 UV-I 0 W/m -0,2 C -5,7 C 20,9 km/h (4 Bft) 100,00 %
16.03.2016 23:39 1,9 C 86 % 1027,2 hPa 0,0 l/m 18,3 km/h (3 Bft) O-NO 68 0 min 0,000 mm 0,0 UV-I 0 W/m -0,2 C -6,4 C 22,5 km/h (4 Bft) 100,00 %
16.03.2016 23:40 1,9 C 86 % 1027,2 hPa 0,0 l/m 20,1 km/h (4 Bft) O-NO 78 0 min 0,000 mm 0,0 UV-I 0 W/m -0,2 C -7,2 C 27,4 km/h (4 Bft) 100,00 %
16.03.2016 23:41 1,9 C 86 % 1027,2 hPa 0,0 l/m 18,6 km/h (3 Bft) O 86 0 min 0,000 mm 0,0 UV-I 0 W/m -0,2 C -6,5 C 22,5 km/h (4 Bft) 100,00 %
16.03.2016 23:42 1,8 C 86 % 1027,2 hPa 0,0 l/m 20,3 km/h (4 Bft) O-NO 67 0 min 0,000 mm 0,0 UV-I 0 W/m -0,3 C -7,4 C 25,7 km/h (4 Bft) 100,00 %
16.03.2016 23:43 1,8 C 86 % 1027,1 hPa 0,0 l/m 18,5 km/h (3 Bft) O-NO 76 0 min 0,000 mm 0,0 UV-I 0 W/m -0,3 C -6,6 C 24,1 km/h (4 Bft) 100,00 %
16.03.2016 23:44 1,8 C 86 % 1027,1 hPa 0,0 l/m 16,9 km/h (3 Bft) O-NO 73 0 min 0,000 mm 0,0 UV-I 0 W/m -0,3 C -5,8 C 22,5 km/h (4 Bft) 100,00 %
16.03.2016 23:45 1,8 C 86 % 1027,1 hPa 0,0 l/m 16,7 km/h (3 Bft) NO 52 0 min 0,000 mm 0,0 UV-I 0 W/m -0,3 C -5,7 C 24,1 km/h (4 Bft) 100,00 %
16.03.2016 23:46 1,8 C 86 % 1027,1 hPa 0,0 l/m 18,7 km/h (3 Bft) O 89 0 min 0,000 mm 0,0 UV-I 0 W/m -0,3 C -6,7 C 24,1 km/h (4 Bft) 96,67 %
16.03.2016 23:47 1,8 C 86 % 1027,1 hPa 0,0 l/m 19,6 km/h (3 Bft) O 84 0 min 0,000 mm 0,0 UV-I 0 W/m -0,3 C -7,1 C 25,7 km/h (4 Bft) 100,00 %
16.03.2016 23:48 1,8 C 86 % 1027,1 hPa 0,0 l/m 18,5 km/h (3 Bft) O-NO 65 0 min 0,000 mm 0,0 UV-I 0 W/m -0,3 C -6,6 C 22,5 km/h (4 Bft) 96,30 %
16.03.2016 23:49 1,8 C 86 % 1027,2 hPa 0,0 l/m 19,6 km/h (3 Bft) O-NO 67 0 min 0,000 mm 0,0 UV-I 0 W/m -0,3 C -7,1 C 24,1 km/h (4 Bft) 100,00 %
16.03.2016 23:50 1,8 C 86 % 1027,2 hPa 0,0 l/m 17,1 km/h (3 Bft) O-NO 78 0 min 0,000 mm 0,0 UV-I 0 W/m -0,3 C -5,9 C 22,5 km/h (4 Bft) 95,83 %
16.03.2016 23:51 1,8 C 87 % 1027,2 hPa 0,0 l/m 16,7 km/h (3 Bft) O-NO 63 0 min 0,000 mm 0,0 UV-I 0 W/m -0,1 C -5,7 C 24,1 km/h (4 Bft) 91,30 %
16.03.2016 23:52 1,8 C 87 % 1027,2 hPa 0,0 l/m 20,2 km/h (4 Bft) O-NO 63 0 min 0,000 mm 0,0 UV-I 0 W/m -0,1 C -7,4 C 25,7 km/h (4 Bft) 100,00 %
16.03.2016 23:53 1,8 C 86 % 1027,2 hPa 0,0 l/m 14,6 km/h (3 Bft) O-NO 71 0 min 0,000 mm 0,0 UV-I 0 W/m -0,3 C -4,6 C 19,3 km/h (3 Bft) 95,65 %
16.03.2016 23:54 1,8 C 87 % 1027,2 hPa 0,0 l/m 18,8 km/h (3 Bft) O-NO 65 0 min 0,000 mm 0,0 UV-I 0 W/m -0,1 C -6,8 C 25,7 km/h (4 Bft) 100,00 %
16.03.2016 23:55 1,8 C 87 % 1027,2 hPa 0,0 l/m 18,8 km/h (3 Bft) O 84 0 min 0,000 mm 0,0 UV-I 0 W/m -0,1 C -6,8 C 22,5 km/h (4 Bft) 83,33 %
16.03.2016 23:56 1,8 C 87 % 1027,2 hPa 0,0 l/m 18,2 km/h (3 Bft) O-NO 78 0 min 0,000 mm 0,0 UV-I 0 W/m -0,1 C -6,5 C 22,5 km/h (4 Bft) 100,00 %
16.03.2016 23:57 1,8 C 87 % 1027,2 hPa 0,0 l/m 18,7 km/h (3 Bft) O-NO 65 0 min 0,000 mm 0,0 UV-I 0 W/m -0,1 C -6,7 C 22,5 km/h (4 Bft) 96,30 %
16.03.2016 23:58 1,8 C 87 % 1027,2 hPa 0,0 l/m 17,9 km/h (3 Bft) O-NO 76 0 min 0,000 mm 0,0 UV-I 0 W/m -0,1 C -6,3 C 24,1 km/h (4 Bft) 100,00 %
16.03.2016 23:59 1,8 C 87 % 1027,2 hPa 0,0 l/m 17,1 km/h (3 Bft) O 88 0 min 0,000 mm 0,0 UV-I 0 W/m -0,1 C -5,9 C 25,7 km/h (4 Bft) 93,33 %
_ Min-Zeit 03:56 15:01 00:00 - 04:43 - - - - - - 03:56 11:33 00:13 06:30
Minimum _ -0,4 C 67 % 1022,8 hPa - 0,8 km/h (0 Bft) - - - - - - -1,2 C -11,8 C 3,2 km/h (1 Bft) 83,33 %
_ Max-Zeit 14:52 00:00 22:39 08:58 16:46 - - 16:25 14:02 11:54 11:24 13:13 07:35 13:14 00:00
Maximum _ 6,6 C 97 % 1027,3 hPa 0,2 l/m 37,5 km/h
O-NO (5 Bft)
- - 3 min 0,280 mm 2,4 UV-I 828 W/m 2,6 C 0,3 C 53,1 km/h
O-NO (7 Bft)
100,00 %
Durchschnitt _ 2,2 C 87 % 1025,4 hPa #2,4 l/m 17,8 km/h (3 Bft) O-NO - #5:25 h #1,702 mm 1,3 UV-I 262 W/m 0,2 C -4,4 C 23,4 km/h (4 Bft) 98,60 %